[[{"header":{"parameterUnit":"m.s-1","parameterCategory":1,"la1":30.6,"la2":28.766,"lo1":-90.7593,"lo2":-88.6598,"dy":0.0162,"dx":0.0183,"nx":116,"ny":114,"refTime":"2024-06-22T18:00:00:Z","depth":0,"parameterNumber":2,"parameterNumberName":"U-component_of_WINDS"},"data":[0.0,0.0,0.0,0.0,0.0,0.0,0.0,0.0,0.0,0.0,0.0,0.0,0.0,0.0,0.0,0.0,0.0,0.0,0.0,0.0,0.0,0.0,0.0,0.0,0.0,0.0,0.0,0.0,0.0,0.0,0.0,0.0,0.0,0.0,0.0,0.0,0.0,0.0,0.0,0.0,0.0,0.0,0.0,0.0,0.0,0.0,0.0,0.0,0.0,0.0,0.0,0.0,0.0,0.0,0.0,0.0,0.0,0.0,0.0,0.0,0.0,0.0,0.0,0.0,0.0,0.0,0.0,0.0,0.0,0.0,0.0,0.0,0.0,0.0,0.0,0.0,0.0,0.0,0.0,0.0,0.0,0.0,0.0,0.0,0.0,0.0,0.0,0.0,0.0,0.0,0.0,0.0,0.0,0.0,0.0,0.0,0.0,0.0,0.0,0.0,0.0,0.0,0.0,0.0,0.0,0.0,0.0,0.0,0.0,0.0,0.0,0.0,0.0,0.0,0.0,0.0,0.0,0.0,0.0,0.0,0.0,0.0,0.0,0.0,0.0,0.0,0.0,0.0,0.0,0.0,0.0,0.0,0.0,0.0,0.0,0.0,0.0,0.0,0.0,0.0,0.0,0.0,0.0,0.0,0.0,0.0,0.0,0.0,0.0,0.0,0.0,0.0,0.0,0.0,0.0,0.0,0.0,0.0,0.0,0.0,0.0,0.0,0.0,0.0,0.0,0.0,0.0,0.0,0.0,0.0,0.0,0.0,0.0,0.0,0.0,0.0,0.0,0.0,0.0,0.0,0.0,0.0,0.0,0.0,0.0,0.0,0.0,0.0,0.0,0.0,0.0,0.0,0.0,0.0,0.0,0.0,0.0,0.0,0.0,0.0,0.0,0.0,0.0,0.0,0.0,0.0,0.0,0.0,0.0,0.0,0.0,0.0,0.0,0.0,0.0,0.0,0.0,0.0,0.0,0.0,0.0,0.0,0.0,0.0,0.0,0.0,0.0,0.0,0.0,0.0,0.0,0.0,0.0,0.0,0.0,0.0,0.0,0.0,0.0,0.0,0.0,0.0,0.0,0.0,0.0,0.0,0.0,0.0,0.0,0.0,0.0,0.0,0.0,0.0,0.0,0.0,0.0,0.0,0.0,0.0,0.0,0.0,0.0,0.0,0.0,0.0,0.0,0.0,0.0,0.0,0.0,0.0,0.0,0.0,0.0,0.0,0.0,0.0,0.0,0.0,0.0,0.0,0.0,0.0,0.0,0.0,0.0,0.0,0.0,0.0,0.0,0.0,0.0,0.0,0.0,0.0,0.0,0.0,0.0,0.0,0.0,0.0,0.0,0.0,0.0,0.0,0.0,0.0,0.0,0.0,0.0,0.0,0.0,0.0,0.0,0.0,0.0,0.0,0.0,0.0,0.0,0.0,0.0,0.0,0.0,0.0,0.0,0.0,0.0,0.0,0.0,0.0,0.0,0.0,0.0,0.0,0.0,0.0,0.0,0.0,0.0,0.0,0.0,0.0,0.0,0.0,0.0,0.0,0.0,0.0,0.0,0.0,0.0,0.0,0.0,0.0,0.0,0.0,0.0,0.0,0.0,0.0,0.0,0.0,0.0,0.0,0.0,0.0,0.0,0.0,0.0,0.0,0.0,0.0,0.0,0.0,0.0,0.0,0.0,0.0,0.0,0.0,0.0,0.0,0.0,0.0,0.0,0.0,0.0,0.0,0.0,0.0,0.0,0.0,0.0,0.0,0.0,0.0,0.0,0.0,0.0,0.0,0.0,0.0,0.0,0.0,0.0,0.0,0.0,0.0,0.0,0.0,0.0,0.0,0.0,0.0,0.0,0.0,0.0,0.0,0.0,0.0,0.0,0.0,0.0,0.0,0.0,0.0,0.0,0.0,0.0,0.0,0.0,0.0,0.0,0.0,0.0,0.0,0.0,0.0,0.0,0.0,0.0,0.0,0.0,0.0,0.0,0.0,0.0,0.0,0.0,0.0,0.0,0.0,0.0,0.0,0.0,0.0,0.0,0.0,0.0,0.0,0.0,0.0,0.0,0.0,0.0,0.0,0.0,0.0,0.0,0.0,0.0,0.0,0.0,0.0,0.0,0.0,0.0,0.0,0.0,0.0,0.0,0.0,0.0,0.0,0.0,0.0,0.0,0.0,0.0,0.0,0.0,0.0,0.0,0.0,0.0,0.0,0.0,0.0,0.0,0.0,0.0,0.0,0.0,0.0,0.0,0.0,0.0,0.0,0.0,0.0,0.0,0.0,0.0,0.0,0.0,0.0,0.0,0.0,0.0,0.0,0.0,0.0,0.0,0.0,0.0,0.0,0.0,0.0,0.0,0.0,0.0,0.0,0.0,0.0,0.0,0.0,0.0,0.0,0.0,0.0,0.0,0.0,0.0,0.0,0.0,0.0,0.0,0.0,0.0,0.0,0.0,0.0,0.0,0.0,0.0,0.0,0.0,0.0,0.0,0.0,0.0,0.0,0.0,0.0,0.0,0.0,0.0,0.0,0.0,0.0,0.0,0.0,0.0,0.0,0.0,0.0,0.0,0.0,0.0,0.0,0.0,0.0,0.0,0.0,0.0,0.0,0.0,0.0,0.0,0.0,0.0,0.0,0.0,0.0,0.0,0.0,0.0,0.0,0.0,0.0,0.0,0.0,0.0,0.0,0.0,0.0,0.0,0.0,0.0,0.0,0.0,0.0,0.0,0.0,0.0,0.0,0.0,0.0,0.0,0.0,0.0,0.0,0.0,0.0,0.0,0.0,0.0,0.0,0.0,0.0,0.0,0.0,0.0,0.0,0.0,0.0,0.0,0.0,0.0,0.0,0.0,0.0,0.0,0.0,0.0,0.0,0.0,0.0,0.0,0.0,0.0,0.0,0.0,0.0,0.0,0.0,0.0,0.0,0.0,0.0,0.0,0.0,0.0,0.0,0.0,0.0,0.0,0.0,0.0,0.0,0.0,0.0,0.0,0.0,0.0,0.0,0.0,0.0,0.0,0.0,0.0,0.0,0.0,0.0,0.0,0.0,0.0,0.0,0.0,0.0,0.0,0.0,0.0,0.0,0.0,0.0,0.0,0.0,0.0,0.0,0.0,0.0,0.0,0.0,0.0,0.0,0.0,0.0,0.0,0.0,0.0,0.0,0.0,0.0,0.0,0.0,0.0,0.0,0.0,0.0,0.0,0.0,0.0,0.0,0.0,0.0,0.0,0.0,0.0,0.0,0.0,0.0,0.0,0.0,0.0,0.0,0.0,0.0,0.0,0.0,0.0,0.0,0.0,0.0,0.0,0.0,0.0,0.0,0.0,0.0,0.0,0.0,0.0,0.0,0.0,0.0,0.0,0.0,0.0,0.0,0.0,0.0,0.0,0.0,0.0,0.0,0.0,0.0,0.0,0.0,0.0,0.0,0.0,0.0,0.0,0.0,0.0,0.0,0.0,0.0,0.0,0.0,0.0,0.0,0.0,0.0,0.0,0.0,0.0,0.0,0.0,0.0,0.0,0.0,0.0,0.0,0.0,0.0,0.0,0.0,0.0,0.0,0.0,0.0,0.0,0.0,0.0,0.0,0.0,0.0,0.0,0.0,0.0,0.0,0.0,0.0,0.0,0.0,0.0,0.0,0.0,0.0,0.0,0.0,0.0,0.0,0.0,0.0,0.0,0.0,0.0,0.0,0.0,0.0,0.0,0.0,0.0,0.0,0.0,0.0,0.0,0.0,0.0,0.0,0.0,0.0,0.0,0.0,0.0,0.0,0.0,0.0,0.0,0.0,0.0,0.0,0.0,0.0,0.0,0.0,0.0,0.0,0.0,0.0,0.0,0.0,0.0,0.0,0.0,0.0,0.0,0.0,0.0,0.0,0.0,0.0,0.0,0.0,0.0,0.0,0.0,0.0,0.0,0.0,0.0,0.0,0.0,0.0,0.0,0.0,0.0,0.0,0.0,0.0,0.0,0.0,0.0,0.0,0.0,0.0,0.0,0.0,0.0,0.0,0.0,0.0,0.0,0.0,0.0,0.0,0.0,0.0,0.0,0.0,0.0,0.0,0.0,0.0,0.0,0.0,0.0,0.0,0.0,0.0,0.0,0.0,0.0,0.0,0.0,0.0,0.0,0.0,0.0,0.0,0.0,0.0,0.0,0.0,0.0,0.0,0.0,0.0,0.0,0.0,0.0,0.0,0.0,0.0,0.0,0.0,0.0,0.0,0.0,0.0,0.0,0.0,0.0,0.0,0.0,0.0,0.0,0.0,0.0,0.0,0.0,0.0,0.0,0.0,0.0,0.0,0.0,0.0,0.0,0.0,0.0,0.0,0.0,0.0,0.0,0.0,0.0,0.0,0.0,0.0,0.0,0.0,0.0,0.0,0.0,0.0,0.0,0.0,0.0,0.0,0.0,0.0,0.0,0.0,0.0,0.0,0.0,0.0,0.0,0.0,0.0,0.0,0.0,0.0,0.0,0.0,0.0,0.0,0.0,0.0,0.0,0.0,0.0,0.0,0.0,0.0,0.0,0.0,0.0,0.0,0.0,0.0,0.0,0.0,0.0,0.0,0.0,0.0,0.0,0.0,0.0,0.0,0.0,0.0,0.0,0.0,0.0,0.0,0.0,0.0,0.0,0.0,0.0,0.0,0.0,0.0,0.0,0.0,0.0,0.0,0.0,0.0,0.0,0.0,0.0,0.0,0.0,0.0,0.0,0.0,0.0,0.0,0.0,0.0,0.0,0.0,0.0,0.0,0.0,0.0,0.0,0.0,0.0,0.0,0.0,0.0,0.0,0.0,0.0,0.0,0.0,0.0,0.0,0.0,0.0,0.0,0.0,0.0,0.0,0.0,0.0,0.0,0.0,0.0,0.0,0.0,0.0,0.0,0.0,0.0,0.0,0.0,0.0,0.0,0.0,0.0,0.0,0.0,0.0,0.0,0.0,0.0,0.0,0.0,0.0,0.0,0.0,0.0,0.0,0.0,0.0,0.0,0.0,0.0,0.0,0.0,0.0,0.0,0.0,0.0,0.0,0.0,0.0,0.0,0.0,0.0,0.0,0.0,0.0,0.0,0.0,0.0,0.0,0.0,0.0,0.0,0.0,0.0,0.0,0.0,0.0,0.0,0.0,0.0,0.0,0.0,0.0,0.0,0.0,0.0,0.0,0.0,0.0,0.0,0.0,0.0,0.0,0.0,0.0,0.0,0.0,0.0,0.0,0.0,0.0,0.0,0.0,0.0,0.0,0.0,0.0,0.0,0.0,0.0,0.0,0.0,0.0,0.0,0.0,0.0,0.0,0.0,0.0,0.0,0.0,0.0,0.0,0.0,0.0,0.0,0.0,0.0,0.0,0.0,0.0,0.0,0.0,0.0,0.0,0.0,0.0,0.0,0.0,0.0,0.0,0.0,0.0,0.0,0.0,0.0,0.0,0.0,0.0,0.0,0.0,0.0,0.0,0.0,0.0,0.0,0.0,0.0,0.0,0.0,0.0,0.0,0.0,0.0,0.0,0.0,0.0,0.0,0.0,0.0,0.0,0.0,0.0,0.0,0.0,0.0,0.0,0.0,0.0,0.0,0.0,0.0,0.0,0.0,0.0,0.0,0.0,0.0,0.0,0.0,0.0,0.0,0.0,0.0,0.0,0.0,0.0,0.0,0.0,0.0,0.0,0.0,0.0,0.0,0.0,0.0,0.0,0.0,0.0,0.0,0.0,0.0,0.0,0.0,0.0,0.0,0.0,0.0,0.0,0.0,0.0,0.0,0.0,0.0,0.0,0.0,0.0,0.0,0.0,0.0,0.0,0.0,0.0,0.0,0.0,0.0,0.0,0.0,0.0,0.0,0.0,0.0,0.0,0.0,0.0,0.0,0.0,0.0,0.0,0.0,0.0,0.0,0.0,0.0,0.0,0.0,0.0,0.0,0.0,0.0,0.0,0.0,0.0,0.0,0.0,0.0,0.0,0.0,0.0,0.0,0.0,0.0,0.0,0.0,0.0,0.0,0.0,0.0,0.0,0.0,0.0,0.0,0.0,0.0,0.0,0.0,0.0,0.0,0.0,0.0,0.0,0.0,0.0,0.0,0.0,0.0,0.0,0.0,0.0,0.0,-3.3926,0.0,0.0,0.0,0.0,0.0,0.0,0.0,0.0,0.0,0.0,0.0,0.0,0.0,0.0,0.0,0.0,0.0,0.0,0.0,0.0,0.0,0.0,0.0,0.0,-2.4181,-2.5393,-2.5364,-2.6117,-2.6245,-2.5419,0.0,0.0,0.0,0.0,0.0,-2.3584,-2.3162,-2.3134,-2.352,-2.3961,-2.4557,-2.5299,-2.4849,-2.3829,-2.2404,0.0,0.0,0.0,0.0,0.0,0.0,0.0,0.0,0.0,0.0,0.0,0.0,0.0,0.0,0.0,0.0,0.0,0.0,0.0,0.0,0.0,0.0,0.0,0.0,0.0,0.0,0.0,0.0,0.0,0.0,0.0,0.0,0.0,0.0,0.0,0.0,0.0,0.0,0.0,0.0,0.0,0.0,0.0,0.0,0.0,0.0,0.0,0.0,0.0,0.0,0.0,0.0,0.0,0.0,0.0,0.0,0.0,0.0,0.0,0.0,0.0,0.0,0.0,0.0,0.0,0.0,0.0,0.0,0.0,0.0,0.0,-3.596,0.0,0.0,0.0,0.0,0.0,0.0,0.0,0.0,0.0,0.0,0.0,0.0,0.0,0.0,0.0,0.0,0.0,0.0,0.0,0.0,0.0,-2.2161,-2.3098,-2.4649,-2.5888,-2.6539,-2.6859,-2.6895,-2.662,-2.6109,0.0,0.0,0.0,-2.4612,-2.4612,-2.4612,-2.4904,-2.5494,-2.5724,-2.6673,-2.8326,-2.8112,-2.6866,-2.4789,-2.3915,0.0,0.0,0.0,0.0,0.0,0.0,0.0,0.0,0.0,0.0,0.0,0.0,0.0,0.0,0.0,0.0,0.0,0.0,0.0,0.0,0.0,0.0,0.0,0.0,0.0,0.0,0.0,0.0,0.0,0.0,0.0,0.0,0.0,0.0,0.0,0.0,0.0,0.0,0.0,0.0,0.0,0.0,0.0,0.0,0.0,0.0,0.0,0.0,0.0,0.0,0.0,0.0,0.0,0.0,0.0,0.0,0.0,0.0,0.0,0.0,0.0,0.0,0.0,-4.597,-4.5757,-4.5287,-4.4478,-4.4219,-4.4187,-4.1035,-3.9952,-4.035,-3.8522,0.0,0.0,0.0,0.0,0.0,0.0,0.0,0.0,0.0,0.0,0.0,0.0,0.0,0.0,0.0,0.0,0.0,0.0,0.0,-2.2363,-2.3878,-2.5474,-2.6484,-2.6583,-2.7886,-2.8088,-2.6693,-2.7145,0.0,0.0,-2.6337,-2.6282,-2.6282,-2.6282,-2.6162,-2.5917,-2.6978,-2.8487,-3.0387,-2.9628,-2.9399,-2.957,-2.6887,-2.5829,-2.5907,0.0,0.0,0.0,0.0,0.0,0.0,0.0,0.0,0.0,0.0,0.0,0.0,0.0,0.0,0.0,0.0,0.0,0.0,0.0,0.0,0.0,0.0,0.0,0.0,0.0,0.0,0.0,0.0,0.0,0.0,0.0,0.0,0.0,0.0,0.0,0.0,0.0,0.0,0.0,0.0,0.0,-3.2564,-3.4179,0.0,0.0,0.0,0.0,0.0,0.0,0.0,0.0,0.0,0.0,0.0,0.0,0.0,-4.6691,-4.7498,-4.9756,-5.0912,-5.1041,-5.0515,-5.0242,-5.014,-4.8816,-4.8233,-4.8206,-4.709,0.0,-4.1982,-4.1694,0.0,0.0,0.0,0.0,0.0,0.0,0.0,0.0,0.0,0.0,0.0,0.0,0.0,0.0,0.0,0.0,0.0,0.0,0.0,0.0,0.0,-2.6704,-2.8124,-2.8583,-2.9677,-2.9861,-2.8705,-2.8539,-2.8117,-2.731,-2.6851,-2.6602,-2.6602,-2.6602,-2.6822,-2.7299,-2.8702,-3.0173,-3.1684,-3.127,-3.1615,-3.2478,-3.0481,-2.8984,-2.7859,-2.5676,0.0,0.0,0.0,0.0,0.0,0.0,0.0,0.0,0.0,0.0,0.0,0.0,0.0,0.0,0.0,0.0,0.0,0.0,0.0,0.0,0.0,0.0,0.0,0.0,0.0,0.0,0.0,0.0,0.0,0.0,0.0,0.0,0.0,0.0,0.0,0.0,0.0,0.0,0.0,-3.3293,-3.5624,-3.6321,-3.689,-3.6872,0.0,0.0,0.0,0.0,0.0,0.0,0.0,0.0,0.0,-4.6893,-4.882,-5.0453,-5.172,-5.2803,-5.3365,-5.3408,-5.2723,-5.2181,-5.1728,-5.0714,-5.0253,-5.0236,-4.9898,-4.8359,-4.594,-4.4293,-4.2557,-4.0899,0.0,0.0,0.0,0.0,-3.8514,-3.7535,0.0,0.0,0.0,0.0,0.0,0.0,0.0,0.0,0.0,0.0,0.0,0.0,-2.6153,-2.7923,-2.9409,-3.0411,-3.087,-3.0834,-3.0246,-2.9445,-2.873,-2.8136,-2.7519,-2.7207,-2.7207,-2.7533,-2.8245,-2.935,-3.0622,-3.1794,-3.2827,-3.2655,-3.3155,-3.4166,-3.3067,-3.1565,-2.9738,-2.8028,-2.6099,-2.412,0.0,0.0,0.0,0.0,0.0,0.0,0.0,0.0,0.0,0.0,0.0,0.0,0.0,0.0,0.0,0.0,0.0,0.0,0.0,0.0,0.0,0.0,0.0,0.0,0.0,0.0,0.0,0.0,0.0,0.0,0.0,0.0,0.0,0.0,0.0,0.0,0.0,-3.5862,-3.8043,-3.8649,-3.9971,-4.0283,0.0,0.0,0.0,0.0,0.0,0.0,-4.5626,-4.7774,-4.9554,-5.0804,-5.2582,-5.4106,-5.5317,-5.5537,-5.5569,-5.5426,-5.4465,-5.3616,-5.2848,-5.2128,-5.1809,-5.1792,-5.1589,-5.0879,-4.9627,-4.6853,-4.5043,-4.3866,-4.2794,-4.1914,-4.1356,-4.2083,-4.1437,-4.0279,0.0,0.0,0.0,0.0,0.0,0.0,0.0,0.0,0.0,0.0,0.0,-2.5027,-2.845,-2.8932,-2.9629,-3.1213,-3.0687,-3.0246,-3.021,-2.9445,-2.8987,-2.895,-2.8895,-2.8877,-2.8877,-3.0062,-3.1174,-3.2187,-3.272,-3.3318,-3.4004,-3.3554,-3.3766,-3.4447,-3.3698,-3.2882,-3.1989,-2.9805,-2.7977,-2.6404,-2.4931,0.0,0.0,0.0,0.0,0.0,0.0,0.0,0.0,0.0,0.0,0.0,0.0,0.0,0.0,0.0,0.0,0.0,0.0,0.0,0.0,0.0,0.0,0.0,0.0,0.0,0.0,0.0,0.0,0.0,0.0,0.0,0.0,0.0,0.0,0.0,0.0,0.0,0.0,-4.1791,-4.28,0.0,0.0,0.0,0.0,-4.5424,-4.7829,-4.9922,-5.1481,-5.3133,-5.4069,-5.4161,-5.6455,-5.774,-5.7813,-5.8584,-5.8598,-5.7887,-5.6336,-5.5215,-5.4454,-5.3713,-5.3382,-5.3348,-5.2587,-5.2198,-5.1961,-4.9712,-4.753,-4.5585,-4.5517,-4.501,-4.4479,-4.5196,-4.4858,-4.4027,0.0,0.0,0.0,-1.78,-1.78,-1.78,-1.78,-1.928,-2.0643,-2.1348,-2.3836,-2.6249,-2.8033,-2.9604,-3.098,-3.2082,-3.1916,-3.1531,-3.0999,-3.0228,-2.9757,-2.9757,-2.9757,-2.9887,-3.0155,-3.1276,-3.1903,-3.2003,-3.2874,-3.3666,-3.4358,-3.4185,-3.4506,-3.5199,-3.4923,-3.4421,-3.3613,-3.1853,-3.0262,-2.8704,-2.6708,-2.488,0.0,0.0,0.0,0.0,0.0,0.0,0.0,0.0,0.0,0.0,0.0,0.0,0.0,0.0,0.0,0.0,0.0,0.0,0.0,0.0,0.0,0.0,0.0,0.0,0.0,0.0,0.0,0.0,0.0,0.0,0.0,0.0,0.0,0.0,0.0,0.0,0.0,-4.515,-4.6581,0.0,-4.6966,-4.77,-4.8655,-4.9738,-5.1591,-5.2931,-5.35,-5.5556,-5.6712,-5.6712,-5.8565,-5.9286,-5.8765,-5.9056,-5.8547,-5.7248,-5.6663,-5.603,-5.5263,-5.4534,-5.4211,-5.416,-5.3399,-5.279,-5.2232,-5.1454,-4.983,-4.7817,-4.7817,-4.7073,-4.6041,-4.6295,-4.5474,-4.4171,-1.7166,-1.73,0.0,-1.7584,-1.7715,-1.7884,-1.8132,-1.959,-2.0984,-2.1888,-2.4732,-2.722,-2.8688,-3.0625,-3.2137,-3.2931,-3.2522,-3.1971,-3.1433,-3.0393,-2.9794,-2.9794,-2.9923,-3.0427,-3.1315,-3.2301,-3.2774,-3.2711,-3.384,-3.458,-3.4878,-3.4878,-3.5131,-3.56,-3.56,-3.5329,-3.481,-3.3829,-3.2408,-3.0683,-2.8924,-2.7317,-2.5794,0.0,0.0,0.0,0.0,0.0,0.0,0.0,0.0,0.0,0.0,0.0,0.0,0.0,0.0,0.0,0.0,0.0,0.0,0.0,0.0,0.0,0.0,0.0,0.0,0.0,0.0,0.0,0.0,0.0,0.0,0.0,0.0,0.0,0.0,-4.291,-4.581,-4.7719,-4.9389,-5.04,-5.0343,-5.1353,-5.2344,-5.3133,-5.4711,-5.5739,-5.6014,-5.7795,-5.8804,-5.8804,-6.0107,-6.043,-5.961,-5.961,-5.8801,-5.7207,-5.6948,-5.6418,-5.5683,-5.4938,-5.4583,-5.4549,-5.3822,-5.3196,-5.2706,-5.2706,-5.1691,-5.0101,-4.9847,-4.8984,-4.7872,-4.7564,-4.6305,-4.4694,-1.6301,-1.6821,-1.7296,-1.7308,-1.7572,-1.8053,-1.8792,-1.9553,-2.0994,-2.3623,-2.5659,-2.7866,-3.0581,-3.1905,-3.2913,-3.3733,-3.232,-3.1397,-3.1397,-2.9886,-2.9023,-2.9115,-2.9533,-3.0614,-3.2435,-3.3263,-3.3939,-3.4489,-3.5761,-3.6118,-3.56,-3.56,-3.56,-3.56,-3.56,-3.56,-3.56,-3.56,-3.437,-3.2344,-3.1562,-3.0398,-2.8908,0.0,0.0,0.0,0.0,0.0,0.0,0.0,0.0,0.0,0.0,0.0,0.0,0.0,0.0,0.0,0.0,0.0,0.0,0.0,0.0,0.0,0.0,0.0,0.0,0.0,0.0,0.0,0.0,0.0,0.0,0.0,0.0,0.0,-4.2415,-4.4507,-4.6948,-4.9427,-5.1116,-5.2087,-5.2123,-5.3573,-5.484,-5.5669,-5.7171,-5.8419,-5.9184,-6.0015,-6.0438,-6.0438,-6.1184,-6.1226,-6.044,-6.0385,-5.9591,-5.8019,-5.7209,-5.6471,-5.575,-5.5006,-5.4668,-5.4617,-5.3856,-5.3534,-5.3534,-5.3518,-5.3044,-5.2266,-5.1539,-5.0777,-5.0023,-4.9078,-4.7639,-4.5925,-1.6246,-1.663,-1.7002,-1.726,-1.7572,-1.8053,-1.8792,-2.0182,-2.1621,-2.2881,-2.5909,-2.8468,-2.9805,-3.154,-3.2913,-3.3733,-3.232,-3.1397,-3.1397,-2.9886,-2.9776,-3.1537,-3.2838,-3.3707,-3.4128,-3.4871,-3.502,-3.4489,-3.5387,-3.5739,-3.56,-3.56,-3.56,-3.56,-3.56,-3.56,-3.56,-3.56,-3.5245,-3.4568,-3.3322,-3.1901,-3.0429,0.0,0.0,0.0,0.0,0.0,0.0,0.0,0.0,0.0,0.0,0.0,0.0,0.0,0.0,0.0,0.0,0.0,0.0,0.0,0.0,0.0,0.0,0.0,0.0,0.0,0.0,0.0,0.0,0.0,0.0,0.0,-4.3057,-4.4911,-4.4911,-4.7535,-5.0141,-5.1995,-5.3115,-5.4197,-5.5372,-5.6418,-5.7336,-5.8162,-5.9171,-5.985,-6.007,-6.0823,-6.1263,-6.1263,-6.148,-6.1471,-6.1279,-6.0073,-5.9242,-5.8783,-5.798,-5.7489,-5.7273,-5.6528,-5.619,-5.6122,-5.4854,-5.4296,-5.4245,-5.3721,-5.3365,-5.3095,-5.23,-5.1555,-5.0796,-5.0015,-4.8232,-4.5925,-1.6053,-1.6369,-1.6699,-1.7027,-1.762,-1.8339,-1.9224,-2.0798,-2.2266,-2.3313,-2.6241,-2.8542,-2.9313,-3.1005,-3.2284,-3.2742,-3.1947,-3.1268,-3.0907,-3.0338,-3.0925,-3.3018,-3.3927,-3.4684,-3.5261,-3.529,-3.5208,-3.4962,-3.538,-3.56,-3.56,-3.56,-3.56,-3.56,-3.56,-3.56,-3.56,-3.56,-3.56,-3.5532,-3.467,-3.3626,-3.2408,-3.0939,-3.0093,-2.955,-2.8501,-2.8129,-2.8027,-2.7385,0.0,0.0,0.0,0.0,0.0,0.0,0.0,0.0,0.0,0.0,0.0,0.0,0.0,0.0,0.0,0.0,0.0,0.0,0.0,0.0,0.0,0.0,0.0,0.0,-4.614,-4.8196,-4.8857,-5.06,-5.2399,-5.4014,-5.4932,-5.6051,-5.7643,-5.8235,-5.8841,-5.9648,-6.0456,-6.0896,-6.0896,-6.1667,-6.2108,-6.2108,-6.2113,-6.1788,-6.1084,-6.0131,-5.9278,-5.8599,-5.8137,-5.7881,-5.7865,-5.7137,-5.6799,-5.6748,-5.5581,-5.4888,-5.4566,-5.4143,-5.3788,0.0,0.0,0.0,0.0,0.0,-4.7714,-4.5793,-1.5814,-1.6081,-1.6425,-1.6846,-1.774,-1.8792,-1.9963,-2.1366,-2.2835,-2.4305,-2.6498,-2.8223,-2.9,-3.0441,-3.1359,-3.1403,-3.1397,-3.1127,-3.0503,-3.1182,-3.2337,-3.4009,-3.3938,-3.4553,-3.6002,-3.5173,-3.5011,-3.56,-3.56,-3.56,-3.56,-3.56,-3.56,-3.56,-3.56,-3.56,-3.56,-3.56,-3.56,-3.56,-3.56,-3.5165,-3.4353,-3.3055,-3.2496,-3.2242,-3.0852,-3.0362,-3.0142,-2.8669,0.0,0.0,0.0,0.0,0.0,0.0,0.0,0.0,0.0,0.0,0.0,0.0,0.0,0.0,0.0,0.0,0.0,0.0,0.0,0.0,0.0,0.0,0.0,0.0,-4.9114,-5.1628,-5.3243,-5.3555,-5.4142,-5.5556,-5.6363,-5.7423,-5.9038,-5.9276,-5.9661,-6.0474,-6.1282,-6.1741,-6.1741,0.0,0.0,0.0,0.0,-6.1888,-6.0567,-6.026,-5.9412,-5.8046,-5.7954,-5.7881,-5.7865,-5.7222,-5.6917,-5.6884,-5.6156,-5.5412,-5.4718,-5.4617,-5.416,-5.3501,-5.3501,-5.2943,-5.1766,-4.8654,-4.6824,-4.5634,-1.5889,-1.6081,-1.6593,-1.7522,-1.8078,-1.8974,-2.0698,-2.1735,-2.2835,-2.4305,-2.6245,-2.7932,-2.8971,-3.0222,-3.1101,-3.1372,-3.1397,-3.1604,0.0,0.0,-3.3677,-3.572,-3.5588,-3.5932,-3.6925,-3.6336,-3.5895,-3.56,-3.56,-3.56,-3.56,-3.56,-3.56,-3.56,-3.56,-3.56,-3.56,-3.56,-3.56,-3.56,-3.56,-3.5165,-3.4455,-3.4167,-3.3711,-3.3068,-3.2192,-3.187,-3.1752,-3.0835,-3.018,-2.975,-2.973,-2.9415,0.0,0.0,0.0,0.0,0.0,0.0,0.0,0.0,0.0,0.0,0.0,0.0,0.0,0.0,0.0,0.0,0.0,0.0,0.0,-5.0196,-5.1903,-5.3298,-5.4913,-5.5702,-5.6235,-5.6528,-5.6712,-5.7423,-5.9038,-5.9771,-6.0511,-6.13,-6.2108,-6.2585,-6.2585,-6.2732,-6.278,-6.278,-6.1548,-6.1044,-6.1361,-5.9377,-5.8546,-5.8875,0.0,0.0,-5.7881,-5.7746,-5.7679,-5.7645,-5.6917,-5.6173,-5.5446,-5.4854,-5.416,-5.3501,-5.3501,-5.252,-5.0925,-4.9503,-4.7593,-4.5565,-1.6817,-1.6894,-1.7225,-1.7931,-1.8698,-1.9563,-2.0683,-2.1995,-2.3241,-2.4355,-2.5844,-2.7163,-2.811,-2.8719,-2.9274,-2.9853,-3.0454,0.0,0.0,-3.3524,-3.4673,-3.6817,-3.6417,-3.648,-3.7192,-3.6399,-3.5876,-3.56,-3.56,-3.56,-3.56,-3.56,-3.56,-3.56,-3.56,-3.56,-3.56,-3.56,-3.56,-3.56,-3.56,-3.538,-3.5064,-3.5064,-3.4805,-3.437,-3.3254,-3.2848,-3.2679,-3.1562,-3.0954,-3.062,-3.0421,-3.0211,-2.9952,0.0,0.0,0.0,0.0,0.0,0.0,0.0,0.0,0.0,0.0,0.0,0.0,0.0,0.0,-4.3039,-4.5461,0.0,-4.9756,-5.2197,-5.361,-5.4821,-5.6033,-5.6547,-5.6804,-5.6804,-5.7171,-5.8033,-5.9648,-6.0162,-6.0896,-6.2108,-6.2585,-6.278,-6.278,-6.278,-6.261,-6.22,-6.1418,-6.0772,-6.0344,-5.9128,-5.8494,-5.8494,-5.8101,-5.7881,-5.7881,-5.7881,-5.7881,-5.7865,-5.7509,-5.6934,-5.6173,-5.5057,-5.416,-5.3501,-5.3501,-5.2601,-5.1133,-4.9301,-4.7606,-4.6121,-1.8057,-1.8087,-1.8159,-1.8392,-1.9294,-2.0149,-2.0634,-2.2118,-2.3444,-2.4186,-2.5086,-2.5979,-2.6781,-2.6821,-2.7218,-2.8317,-2.9643,0.0,0.0,-3.4295,-3.5392,-3.7361,-3.6761,-3.6603,-3.7038,-3.6097,-3.56,-3.56,-3.56,-3.56,-3.56,-3.56,-3.5667,-3.5819,-3.5819,-3.5819,-3.5819,-3.5819,-3.5735,-3.56,-3.56,-3.56,-3.5583,-3.543,-3.538,-3.5194,-3.3897,-3.322,-3.2797,-3.1596,-3.1106,-3.0903,-3.0463,-3.0505,-3.0542,-2.9585,-2.973,0.0,0.0,0.0,0.0,0.0,0.0,0.0,0.0,-3.8878,-4.0377,-4.2791,-4.4346,-4.6024,-4.8561,-5.0666,-5.2383,-5.3497,-5.4895,-5.6106,-5.6932,-5.7042,-5.7042,-5.7042,-5.7611,-5.8639,-6.0236,-6.0401,-6.108,-6.2695,-6.278,-6.278,-6.278,-6.2661,-6.2271,-6.1632,-6.1286,-6.0484,-5.9111,-5.8925,-5.8529,-5.7881,-5.7881,-5.7881,-5.7881,-5.7881,-5.7881,-5.7881,-5.7746,-5.7273,-5.6478,-5.5141,-5.416,-5.3467,-5.3264,-5.2557,-5.1349,-4.9126,-4.7572,-4.6394,-1.9346,-1.9483,-1.9429,-1.9289,-1.9672,-2.0327,-2.1323,-2.202,-2.2699,-2.3441,-2.3623,-2.4137,-2.5236,-2.5349,-2.6188,-2.8307,-3.0178,0.0,-3.4117,-3.4954,-3.5925,-3.7182,-3.6691,-3.6416,-3.6498,-3.5898,-3.56,-3.56,-3.56,-3.56,-3.56,-3.56,-3.5994,-3.6677,-3.6677,-3.6677,-3.6677,-3.6677,-3.6248,-3.56,-3.56,-3.56,-3.5515,-3.4878,-3.4624,-3.4523,-3.3694,-3.256,-3.141,-3.1258,-3.0768,-3.0328,-3.0903,-3.1094,-3.1042,-3.0559,-3.0474,-3.0887,-3.2439,-3.4309,-3.6369,-3.8652,-3.8817,-3.9406,0.0,-4.3617,-4.3906,-4.6331,-4.7071,-4.8153,-5.1059,-5.1861,-5.279,-5.4994,-5.6088,-5.695,-5.7758,-5.7868,-5.7868,-5.7868,-5.7941,-5.8639,-6.0236,-6.0401,-6.108,-6.2695,-6.278,-6.278,-6.278,-6.2121,-6.1687,-6.1586,-6.0176,-5.9294,-5.9111,-5.837,-5.7991,-5.7881,-5.7881,-5.7881,-5.7881,-5.7881,-5.7881,-5.7848,-5.7205,-5.6511,-5.5784,-5.4938,-5.416,-5.3433,-5.2435,-5.1467,-5.055,-5.024,-4.8135,-4.544,-1.9648,-1.9708,-1.9671,-1.9596,-2.0126,-2.0733,-2.118,-2.184,-2.2564,-2.3291,-2.3393,-2.3907,-2.5246,-2.5971,-2.6753,-2.7661,-2.9818,-3.1637,-3.2883,-3.4267,-3.5456,-3.6466,-3.6135,-3.6075,-3.6395,-3.5876,-3.56,-3.56,-3.56,-3.56,-3.56,-3.56,-3.5769,-3.6129,-3.6586,-3.6535,-3.6129,-3.6609,-3.6332,-3.56,-3.56,-3.56,-3.5515,-3.4776,-3.3964,-3.3123,-3.2374,-3.1715,0.0,0.0,-2.9721,-2.9499,-2.9822,-2.9924,-2.9988,-3.028,-3.0941,-3.22,-3.4965,-3.6879,-3.8438,-3.9892,-4.1022,-4.2255,-4.4014,-4.4528,-4.5294,-4.7734,-4.8578,-4.941,-5.1149,-5.2576,-5.3827,-5.4844,-5.6049,-5.7134,-5.7895,-5.7997,-5.7831,-5.7373,-5.7703,-5.8639,-6.0236,-6.0401,-6.108,-6.2695,-6.278,-6.261,-6.2121,-6.177,-6.1153,-6.0176,-5.9458,-5.8875,-5.8406,-5.8082,-5.7881,-5.7881,-5.7881,-5.7881,-5.7881,-5.7881,-5.7881,-5.7865,-5.756,-5.6782,-5.57,-5.5378,-5.4549,-5.3382,-5.2312,-5.1283,-5.032,-4.9694,-4.769,-4.5289,-1.9708,-1.9708,-1.9708,-1.9708,-2.0296,-2.0845,-2.0975,-2.163,-2.2418,-2.3294,-2.3393,-2.3883,-2.5169,-2.6311,-2.6988,-2.6934,-2.9139,-3.0858,-3.1561,-3.3286,-3.4677,-3.5542,-3.5545,-3.5719,-3.6182,-3.5805,-3.56,-3.56,-3.56,-3.56,-3.56,-3.56,-3.5718,-3.596,-3.6535,-3.6468,-3.5977,-3.6535,-3.6332,-3.56,-3.56,-3.5481,-3.5211,-3.4489,-3.3292,-3.1938,-3.1396,-3.0801,0.0,0.0,-2.8857,-2.8722,-2.8942,-2.8993,-2.9221,-3.0421,-3.22,-3.4309,-3.6809,-3.8758,-4.0294,-4.1241,-4.2922,-4.4347,-4.4413,-4.4864,-4.5844,-4.7812,-4.8448,-4.9099,-5.0535,-5.2519,-5.3986,-5.4227,-5.5764,-5.7083,-5.7613,-5.7502,-5.7316,-5.7148,-5.7446,-5.8309,-5.9924,-6.0272,-6.108,-6.2695,-6.278,-6.2446,-6.1659,-6.1389,-6.0605,-5.9144,-5.8857,-5.8511,-5.7935,-5.7881,-5.7881,-5.7881,-5.7881,-5.7881,-5.7881,-5.7881,-5.7881,-5.7881,-5.7881,-5.7171,-5.6004,-5.5766,-5.4765,-5.3259,-5.2272,-5.1117,-4.9852,-4.911,-4.7435,-4.5544,-1.9708,-1.9708,-1.9708,-1.9708,-2.0052,-2.0466,-2.0926,-2.1353,-2.2043,-2.3247,-2.3393,-2.3695,-2.4457,-2.5538,-2.6242,-2.6222,-2.8328,-2.9919,-3.0595,-3.2272,-3.3631,-3.4516,-3.5043,-3.5425,-3.5627,-3.5622,-3.56,-3.56,-3.56,-3.56,-3.56,-3.56,-3.6028,-3.6761,-3.6795,-3.6795,-3.6778,-3.6795,-3.6332,-3.56,-3.56,-3.5182,-3.4438,-3.3711,-3.2527,-3.1224,-3.1207,0.0,-2.801,-2.8738,-2.8484,-2.7976,-2.8738,-2.8993,-2.9416,-3.1605,-3.472,-3.7463,-3.7486,-3.9588,-4.2072,-4.3527,-4.4539,-4.5211,-4.5405,-4.5468,-4.5736,-4.6586,-4.6265,-4.6696,-4.9501,-5.1367,-5.2688,-5.3335,-5.5373,-5.6912,-5.6938,-5.627,-5.6321,-5.778,-5.7299,-5.7483,-5.9074,-5.9942,-6.108,-6.2695,-6.278,-6.2446,-6.1659,-6.0849,-6.0023,-5.9144,-5.8352,-5.7918,-5.7881,-5.7881,-5.7881,-5.7881,-5.7881,-5.7881,-5.7881,-5.7881,-5.7881,-5.7881,-5.7881,-5.7459,-5.6714,-5.6004,-5.4647,-5.295,-5.2185,-5.0649,-4.8825,-4.8825,-4.774,-4.6202,-2.0288,-2.0363,-2.0498,-2.0946,-2.0779,-2.0811,-2.1544,-2.1631,-2.2028,-2.3247,-2.4255,0.0,0.0,0.0,0.0,0.0,-2.8117,-2.8956,-2.9124,-3.1147,-3.2333,-3.2313,-3.3424,-3.4312,-3.4861,-3.4878,-3.5115,-3.56,-3.56,-3.56,-3.56,-3.56,-3.5735,-3.6028,-3.6575,-3.6485,-3.6045,-3.6552,-3.6643,-3.6299,-3.5284,-3.5013,-3.5115,-3.388,-3.2188,-3.048,0.0,0.0,-2.7773,-2.7554,-2.7283,-2.7114,-2.7402,-2.7807,-2.8941,-3.2662,-3.5527,-3.7823,-3.9494,-4.1021,-4.2377,-4.3366,-4.4207,-4.4816,-4.4892,-4.4906,-4.5128,-4.5862,-4.6203,-4.666,-4.7692,-4.9476,-5.1081,-5.1896,-5.4368,-5.6159,-5.6104,-5.7209,-5.7658,-5.6599,-5.7622,-5.8608,-5.9161,-5.9423,0.0,-6.1887,-6.1514,-6.109,-6.0832,-6.0005,-5.9162,-5.8317,-5.8046,-5.7881,-5.7881,-5.7881,-5.7881,-5.7881,-5.7881,-5.7881,-5.7881,-5.7881,-5.7881,-5.7881,-5.7881,-5.7476,-5.6748,-5.6021,-5.4611,-5.2856,-5.1468,-5.0032,-4.8718,-4.8072,-4.7144,-4.6175,-2.0605,-2.0882,-2.1201,-2.162,-2.1335,0.0,0.0,0.0,0.0,0.0,0.0,0.0,0.0,0.0,0.0,0.0,0.0,-2.8104,-2.8184,-2.973,-3.0693,-3.0804,-3.1715,-3.2577,-3.3288,-3.3305,-3.3677,-3.4421,-3.4421,-3.4573,-3.4805,-3.4805,-3.4805,-3.4839,-3.5351,-3.5301,-3.4839,-3.5368,-3.5594,-3.547,-3.4223,-3.3998,-3.4303,-3.3085,-3.1393,0.0,0.0,0.0,-2.7317,-2.686,-2.6877,-2.7148,-2.7418,-2.8941,-3.1154,-3.4049,-3.6542,-3.8835,-4.0993,-4.1931,-4.254,-4.3572,-4.4215,-4.4615,-4.4615,-4.4615,-4.475,-4.5213,-4.5429,-4.5689,-4.6281,-4.774,-4.9312,-5.0646,-5.3427,-5.5465,-5.5684,-5.7228,-5.7999,-5.7059,-5.8041,-5.8867,-5.9163,-5.9212,-5.9869,-6.1481,-6.1109,-6.0565,-5.9956,-5.941,-5.872,-5.7918,-5.7881,-5.7881,-5.7881,-5.7881,-5.7881,-5.7881,-5.7881,-5.7881,-5.7881,-5.7881,-5.7881,-5.7881,-5.7881,-5.7628,-5.712,-5.6122,-5.4581,-5.2677,-5.1035,-4.9496,-4.8183,-4.7538,-4.689,-4.6175,-2.0757,-2.1291,-2.1754,0.0,0.0,0.0,0.0,0.0,0.0,0.0,0.0,0.0,0.0,0.0,0.0,0.0,0.0,0.0,-2.7706,-2.815,0.0,-2.9941,-3.0023,-3.0395,-3.1123,-3.114,-3.1495,-3.2242,-3.2242,-3.2611,-3.3339,-3.3339,-3.3372,-3.3406,-3.3406,-3.3406,-3.3406,-3.3372,-3.3372,-3.3339,-3.2513,-3.2226,-3.2226,-3.1481,0.0,0.0,0.0,-2.813,-2.681,-2.681,-2.7368,-2.8179,-2.9027,-3.2222,-3.5667,-3.5802,-3.7898,-4.0519,-4.1965,-4.2388,-4.276,-4.4242,-4.4615,-4.4615,-4.4615,-4.4581,-4.4547,-4.4547,-4.391,-4.3781,-4.5263,-4.6172,-4.7444,-4.963,-5.2642,-5.4913,-5.5556,-5.6387,-5.7455,-5.8916,-5.8466,-5.8358,-5.9141,-5.925,-5.9898,-6.1348,0.0,-6.0749,-5.9178,-5.9044,-5.8686,-5.7918,-5.7881,-5.7881,-5.7881,-5.7881,-5.7881,-5.7881,-5.7881,-5.7881,-5.7881,-5.7881,-5.7881,-5.7881,-5.7881,-5.7881,-5.7763,-5.6237,-5.4427,-5.2429,-5.0918,-4.9085,-4.7309,-4.7309,-4.686,-4.6172,0.0,0.0,0.0,0.0,0.0,0.0,0.0,0.0,0.0,0.0,0.0,0.0,0.0,0.0,0.0,0.0,0.0,0.0,-2.6962,-2.7589,0.0,0.0,0.0,0.0,0.0,0.0,0.0,0.0,-3.1481,-3.187,-3.2581,-3.2581,-3.2865,-3.3406,-3.3406,-3.3406,-3.3372,-3.2797,-3.2899,-3.3254,0.0,-3.1309,-3.2226,0.0,0.0,0.0,0.0,-2.9687,-2.8417,-2.8417,-2.9636,-3.1396,-3.2679,-3.4658,-3.6829,-3.8488,-4.0273,-4.1948,-4.2878,-4.3555,-4.4124,-4.4513,-4.4615,-4.4615,-4.4615,-4.413,-4.3724,-4.3724,-4.3115,-4.2692,-4.3081,-4.4714,-4.6521,-4.8186,-5.1964,-5.4747,-5.4853,-5.6976,-5.8221,-5.7499,-5.8248,-5.8905,-5.9189,-5.9746,-5.9985,0.0,-5.9176,-5.893,-5.9076,-5.8529,-5.8101,-5.7935,-5.7881,-5.7881,-5.7881,-5.7881,-5.7881,-5.7881,-5.7881,-5.7881,-5.7881,-5.7881,-5.7881,-5.7881,-5.7881,-5.7881,-5.7727,-5.5449,-5.376,-5.2389,-5.0111,-4.8418,-4.7309,-4.7309,-4.6561,-4.5529,0.0,0.0,0.0,0.0,0.0,0.0,0.0,0.0,0.0,0.0,0.0,0.0,0.0,0.0,0.0,0.0,0.0,0.0,0.0,-2.7097,0.0,0.0,0.0,0.0,0.0,0.0,0.0,0.0,0.0,0.0,-3.0855,-3.0855,-3.1075,-3.1461,-3.1461,-3.1461,-3.1427,-3.1041,0.0,0.0,0.0,0.0,0.0,0.0,0.0,0.0,0.0,-3.0801,-3.097,-3.1312,-3.2442,-3.4015,-3.552,-3.7246,-3.9039,-4.062,-4.1863,-4.2946,-4.3724,-4.4485,-4.4993,-4.4682,-4.4852,-4.4807,-4.3836,-4.3487,-4.3105,-4.2141,-4.1897,-4.1711,-4.1373,-4.2912,-4.4807,-4.665,-5.0488,-5.3573,-5.4466,-5.6934,-5.8435,-5.7865,-5.8558,-5.9104,-5.9155,-5.9569,-5.9476,-5.8633,-5.8478,-5.846,-5.8564,-5.8137,-5.7881,-5.7881,-5.7881,-5.7881,-5.7881,-5.7881,-5.7881,-5.7881,-5.7881,-5.7881,-5.7881,-5.7881,-5.7881,-5.7881,0.0,-5.7881,-5.7727,-5.5649,-5.3928,-5.2389,-5.0311,-4.861,-4.7264,-4.698,-4.6202,-4.5259,0.0,0.0,0.0,0.0,0.0,0.0,0.0,0.0,0.0,-2.664,-2.6759,-2.6691,-2.6691,-2.6691,0.0,0.0,0.0,0.0,0.0,0.0,0.0,0.0,0.0,0.0,0.0,0.0,0.0,0.0,0.0,0.0,0.0,0.0,0.0,0.0,0.0,0.0,0.0,0.0,0.0,0.0,0.0,0.0,0.0,0.0,0.0,0.0,-3.026,-3.1546,-3.3406,-3.4336,-3.5351,-3.6462,-3.8007,-3.9868,-4.1644,-4.2388,-4.3064,-4.3741,-4.4519,-4.5128,-4.5415,-4.4874,-4.5145,-4.501,-4.2912,-4.2794,-4.253,-4.0502,-4.046,-4.0595,-4.0062,-4.1179,-4.2929,-4.5314,-4.8804,-5.2002,-5.4279,-5.6456,-5.813,-5.8839,-5.8925,-5.8925,-5.8925,-5.8925,-5.8651,-5.7954,-5.8529,-5.8616,-5.7954,-5.7881,-5.7881,-5.7881,-5.7881,-5.7881,-5.7881,-5.7881,-5.7881,-5.7881,-5.7881,-5.7881,-5.7881,-5.7881,-5.7881,-5.7881,-5.7881,0.0,-5.7645,-5.6115,-5.4287,-5.23,-5.0792,-4.9004,-4.7234,-4.6576,-4.5888,-4.52,0.0,0.0,0.0,0.0,0.0,0.0,-2.4853,-2.5541,-2.6327,-2.7448,-2.708,-2.6691,-2.6691,-2.6691,0.0,0.0,0.0,0.0,0.0,0.0,0.0,0.0,0.0,0.0,0.0,0.0,0.0,0.0,-2.7029,0.0,0.0,0.0,0.0,0.0,0.0,0.0,0.0,0.0,0.0,0.0,0.0,0.0,0.0,0.0,0.0,0.0,-3.1004,-3.1667,-3.2801,-3.4759,-3.7138,-3.9572,-4.1068,-4.2219,-4.3183,-4.3961,-4.4293,-4.4553,-4.5314,-4.5145,-4.4919,-4.5382,-4.5145,-4.4502,-4.3453,-4.2371,-4.1305,-4.029,-3.9225,-3.8633,-3.9089,-4.0392,-4.2337,-4.5229,-4.8307,-5.1325,-5.4194,-5.5992,-5.7286,-5.8016,-5.8101,-5.8101,-5.8101,-5.8101,-5.8046,0.0,-5.8046,-5.8046,-5.7918,-5.7881,-5.7881,-5.7881,-5.7881,-5.7881,-5.7881,-5.7881,-5.7881,-5.7881,-5.7881,-5.7881,-5.7881,-5.7881,-5.7881,-5.7881,-5.7881,0.0,-5.6846,-5.5109,-5.3324,-5.1533,-4.977,-4.8335,-4.7234,-4.6576,-4.5888,-4.52,0.0,0.0,0.0,0.0,0.0,0.0,-2.5133,-2.587,-2.6701,-2.7802,-2.8253,-2.8163,-2.7368,-2.6928,-2.6691,0.0,0.0,0.0,0.0,0.0,0.0,0.0,0.0,0.0,0.0,-2.708,-2.708,-2.6691,0.0,-2.7266,-2.7232,-2.7232,-2.7435,-2.7808,-2.7808,0.0,0.0,0.0,0.0,0.0,0.0,0.0,0.0,0.0,0.0,0.0,0.0,-3.1918,-3.3085,-3.4539,-3.6789,-3.936,-4.1593,-4.3081,-4.4096,-4.4496,-4.4615,-4.4767,-4.55,-4.572,-4.572,-4.572,-4.572,-4.501,-4.2286,-4.1424,-4.0561,-3.8227,-3.7838,-3.777,-3.7313,-3.9106,-4.1238,-4.3064,-4.5855,-4.8984,-5.2367,-5.4126,-5.5649,-5.7154,-5.7662,-5.7881,-5.7881,-5.7881,-5.7881,-5.7881,-5.7881,-5.7881,-5.7881,-5.7881,-5.7881,-5.7881,-5.7881,-5.7881,-5.7881,-5.7881,-5.7881,-5.7881,-5.7881,-5.7881,-5.7881,-5.7881,-5.7881,-5.7881,-5.7881,0.0,-5.6696,-5.5437,-5.3576,-5.1396,-5.0121,-4.8692,-4.7189,-4.6172,-4.5589,-4.5155,0.0,0.0,0.0,0.0,0.0,0.0,-2.5222,-2.6182,-2.7203,-2.8398,-2.9596,-2.9869,-2.8652,-2.7723,-2.7114,0.0,0.0,0.0,0.0,0.0,0.0,0.0,0.0,0.0,0.0,0.0,0.0,-2.6945,-2.7689,0.0,0.0,0.0,0.0,0.0,-2.6556,-2.6487,-2.6385,0.0,0.0,0.0,0.0,-2.9338,0.0,0.0,0.0,0.0,0.0,-3.1935,-3.3068,-3.3964,-3.5554,-3.7669,-4.046,-4.2608,-4.4141,-4.431,-4.4479,-4.4767,-4.55,-4.6007,-4.6227,-4.5805,-4.5889,-4.506,-4.123,-4.0527,-3.98,-3.6535,-3.6688,-3.7094,-3.6039,-3.778,-3.9851,-4.1221,-4.3572,-4.6616,-5.061,-5.2536,-5.4329,-5.6545,-5.7442,-5.7881,-5.7881,-5.7881,0.0,-5.7881,-5.7881,-5.7881,-5.7881,-5.7881,-5.7881,-5.7881,-5.7881,-5.7881,-5.7881,-5.7881,-5.7881,-5.7881,-5.7881,-5.7881,-5.7881,-5.7881,-5.7881,-5.7881,-5.7881,0.0,0.0,-5.5953,-5.3934,-5.1188,-5.0621,-4.9125,-4.7145,-4.5783,-4.5289,-4.511,0.0,0.0,0.0,0.0,0.0,0.0,-2.5222,-2.7052,-2.872,-2.9934,-3.0667,-3.1038,-3.0903,-2.9636,-2.8484,0.0,0.0,0.0,0.0,0.0,0.0,0.0,0.0,0.0,0.0,0.0,0.0,-2.7705,-2.8501,0.0,0.0,0.0,0.0,0.0,0.0,-2.5781,-2.5411,-2.6315,0.0,0.0,0.0,0.0,0.0,0.0,0.0,0.0,0.0,-3.1275,-3.1613,-3.3034,-3.4083,-3.5216,-3.7567,-4.024,-4.2625,-4.3318,-4.4028,-4.4767,-4.55,-4.5263,-4.4953,-4.5551,-4.4705,-4.3267,-4.1508,-4.0121,-3.8717,-3.7049,-3.6231,-3.5988,-3.6592,-3.6931,-3.8234,-4.1627,-4.2997,-4.5387,-5.0475,-5.2536,-5.4329,-5.6545,-5.7442,-5.7881,-5.7881,-5.7881,-5.7881,-5.7881,-5.7881,-5.7881,-5.7881,-5.7881,-5.7881,-5.7881,-5.7881,-5.7881,-5.7881,-5.7881,-5.7881,-5.7881,-5.7881,-5.7881,-5.7881,-5.7881,-5.7881,-5.7881,-5.7881,0.0,0.0,-5.5715,-5.3652,-5.0493,-5.0429,-4.9125,-4.7145,-4.5783,-4.5289,-4.511,0.0,0.0,0.0,0.0,0.0,0.0,-2.4781,-2.5936,-2.7296,-2.8925,-3.0071,-3.0841,-3.1171,-3.0685,-2.9634,-2.7959,0.0,0.0,0.0,0.0,0.0,0.0,0.0,0.0,0.0,0.0,-2.8043,-2.8518,-2.884,0.0,0.0,0.0,0.0,0.0,0.0,-2.6115,-2.5291,-2.644,0.0,0.0,0.0,0.0,0.0,0.0,0.0,0.0,0.0,0.0,-3.2544,-3.2679,-3.322,-3.3998,-3.4912,-3.6941,-3.9486,-4.1999,-4.3284,-4.4147,-4.5382,-4.5483,-4.5331,-4.5635,-4.4908,-4.3487,-4.1102,-3.9749,-3.843,-3.6485,-3.5802,-3.5701,-3.6028,-3.6468,-3.7726,-4.0527,-4.161,-4.3606,-4.7936,-4.9847,-5.1792,-5.4499,-5.5869,-5.6917,-5.7797,0.0,-5.7881,-5.7881,-5.7881,-5.7881,-5.7881,-5.7881,-5.7881,-5.7881,-5.7881,-5.7881,-5.7881,-5.7881,-5.7881,-5.7881,-5.7881,-5.7881,-5.7881,-5.7881,-5.7881,-5.7865,-5.7425,0.0,0.0,-5.4525,-5.2606,-5.0336,-4.9694,-4.8569,-4.7145,-4.5783,-4.5289,-4.511,0.0,0.0,0.0,0.0,0.0,-2.3834,-2.45,-2.5288,-2.6463,-2.8237,-2.9588,-3.0626,-3.12,-3.121,-3.0463,-2.8635,-2.806,0.0,0.0,0.0,0.0,0.0,0.0,0.0,0.0,0.0,-2.8873,-2.9653,-2.9873,-2.9863,0.0,0.0,-2.8458,-2.7183,0.0,0.0,0.0,0.0,0.0,0.0,0.0,0.0,0.0,0.0,0.0,0.0,0.0,0.0,0.0,0.0,0.0,-3.3119,-3.3339,-3.4641,-3.6812,-4.029,-4.2151,-4.3369,-4.4671,-4.5196,-4.5365,-4.5365,-4.4637,-4.3234,-4.0679,-3.936,-3.8091,-3.6022,-3.56,-3.56,-3.56,-3.6265,-3.7455,-3.9462,-4.0595,-4.2506,-4.6261,-4.8071,-5.0033,-5.2807,-5.4279,-5.5632,-5.7103,-5.7628,-5.7881,-5.7881,-5.7881,-5.7881,-5.7881,-5.7881,-5.7881,-5.7881,-5.7881,-5.7881,-5.7881,-5.7881,-5.7881,-5.7881,-5.7881,-5.7881,-5.7881,-5.7662,-5.756,-5.7526,-5.6799,0.0,0.0,-5.3678,-5.1976,-5.0281,-4.9215,-4.8183,-4.7145,-4.5783,-4.5289,-4.511,0.0,0.0,0.0,0.0,0.0,0.0,-2.45,-2.5737,-2.7063,-2.8436,-2.9641,-3.0646,-3.133,-3.1277,-3.0903,-3.0142,-2.8686,0.0,0.0,0.0,0.0,0.0,0.0,0.0,0.0,0.0,-3.0446,-3.1173,-3.1921,-3.1934,-3.1265,-3.0053,-2.8745,-2.7373,0.0,0.0,0.0,0.0,0.0,0.0,0.0,0.0,-3.1637,0.0,0.0,0.0,0.0,0.0,0.0,0.0,0.0,0.0,0.0,-3.3914,-3.5115,-3.8142,-4.0578,-4.2472,-4.3234,-4.4012,-4.4615,-4.4615,-4.3481,-4.1914,-4.0451,-3.8954,-3.7483,-3.5921,-3.56,-3.56,-3.56,-3.6265,-3.7303,-3.8751,-4.024,-4.2506,-4.6261,-4.8071,-4.983,-5.2046,-5.3044,-5.411,-5.5563,-5.7036,-5.7881,-5.7881,-5.7881,0.0,-5.7881,-5.7881,-5.7881,-5.7881,-5.7881,-5.7881,-5.7881,-5.7881,-5.7881,-5.7881,-5.7881,-5.7881,-5.7865,-5.7137,-5.6816,-5.6765,0.0,0.0,0.0,-5.3462,-5.1976,-5.0281,-4.9215,-4.8183,-4.7145,-4.5783,-4.5289,-4.511,0.0,0.0,0.0,0.0,0.0,0.0,-2.3872,-2.4271,-2.5,-2.6308,-2.7126,-2.8192,-2.9786,-3.0255,-3.0565,-3.0835,-2.9937,0.0,0.0,0.0,0.0,0.0,0.0,0.0,0.0,0.0,-3.0717,-3.1955,-3.1746,-3.1775,-3.2015,-3.0723,-2.9397,-2.8131,-2.7457,-2.6558,0.0,0.0,0.0,0.0,0.0,-3.1817,-3.2332,0.0,0.0,0.0,0.0,0.0,0.0,0.0,0.0,0.0,0.0,0.0,0.0,-3.6265,-3.8633,-4.0857,-4.1076,-4.1711,-4.2151,-4.166,-4.1153,-4.0417,-3.892,-3.8244,-3.7466,-3.5921,-3.56,-3.56,-3.56,-3.6265,-3.7625,-4.0104,-4.1322,-4.3081,-4.6329,-4.8071,-4.983,-5.2046,-5.4786,-5.6681,0.0,0.0,-5.7881,-5.7881,-5.7881,-5.7881,-5.7881,-5.7881,-5.7881,-5.7881,-5.7881,-5.7881,-5.7881,-5.7881,-5.7881,-5.7881,-5.7881,-5.7628,-5.7137,-5.6917,-5.6528,0.0,0.0,0.0,0.0,-5.2895,-5.1515,-5.0281,-4.9215,-4.8183,-4.7145,-4.5783,-4.5289,-4.511,0.0,0.0,0.0,0.0,0.0,0.0,-2.3595,-2.3595,-2.3986,-2.5007,-2.5644,-2.668,-2.8425,-2.934,-3.009,-3.0791,-3.0651,0.0,0.0,0.0,0.0,0.0,0.0,0.0,0.0,-2.9989,-3.1106,-3.2345,-3.1924,-3.1984,-3.2449,-3.1363,-3.027,-2.9225,-2.8318,-2.7473,0.0,0.0,0.0,0.0,-3.1129,-3.1699,-3.1966,0.0,0.0,0.0,0.0,0.0,0.0,0.0,0.0,0.0,0.0,0.0,0.0,0.0,-3.6924,-3.8979,-3.9529,-4.0223,-4.0663,-4.0206,-3.9884,-3.9385,-3.8176,-3.7686,-3.7127,-3.5853,-3.56,-3.5684,-3.6011,-3.6688,-3.7905,-4.0037,-4.1457,-4.3149,-4.5602,-4.7479,-4.9509,-5.1995,-5.5124,0.0,0.0,-5.756,-5.7881,-5.7881,-5.7881,-5.7881,-5.7881,-5.7881,-5.7881,-5.7881,-5.7881,-5.7881,-5.7881,-5.7881,-5.7881,-5.7881,-5.7611,-5.7239,-5.6782,-5.6224,-5.5716,0.0,0.0,0.0,0.0,-5.2119,-5.0968,-5.0242,-4.88,-4.7683,-4.68,-4.5708,-4.514,-4.4766,0.0,0.0,0.0,0.0,0.0,0.0,0.0,-2.3595,-2.3819,-2.4455,-2.5059,-2.5926,-2.727,-2.8463,-2.9473,-3.0227,-3.0868,0.0,0.0,0.0,0.0,0.0,0.0,0.0,-2.9077,-3.0514,-3.1645,-3.2399,-3.2452,-3.2538,-3.2648,-3.1986,-3.1274,-3.0522,-2.9235,-2.8622,0.0,0.0,0.0,0.0,-3.0738,-3.115,0.0,0.0,0.0,0.0,0.0,0.0,0.0,0.0,0.0,0.0,0.0,0.0,0.0,0.0,0.0,0.0,0.0,-3.9266,-3.9859,-3.9791,-3.9317,-3.865,-3.7922,-3.7246,0.0,-3.5752,-3.56,-3.5853,-3.6728,-3.7432,-3.821,-3.9157,-4.1035,-4.2946,-4.4615,-4.6836,-4.9342,-5.2198,-5.4515,0.0,-5.5869,-5.7103,-5.7881,-5.7881,-5.7831,0.0,-5.7814,-5.7763,-5.7729,-5.7729,-5.7729,-5.778,-5.7881,-5.7831,-5.7814,-5.7797,-5.707,-5.6697,-5.6596,-5.5209,-5.4566,0.0,0.0,0.0,0.0,-5.132,-5.0435,-5.0204,-4.8153,-4.6903,-4.619,-4.5499,-4.484,-4.4212,0.0,0.0,0.0,0.0,0.0,0.0,0.0,0.0,0.0,0.0,-2.4319,-2.5191,-2.6594,-2.7365,-2.8447,0.0,0.0,0.0,0.0,0.0,0.0,0.0,0.0,0.0,-2.9837,-3.1295,-3.2169,-3.2399,-3.2975,-3.3266,-3.3259,-3.26,-3.1909,-3.1212,-2.9924,-2.8813,0.0,0.0,0.0,0.0,-3.037,-3.0651,0.0,0.0,0.0,0.0,-3.0828,-3.1381,0.0,0.0,0.0,0.0,0.0,0.0,0.0,0.0,-3.4759,-3.5137,-3.5453,0.0,-3.7438,-3.6806,-3.6992,-3.7094,0.0,-3.6485,-3.6552,-3.5752,-3.56,-3.6005,-3.7398,-3.7787,-3.8886,-4.1871,-4.2811,-4.4079,-4.6752,-5.005,-5.2875,-5.4685,-5.6376,-5.7374,-5.7374,-5.7695,-5.7881,-5.7881,-5.7374,-5.7053,-5.7053,-5.6528,-5.6224,-5.6224,-5.6224,-5.6765,-5.7881,-5.734,-5.7053,-5.7053,-5.6325,-5.5666,-5.5108,-5.4752,-5.4279,0.0,0.0,0.0,-5.3382,-5.2098,-5.108,-5.0233,-4.8373,-4.7137,-4.6145,-4.4975,-4.4451,-4.4212,0.0,0.0,0.0,0.0,0.0,0.0,0.0,0.0,0.0,0.0,-2.3858,-2.4429,-2.5504,-2.6661,-2.7916,0.0,0.0,0.0,0.0,0.0,0.0,0.0,0.0,-3.0108,-3.0108,-3.1565,-3.2322,-3.2344,-3.312,-3.3489,-3.348,-3.281,-3.2303,-3.1884,-3.0298,-2.9037,0.0,0.0,0.0,-2.9666,-3.0253,0.0,0.0,0.0,0.0,0.0,-2.9669,-3.0326,0.0,-3.205,-3.3114,-3.4117,0.0,0.0,0.0,0.0,-3.4252,-3.3998,-3.3998,-3.5368,-3.6795,-3.6688,-3.6992,-3.7178,-3.6749,-3.6451,-3.6129,-3.5684,-3.56,-3.6073,-3.7635,-3.8176,-3.9292,-4.1965,-4.3267,-4.5111,-4.8443,-5.1251,-5.3636,-5.5497,-5.6714,-5.7526,0.0,-5.7577,-5.7391,-5.7391,0.0,-5.6308,-5.6308,-5.5936,-5.5681,-5.5681,-5.5681,-5.6089,-5.6884,-5.6494,-5.6308,-5.6292,-5.5564,-5.4989,-5.4583,-5.4245,-5.3873,0.0,0.0,0.0,-5.2646,-5.1326,-5.015,-4.904,-4.7311,-4.6142,-4.5278,-4.4586,-4.4122,-4.3768,0.0,0.0,0.0,0.0,0.0,0.0,0.0,0.0,0.0,0.0,0.0,0.0,0.0,0.0,0.0,0.0,0.0,0.0,0.0,0.0,0.0,0.0,-3.0251,-3.0232,-3.0429,-3.1571,-3.2215,-3.2342,-3.3212,-3.3609,-3.3484,-3.3021,-3.2602,-3.2138,-3.0462,-2.931,0.0,0.0,-2.9756,-2.9786,-3.0193,0.0,0.0,0.0,0.0,0.0,0.0,0.0,0.0,-3.1687,-3.2596,-3.334,-3.4677,0.0,0.0,0.0,0.0,0.0,-3.3508,-3.5233,-3.7032,-3.7313,-3.7736,-3.8024,-3.7787,-3.6721,-3.5769,-3.5769,-3.5769,-3.6276,-3.7939,-3.8751,-3.9749,-4.1593,-4.3792,-4.6409,-4.9627,-5.1471,-5.3247,-5.531,-5.619,0.0,-5.7492,-5.7002,-5.663,0.0,0.0,-5.5547,-5.5547,-5.5446,-5.5378,-5.5378,-5.5378,-5.5378,-5.5378,-5.5497,-5.5547,-5.553,-5.4786,-5.4431,-5.4397,-5.3788,-5.3501,-5.3501,0.0,0.0,-5.1619,-4.9939,-4.8595,-4.7521,-4.5818,-4.4811,-4.4302,-4.4212,-4.3768,-4.329,0.0,0.0,0.0,0.0,0.0,0.0,0.0,0.0,0.0,0.0,0.0,0.0,0.0,0.0,0.0,0.0,0.0,0.0,0.0,0.0,0.0,-3.1985,-3.0887,-3.0795,-3.1935,-3.1752,-3.1895,-3.2458,-3.3748,-3.408,-3.3499,-3.3994,-3.2976,-3.0791,-3.0492,-2.9714,-2.8682,-2.9864,-3.0357,-3.0328,-2.9894,0.0,0.0,0.0,0.0,0.0,0.0,0.0,0.0,-3.0218,-3.1148,-3.1902,-3.2588,0.0,0.0,0.0,0.0,0.0,-3.3981,-3.5994,-3.7297,-3.547,-3.6941,-3.8497,-3.7246,-3.6795,-3.6626,-3.6626,-3.6626,-3.7269,-3.9385,-3.9859,-4.106,-4.4468,-4.687,-4.8731,-4.9915,-5.1961,-5.3687,-5.4651,0.0,-5.5919,-5.6038,-5.5953,0.0,0.0,0.0,-5.4769,-5.4769,-5.4177,-5.3839,-5.3839,-5.3839,-5.3839,-5.3839,-5.4465,-5.4769,-5.4752,-5.4025,-5.367,-5.367,-5.3551,-5.3501,-5.3467,0.0,-5.195,-5.0916,-4.9176,-4.7884,-4.6865,-4.5138,-4.4407,-4.4242,-4.3648,-4.3379,-4.329,0.0,0.0,0.0,0.0,0.0,0.0,0.0,0.0,0.0,0.0,0.0,0.0,0.0,0.0,0.0,0.0,0.0,0.0,0.0,0.0,-3.2286,-3.1823,-3.1254,-3.1193,-3.1762,-3.305,-3.3494,-3.2985,-3.4801,-3.5315,-3.4577,-3.4143,-3.2706,-3.0507,-3.0507,-3.0178,-2.9669,-3.0253,-3.0717,-3.0972,0.0,0.0,0.0,0.0,0.0,0.0,0.0,0.0,0.0,0.0,-3.0622,-3.1565,-3.1837,0.0,0.0,0.0,0.0,0.0,-3.2123,-3.4124,-3.5764,-3.4314,-3.7394,-4.0595,-3.9943,-3.9165,-3.8589,-3.8589,-3.8582,-3.9022,-4.0426,-4.1018,-4.2506,-4.6295,-4.8088,-4.9543,-5.1065,-5.2181,-5.3298,0.0,0.0,-5.526,-5.5647,-5.5344,0.0,0.0,0.0,0.0,-5.4008,-5.3687,-5.3501,-5.3501,-5.3501,-5.3501,-5.3501,-5.3839,-5.4008,-5.3991,-5.367,-5.3501,-5.3501,-5.3501,-5.3264,-5.2841,0.0,-5.1226,-4.9397,-4.8232,-4.6872,-4.5373,-4.4218,-4.3738,-4.3708,-4.3409,-4.329,-4.329,0.0,0.0,0.0,0.0,0.0,0.0,0.0,0.0,0.0,0.0,0.0,0.0,0.0,0.0,0.0,0.0,0.0,0.0,0.0,0.0,-3.1952,-3.167,-3.1573,-3.171,-3.2054,-3.3752,-3.4408,-3.3951,-3.5438,-3.5779,-3.5011,-3.3814,-3.2287,-3.0507,-3.0672,-3.0657,-3.0507,-3.0672,-3.1017,-3.1451,0.0,0.0,0.0,0.0,0.0,0.0,0.0,0.0,0.0,0.0,0.0,0.0,0.0,0.0,0.0,-3.1139,-3.0949,-3.0925,-3.0662,-3.2466,-3.4341,-3.4127,-3.758,-4.1167,-4.156,-4.0735,-3.9951,-4.0236,-4.0466,-4.0772,-4.1356,-4.2489,-4.4299,-4.7192,-4.8714,-5.0118,-5.1809,-5.235,-5.3027,-5.4194,-5.4329,-5.4566,-5.5141,0.0,0.0,0.0,0.0,0.0,-5.3501,-5.3501,-5.3501,-5.3501,-5.3501,-5.3501,-5.3501,-5.3501,-5.3501,-5.3501,-5.3501,-5.3399,-5.323,-5.323,-5.279,-5.2029,-5.1646,-5.0183,-4.7997,-4.7075,-4.5654,-4.3992,-4.3484,-4.329,-4.329,-4.329,-4.329,-4.329,0.0,0.0,0.0,0.0,0.0,0.0,0.0,0.0,0.0,0.0,0.0,0.0,0.0,0.0,0.0,0.0,0.0,0.0,0.0,0.0,-3.1244,-3.2383,-3.1895,-3.2463,-3.4305,-3.2678,-3.3026,-3.5532,-3.4955,-3.4297,-3.3619,-3.2916,-3.1839,-3.0537,-3.1152,-3.1077,-3.0552,-3.1152,-3.1466,-3.1451,-3.0776,0.0,0.0,0.0,0.0,0.0,0.0,0.0,0.0,0.0,0.0,0.0,0.0,0.0,-3.0405,-2.9739,-2.9941,-3.0525,-3.1295,-3.2602,-3.4076,-3.5395,-3.6524,-3.7721,-3.9422,-3.9467,-3.9472,-4.0614,-4.1543,-4.2151,-4.2202,-4.4536,-4.6549,-4.6836,-4.9221,-5.1083,-5.1268,0.0,-5.345,-5.3568,-5.3585,-5.3602,0.0,0.0,0.0,0.0,0.0,0.0,-5.3501,-5.3501,-5.3501,-5.3501,-5.3501,-5.3501,-5.3501,-5.3501,-5.3501,-5.3501,-5.3501,-5.3112,-5.2384,-5.2384,-5.1995,-5.1186,-4.9626,-4.8346,-4.7261,-4.5661,-4.4358,-4.3364,-4.3319,-4.329,-4.329,-4.329,-4.329,-4.329,0.0,0.0,0.0,0.0,0.0,0.0,0.0,0.0,0.0,0.0,0.0,0.0,0.0,0.0,0.0,0.0,0.0,0.0,0.0,-2.9556,-3.048,-3.1763,-3.2015,-3.2482,-3.3332,-3.3852,-3.4617,-3.5642,-3.4866,-3.4174,-3.3484,-3.2826,-3.2243,-3.1749,-3.157,-3.1361,-3.1137,-3.1391,-3.1511,-3.1451,-3.0776,-3.0133,0.0,0.0,0.0,0.0,0.0,0.0,0.0,0.0,-2.7881,-2.855,-2.8339,-2.8985,-2.972,-2.903,-2.9271,-2.972,-2.969,-3.125,-3.3029,-3.3633,-3.4921,-3.6816,-3.9784,-4.1146,-4.2142,-4.3443,-4.4449,-4.4959,-4.4502,-4.572,-4.6955,-4.7411,-4.8714,-4.9826,-5.0259,-5.069,-5.0943,-5.0943,-5.1316,-5.1557,0.0,0.0,0.0,0.0,0.0,0.0,-5.0339,-5.0883,-5.1192,-5.1192,-5.1782,-5.208,-5.208,-5.208,-5.208,-5.2097,-5.2536,-5.2587,-5.2283,-5.1843,-5.1217,-5.0458,-4.9227,-4.7901,-4.6522,-4.53,-4.422,-4.329,-4.329,-4.329,-4.329,-4.329,-4.329,-4.329,0.0,0.0,0.0,0.0,0.0,0.0,0.0,0.0,0.0,0.0,0.0,0.0,0.0,0.0,0.0,0.0,0.0,0.0,-2.7728,-2.8675,-2.9662,-3.0727,-3.1444,-3.2055,-3.2609,-3.3794,-3.4588,-3.5015,-3.4243,-3.3619,-3.317,-3.2512,-3.2288,-3.2452,-3.1795,-3.1615,-3.1795,-3.1361,-3.1182,-3.1137,-3.0687,-3.0013,0.0,0.0,0.0,0.0,0.0,0.0,0.0,0.0,-2.72,-2.7919,-2.769,-2.8337,-2.9058,-2.8409,-2.895,-2.9612,-2.9015,-3.0612,-3.2492,-3.2736,-3.4173,-3.6371,-3.9727,-4.1582,-4.2956,-4.4269,-4.5124,-4.5593,-4.56,-4.6042,-4.6629,-4.7354,-4.8164,-4.8773,-4.8973,-4.9054,-4.9085,-4.9085,-4.9496,0.0,0.0,0.0,0.0,0.0,0.0,0.0,0.0,-4.8995,-4.9365,-4.9365,-5.0258,-5.0775,-5.0775,-5.1038,-5.1185,-5.1185,-5.1488,-5.1606,-5.1589,-5.1082,-5.0456,-4.9666,-4.8447,-4.7269,-4.6103,-4.4856,-4.3927,-4.329,-4.329,-4.329,-4.329,-4.329,-4.329,-4.329,0.0,0.0,0.0,0.0,0.0,0.0,0.0,0.0,0.0,0.0,0.0,0.0,0.0,0.0,0.0,0.0,0.0,0.0,-2.6308,-2.7713,-2.8764,-2.9345,-3.0103,-3.1162,-3.2626,-3.1873,-3.2197,-3.369,-3.2879,-3.2497,-3.2497,-3.1809,-3.1854,-3.2452,-3.1795,-3.1854,-3.2407,-3.1061,-3.0492,-3.0492,-3.0492,-2.9729,-2.8607,0.0,0.0,0.0,0.0,0.0,0.0,0.0,-2.6587,-2.6731,-2.739,-2.8033,-2.8383,-2.7785,-2.8961,-3.0351,-2.9738,-3.1016,-3.2677,-3.3335,-3.4532,-3.6222,-3.8826,-4.015,-4.1165,-4.2452,-4.2905,-4.3507,-4.5109,-4.5431,-4.5693,-4.6387,-4.7704,-4.8353,-4.7425,-4.7894,-4.8363,-4.8363,-4.8379,0.0,0.0,0.0,0.0,0.0,0.0,0.0,0.0,-4.8347,-4.8363,-4.8363,-4.9279,-4.9765,-4.9765,-5.0676,-5.1168,-5.1151,-5.039,-5.0084,-5.0084,-5.0084,-4.9678,-4.8909,-4.7036,-4.6208,-4.6032,-4.4113,-4.329,-4.329,-4.329,-4.329,-4.3275,-4.3275,-4.3275,-4.3275,0.0,0.0,0.0,0.0,0.0,0.0,0.0,0.0,0.0,0.0,0.0,0.0,0.0,0.0,0.0,0.0,0.0,0.0,-2.5675,-2.6153,-2.7077,-2.8634,-2.8905,-2.9255,-2.9744,-2.9559,-3.0573,-3.2865,-3.215,-3.2034,-3.2497,-3.1809,-3.1615,-3.1795,-3.1585,-3.1092,-3.0417,-3.0028,-2.9864,-2.9846,-2.9355,-2.8936,-2.8502,0.0,0.0,0.0,0.0,0.0,0.0,0.0,0.0,0.0,-2.739,-2.8372,-2.9048,-2.792,-2.8699,-2.9713,-2.9064,-3.0672,-3.2677,-3.3335,-3.5893,-3.8467,-3.9209,-4.0481,-4.2193,-4.4658,-4.4814,-4.4623,-4.5103,-4.5219,-4.5283,-4.5459,-4.5741,-4.5856,-4.5561,-4.5511,-4.5528,-4.5528,-4.5941,0.0,0.0,0.0,0.0,0.0,0.0,0.0,0.0,-4.5483,-4.5859,-4.5859,-4.6777,-4.7257,-4.7257,-4.7552,-4.769,-4.769,-4.7478,-4.8332,-5.0067,-4.956,-4.9204,-4.8909,-4.7036,-4.6208,-4.6032,-4.4113,-4.306,-4.2656,-4.2656,-4.2372,-4.1953,-4.1953,-4.1953,-4.1953,0.0,0.0,0.0,0.0,0.0,0.0,0.0,0.0,0.0,0.0,0.0,-2.4605,0.0,0.0,0.0,0.0,0.0,0.0,0.0,-2.5336,-2.6235,-2.7897,-2.8023,-2.8208,-2.8538,-2.8845,-2.9759,-3.1345,-3.0956,-3.0956,-3.1345,-3.1195,-3.1241,-3.1511,-3.1511,-3.1062,-3.0328,-2.9804,-2.9457,-2.916,-2.8757,-2.8442,-2.8128,0.0,0.0,0.0,0.0,0.0,0.0,0.0,0.0,0.0,-2.7091,-2.7764,-2.8364,-2.8094,-2.8921,-3.0088,-3.0761,-3.2482,-3.4307,-3.522,-3.724,-3.9155,-3.9694,-4.0949,-4.2606,-4.4625,-4.4502,-4.4236,-4.4863,-4.4761,0.0,-4.4934,-4.4888,-4.4662,-4.4259,-4.404,-4.3888,-4.3888,0.0,0.0,0.0,0.0,0.0,0.0,0.0,0.0,0.0,-4.3888,-4.422,-4.422,-4.5138,-4.5634,-4.5634,-4.6012,-4.6208,-4.6208,-4.6208,-4.688,-4.8182,-4.8356,-4.8433,-4.8304,-4.6198,-4.5027,-4.459,-4.3114,-4.2327,-4.2006,-4.2006,-4.1767,-4.1422,-4.1422,-4.1422,-4.1422,0.0,0.0,-2.3909,-2.4575,0.0,0.0,0.0,0.0,0.0,-2.361,-2.4171,-2.459,0.0,0.0,0.0,-2.4515,0.0,0.0,0.0,0.0,-2.5957,-2.7158,-2.7458,-2.7935,-2.8693,-2.922,-2.9517,-2.9517,-2.9517,-2.9547,-2.9621,-3.0223,-3.0806,-3.1331,-3.1391,-3.1316,-3.1062,-2.9834,-2.8921,-2.8323,-2.8323,-2.7949,-2.748,-2.8083,0.0,0.0,0.0,0.0,0.0,0.0,0.0,0.0,-2.6662,-2.6722,-2.7006,-2.8173,-2.946,-3.1046,-3.356,-3.5267,-3.6626,-3.7973,-3.8437,-3.8916,-4.0202,-4.1414,-4.247,-4.2991,-4.2731,-4.2846,-4.431,-4.4127,-4.3942,-4.4553,-4.4662,-4.4335,-4.3448,-4.329,-4.329,-4.329,0.0,0.0,0.0,0.0,0.0,0.0,0.0,0.0,0.0,-4.329,-4.329,-4.329,-4.4121,-4.46,-4.4662,-4.5399,-4.5801,-4.5865,-4.5801,-4.5486,-4.5019,-4.6646,-4.7308,-4.7043,-4.4713,-4.3179,-4.2261,-4.1662,-4.1339,-4.1294,-4.1294,-4.125,-4.1205,-4.1205,-4.1205,-4.1205,0.0,0.0,-2.459,-2.5262,0.0,0.0,0.0,0.0,-2.4201,-2.367,-2.4171,-2.4395,-2.3879,-2.3819,0.0,-2.3819,-2.3684,0.0,0.0,0.0,-2.5331,-2.6529,-2.7731,-2.8688,-2.9382,-2.9011,-2.8816,-2.8816,-2.8816,-2.9071,-2.9621,-3.0223,-3.0313,-3.0028,-3.0507,-2.9864,-2.8393,-2.7575,-2.6856,-2.6258,-2.6258,-2.6168,-2.6048,-2.6198,-2.6078,0.0,0.0,0.0,0.0,0.0,0.0,0.0,-2.7225,-2.7764,-2.8113,-2.7884,-2.9086,-3.0746,-3.1839,-3.3514,-3.534,-3.7165,-3.8796,-4.0172,-4.0995,-4.1384,-4.1624,-4.1773,-4.2141,-4.2518,-4.2831,-4.3201,-4.3449,-4.36,-4.363,-4.3551,-4.3329,-4.329,-4.329,-4.329,0.0,0.0,0.0,0.0,0.0,0.0,0.0,0.0,-4.326,-4.329,-4.329,-4.329,-4.3055,-4.3141,-4.363,-4.2842,-4.2681,0.0,-4.2666,-4.2759,-4.338,-4.4968,-4.5019,-4.3815,-4.325,-4.2475,-4.1617,-4.1482,-4.107,-4.0606,-4.0606,-4.0292,-3.9843,-3.9843,-3.9843,-3.9843,0.0,0.0,0.0,0.0,0.0,0.0,0.0,0.0,-2.5187,-2.4201,-2.438,-2.447,-2.4111,-2.3789,0.0,0.0,-2.3595,-2.3724,0.0,0.0,-2.4679,-2.5956,-2.7957,-2.8914,-2.8648,-2.8607,-2.8442,-2.8113,-2.8113,-2.8442,-2.9146,-3.0402,-3.0821,-3.0537,-3.0823,-3.0073,-2.8498,-2.751,-2.6497,-2.5615,-2.5615,-2.5615,-2.5615,-2.5615,-2.5615,-2.5615,-2.5615,0.0,0.0,0.0,0.0,0.0,0.0,0.0,-2.7215,-2.751,-2.8558,-3.0013,-3.1943,-3.3918,-3.5908,-3.7883,-3.9155,-4.0023,-4.0367,-4.0442,-4.0442,-4.0442,-4.1205,-4.1931,-4.1931,-4.2432,-4.2865,-4.2865,-4.3135,-4.329,-4.329,-4.329,-4.317,-4.2895,0.0,0.0,0.0,0.0,0.0,0.0,0.0,-4.2081,-4.2372,-4.2402,-4.2402,-4.2402,-4.2073,-4.2058,-4.2402,-4.1728,-4.1587,-4.1931,-4.1587,-4.149,-4.1708,-4.3329,-4.358,-4.2756,-4.1996,-4.1379,-4.0891,-4.0561,-4.0247,-3.9933,-3.9933,-3.9723,-3.9388,-3.9388,-3.9388,-3.9388,0.0,0.0,0.0,0.0,0.0,0.0,0.0,0.0,0.0,-2.4769,-2.4709,-2.4724,-2.4619,-2.4014,-2.3595,0.0,0.0,0.0,-2.373,0.0,0.0,-2.5884,-2.803,-2.8742,-2.7779,-2.8188,-2.8169,-2.76,-2.748,-2.7993,-2.9146,-3.0509,-3.1227,-3.1316,-3.1212,-3.0462,-2.9172,-2.7824,-2.6467,-2.5255,-2.5255,-2.5255,-2.5255,-2.5255,-2.5255,-2.527,-2.539,-2.5794,-2.6273,-2.6378,0.0,0.0,0.0,0.0,-2.5674,-2.6911,-2.7735,-2.8906,-3.1854,-3.4442,-3.6791,-3.8751,-3.9334,-3.9388,-3.9388,-3.9388,-3.9388,-3.9388,-4.0367,-4.1205,-4.1205,-4.1796,-4.2231,-4.2231,-4.2641,-4.2961,-4.2961,-4.2961,-4.2791,-4.2291,0.0,0.0,0.0,0.0,0.0,0.0,0.0,-4.1265,-4.1369,-4.1422,-4.1422,-4.1422,-4.1265,-4.1265,-4.1422,-4.116,-4.11,-4.1205,-4.11,-4.0756,-4.0284,-4.1591,-4.2217,-4.215,-4.0794,-4.0232,-4.0187,-3.9649,-3.9388,-3.9388,-3.9388,-3.9388,-3.9388,-3.9388,-3.9388,-3.9388,0.0,0.0,0.0,0.0,0.0,0.0,0.0,0.0,0.0,0.0,-2.5098,-2.5247,-2.4664,-2.4014,-2.3595,-2.3595,-2.3595,-2.3794,0.0,0.0,0.0,-2.728,-2.766,-2.8036,-2.8457,-2.7989,-2.769,-2.76,-2.7031,-2.8248,-3.1092,-3.0253,-3.0118,-3.0612,-3.0088,-2.9112,-2.7779,-2.6437,-2.5091,-2.3864,-2.3864,-2.3864,-2.3864,-2.3864,-2.3864,-2.3939,-2.453,-2.4784,-2.4948,-2.5555,-2.5794,0.0,0.0,0.0,-2.4889,-2.5636,-2.6333,-2.7215,-2.8816,-3.2377,-3.6103,-3.8048,-3.8975,-3.9388,-3.9388,-3.9388,-3.9388,-3.9388,-4.0008,-4.0531,-4.0531,-4.107,-4.1504,-4.1504,-4.1579,-4.1639,-4.1639,-4.1639,-4.1609,-4.1519,0.0,0.0,0.0,0.0,0.0,0.0,-4.0531,-4.0786,-4.1354,-4.1422,-4.1422,-4.1422,-4.0831,-4.0801,-4.1369,-4.0247,-3.9963,-4.0531,-3.9948,-3.9634,-3.9544,-3.9778,-3.9845,-3.983,-3.9625,-3.9508,-3.9544,-3.9454,-3.9388,-3.9388,-3.9388,-3.9388,-3.9388,-3.9388,-3.9388,-3.9388,0.0,0.0,0.0,0.0,0.0,0.0,0.0,0.0,0.0,0.0,0.0,-2.4933,-2.4634,-2.4014,-2.3595,-2.3595,-2.3595,0.0,0.0,0.0,0.0,-2.5884,-2.6273,-2.6617,-2.6916,-2.6632,-2.6467,-2.6467,-2.6183,-2.7724,-3.0941,-3.0372,-3.145,-3.3799,-3.2392,-3.1031,-2.9639,-2.7186,-2.539,-2.4126,-2.3759,-2.4268,-2.5151,-2.4029,-2.4298,-2.5166,-2.4343,-2.4276,-2.4649,-2.4933,-2.5277,-2.5615,-2.5615,0.0,0.0,0.0,-2.5501,-2.6737,-2.9924,-3.2542,-3.5026,-3.7719,-3.8616,-3.8945,-3.9334,-3.9388,-3.9388,-3.9388,-3.9649,-3.9843,-3.9843,-4.0382,-4.0831,-4.0831,-4.113,-4.1422,-4.1422,-4.1422,-4.125,-4.0876,0.0,0.0,0.0,0.0,0.0,0.0,-3.9843,-3.9978,-4.0262,-4.0277,-4.0277,-4.0277,-3.9993,-3.9993,-4.0277,-3.9709,-3.9574,-3.9843,-3.9559,-3.9388,-3.9388,-3.9388,-3.9388,-3.9388,-3.9388,-3.9388,-3.9388,-3.9388,-3.9388,-3.9388,-3.9388,-3.9388,-3.9388,-3.9388,-3.9388,-3.9388,0.0,0.0,0.0,0.0,0.0,0.0,0.0,0.0,0.0,0.0,0.0,-2.4605,-2.4605,0.0,0.0,0.0,-2.3595,0.0,0.0,0.0,0.0,0.0,0.0,-2.5337,-2.5337,-2.5337,-2.5337,-2.5337,-2.5337,-2.7305,-3.1016,-3.1016,-3.3245,-3.712,-3.4622,-3.2662,-3.1047,-2.8098,-2.6273,-2.5292,-2.4627,-2.536,-2.6746,-2.5734,-2.6273,-2.732,-2.533,-2.4837,-2.5023,-2.4515,-2.4679,-2.5091,-2.5091,-2.4762,0.0,0.0,0.0,-2.5959,-2.9939,-3.1734,-3.3245,-3.6372,-3.7644,-3.8317,-3.9005,-3.929,-3.9388,0.0,-3.9388,-3.9388,-3.9388,-3.9828,-4.0157,-4.0157,-4.0561,-4.0876,-4.0876,-4.0876,-4.0696,0.0,0.0,0.0,0.0,0.0,0.0,0.0,-3.9388,-3.9388,-3.9388,-3.9388,-3.9388,-3.9388,-3.9388,-3.9388,-3.9388,-3.9388,-3.9388,-3.9388,-3.9388,-3.9388,-3.9388,-3.9388,-3.9388,-3.9388,-3.9388,-3.9388,-3.9388,-3.9388,-3.9388,-3.9388,-3.9388,-3.9388,-3.9388,-3.9388,-3.9388,-3.9388,0.0,0.0,0.0,0.0,0.0,0.0,0.0,0.0,0.0,0.0,0.0,-2.4605,-2.4605,-2.4014,-2.3595,-2.3595,-2.3595,0.0,0.0,0.0,0.0,0.0,0.0,0.0,-2.4649,-2.4649,-2.4649,-2.4649,-2.4649,-2.731,-3.2407,-3.2407,-3.4861,-3.9059,-3.522,-3.2407,-3.0417,-2.8408,-2.751,-2.739,-2.6692,-2.6896,-2.7735,-2.9475,-3.0208,-3.0043,-2.8094,-2.7016,-2.6198,-2.4283,-2.3684,-2.3699,-2.3699,-2.3684,-2.3655,0.0,0.0,0.0,-2.6318,-2.8308,-3.0445,-3.308,-3.5624,-3.7629,-3.8287,-3.8945,-3.9388,-3.9388,-3.9388,-3.9388,-3.9388,-3.9454,-3.9433,-3.9433,-3.9463,-3.9514,-3.9514,-3.9514,-3.9514,0.0,0.0,0.0,0.0,0.0,0.0,0.0,-3.9388,-3.9388,-3.9388,-3.9388,-3.9388,-3.9388,-3.9388,-3.9388,-3.9388,-3.9388,-3.9388,-3.9388,-3.9388,-3.9388,-3.9388,-3.9388,-3.9388,-3.9388,-3.9388,-3.9388,-3.9388,-3.9388,-3.9388,-3.9388,-3.9388,-3.9388,-3.9388,-3.9388,-3.9388,-3.9388,0.0,0.0,0.0,0.0,0.0,0.0,0.0,0.0,0.0,0.0,0.0,0.0,0.0,-2.3744,-2.3595,-2.3595,-2.3595,0.0,0.0,0.0,0.0,0.0,0.0,0.0,-2.3969,-2.3969,-2.3969,-2.3969,-2.3969,-2.6033,-3.0013,-3.0432,-3.1973,-3.4321,-3.4203,-3.3724,-3.2811,-2.9157,-2.7854,-2.8173,-2.7525,-2.8663,-3.0672,-3.0118,-3.121,-3.2766,-3.0328,-2.8771,-2.7769,-2.7051,-2.5674,-2.4231,-2.4231,-2.3954,-2.3595,-2.3595,-2.3595,-2.4044,-2.6033,-2.7111,-2.8397,-3.1465,-3.3574,-3.519,-3.6282,-3.7689,-3.8751,-3.8751,-3.911,-3.9388,-3.9388,-3.9388,-3.9388,-3.9388,-3.9388,-3.9388,-3.9388,-3.9388,-3.9388,0.0,0.0,0.0,0.0,0.0,0.0,0.0,0.0,-3.9388,-3.9388,-3.9388,-3.9388,-3.9388,-3.9388,-3.9388,-3.9388,-3.9388,-3.9388,-3.9388,-3.9388,-3.9388,-3.9388,-3.9388,-3.9388,-3.9388,-3.9388,-3.9388,-3.9388,-3.9388,-3.9388,-3.9388,-3.9388,-3.9388,-3.9388,-3.9388,-3.9388,-3.9388,0.0,0.0,0.0,-2.76,0.0,-2.5615,-2.5615,-2.4462,-2.3595,-2.3595,0.0,0.0,0.0,0.0,-2.3595,-2.3595,-2.3595,-2.3595,-2.3595,-2.3595,0.0,0.0,0.0,0.0,-2.3595,-2.3595,-2.3595,-2.3595,-2.3834,-2.542,-2.8263,-2.8936,-3.0178,-3.1854,-3.2302,-3.2991,-3.3604,-3.0298,-2.916,-2.9535,-2.9086,-3.0357,-3.2497,-3.2287,-3.344,-3.4923,-3.2901,-3.1345,-3.0133,-2.9475,-2.7784,-2.586,-2.5412,-2.4507,-2.3595,-2.3595,-2.3595,-2.3894,-2.5226,-2.5914,-2.7006,-3.0076,-3.1689,-3.3021,-3.504,-3.6507,-3.7539,-3.7973,-3.8601,-3.914,-3.9379,-3.9388,-3.9388,-3.9388,-3.9388,-3.9388,-3.9388,-3.9388,0.0,0.0,0.0,0.0,0.0,0.0,0.0,0.0,0.0,0.0,-3.9388,-3.9388,-3.9388,-3.9388,-3.9388,-3.9388,-3.9388,-3.9388,-3.9388,-3.9388,-3.9388,-3.9388,-3.9388,-3.9388,-3.9388,-3.9388,-3.9388,-3.9388,-3.9388,-3.9388,-3.9388,-3.9388,-3.9388,-3.9388,-3.9388,-3.9388,-3.9388,-3.9388,-2.8308,-2.8064,-2.76,-2.76,-2.6497,-2.563,-2.563,-2.4507,-2.3655,-2.3655,0.0,0.0,0.0,0.0,0.0,-2.3625,-2.3625,-2.3625,-2.3595,-2.3595,0.0,0.0,0.0,0.0,-2.3595,-2.3595,-2.3595,-2.3595,-2.4246,-2.5585,-2.7525,-2.8188,-2.9879,-3.2228,-2.9714,-2.9998,-3.2317,-3.1615,-3.1391,-3.1511,-3.1466,-3.1914,-3.2946,-3.6148,-3.703,-3.6492,-3.5833,-3.4726,-3.329,-3.1315,-2.9759,-2.8412,-2.7006,-2.5211,-2.3625,-2.361,-2.361,-2.3625,0.0,0.0,0.0,-2.8786,-2.9909,-3.1255,-3.4562,0.0,-3.5759,-3.706,-3.7838,-3.8512,-3.9194,-3.9328,-3.9328,-3.9328,-3.9358,-3.9388,-3.9388,-3.9388,0.0,0.0,0.0,0.0,0.0,0.0,0.0,0.0,-3.9388,-3.9388,-3.9388,-3.9388,-3.9388,-3.9388,-3.9388,-3.9388,-3.9388,-3.9388,-3.9388,-3.9388,-3.9388,-3.9388,-3.9388,-3.9388,-3.9388,-3.9388,-3.9388,-3.9388,-3.9388,-3.9388,-3.9388,-3.9388,-3.9388,-3.9388,-3.9388,-3.9388,-3.9388,-3.9388,-2.772,-2.772,-2.76,-2.76,-2.6896,-2.6318,-2.6318,-2.56,-2.5061,0.0,0.0,0.0,-2.438,-2.4321,-2.4321,-2.4321,-2.4321,-2.4111,-2.3625,-2.3595,-2.3595,-2.3595,-2.3595,-2.3595,-2.3595,-2.3595,-2.3595,-2.3595,-2.3789,-2.4418,-2.5427,-2.6123,-2.7081,-2.8233,-2.8487,-2.8727,-2.8888,-2.7724,-2.888,-3.1421,-3.0507,-3.2228,-3.5429,-3.5863,-3.7105,-3.8512,-3.7838,-3.6761,-3.5504,-3.4472,-3.2273,-2.9505,-2.6752,-2.5158,-2.4231,-2.3744,-2.3954,-2.4216,-2.3729,0.0,0.0,0.0,0.0,0.0,0.0,0.0,-3.311,-3.4921,-3.5833,-3.6641,-3.7764,-3.7958,-3.7958,-3.7958,-3.8781,-3.9388,-3.9388,-3.9388,0.0,0.0,0.0,0.0,0.0,0.0,0.0,0.0,-3.9388,-3.9388,-3.9388,-3.9388,-3.9388,-3.9388,-3.9388,-3.9388,-3.9388,-3.9388,-3.9388,-3.9388,-3.9388,-3.9388,-3.9388,-3.9388,-3.9388,-3.9388,-3.9388,-3.9388,-3.9388,-3.9388,-3.9388,-3.9388,-3.9388,-3.9388,-3.9388,-3.9388,-3.9388,-3.9388,-2.7405,-2.76,-2.76,-2.76,-2.7285,-2.7031,-2.7031,-2.6437,-2.6019,0.0,0.0,0.0,-2.5053,-2.5008,-2.4903,-2.4634,-2.4335,-2.4007,-2.3625,-2.3595,-2.3595,-2.3595,-2.3595,-2.3595,-2.3595,-2.3595,-2.3595,-2.3595,-2.3595,-2.3804,-2.4186,-2.4582,-2.5121,-2.5794,-2.6288,-2.6602,-2.6686,-2.533,-2.6892,-3.0345,-3.0971,-3.2826,-3.5355,-3.6327,-3.7479,-3.8601,-3.8766,-3.8153,-3.7225,-3.6836,-3.4322,-3.0761,-2.747,-2.6168,-2.5615,-2.4365,-2.4702,-2.53,-2.4627,-2.4709,-2.5217,-2.6054,0.0,0.0,-2.8906,-2.9879,-3.0941,0.0,-3.4203,-3.507,-3.6372,-3.6611,-3.6701,-3.6985,-3.7689,-3.8377,-3.8916,-3.923,0.0,0.0,0.0,0.0,0.0,-3.9388,-3.9388,-3.9388,-3.9388,-3.9388,-3.9388,-3.9388,-3.9388,-3.9388,-3.9388,-3.9388,-3.9388,-3.9388,-3.9275,-3.899,-3.899,-3.899,-3.899,-3.899,-3.9155,-3.9388,-3.9388,-3.9388,-3.9388,-3.9388,-3.9388,-3.9388,-3.9388,-3.9388,-3.9388,-3.9388,-3.9388,-3.9388,0.0,-2.76,-2.7615,-2.7705,-2.7705,-2.7735,-2.7809,-2.7255,-2.6841,0.0,-2.6348,-2.5974,-2.6048,-2.5854,-2.551,-2.4978,-2.4193,-2.3714,-2.3714,-2.364,-2.3595,-2.3595,-2.3595,-2.3595,-2.3595,-2.3595,-2.3595,-2.3595,-2.3595,-2.3595,-2.3595,-2.3595,-2.3924,-2.447,-2.3879,-2.4268,-2.5315,-2.4268,-2.563,-2.8757,-3.1824,-3.332,-3.4053,-3.712,-3.8003,-3.7793,-3.8955,-3.9035,-3.8482,-3.8332,-3.5863,-3.2287,-2.9052,-2.8034,-2.763,-2.5531,-2.5884,-2.6767,-2.6019,-2.5884,-2.6333,-2.7964,-2.7156,0.0,-2.934,-2.9205,-2.9146,0.0,-3.2422,-3.3275,-3.4696,-3.4951,-3.516,-3.5833,-3.6118,-3.6731,-3.8093,-3.8811,0.0,0.0,0.0,0.0,-3.9373,-3.9388,-3.9394,-3.9269,-3.923,-3.92,-3.92,-3.92,-3.92,-3.92,-3.92,-3.92,-3.92,-3.92,-3.8886,-3.8287,-3.8287,-3.8287,-3.8287,-3.8287,-3.8616,-3.92,-3.9275,-3.9305,-3.9269,-3.9394,-3.9388,-3.9388,-3.9388,-3.9388,-3.9388,-3.9388,-3.9388,-3.9388,-2.7345,-2.76,-2.7764,-2.8308,-2.8397,-2.8577,-2.9142,-2.8622,-2.8397,-2.8921,-2.8427,-2.8218,-2.8742,-2.7365,-2.6557,-2.6986,-2.542,-2.4395,-2.4395,-2.3909,-2.3595,-2.3595,-2.3595,-2.3595,-2.3595,-2.3595,-2.3595,-2.3595,-2.3595,-2.3595,-2.3595,-2.3595,-2.367,-2.3789,-2.3655,-2.3744,-2.4044,-2.4866,-2.6198,-2.7944,-2.9681,-3.2258,-3.5295,-3.6971,-3.8197,-3.9029,-3.9334,-3.9334,-3.905,-3.7973,-3.6402,-3.4442,-3.1615,-3.0733,-3.0268,-2.7739,-2.7974,-2.8753,-2.754,-2.759,-2.7844,-2.7156,-2.7515,0.0,-2.6797,-2.72,-2.7944,0.0,-2.8663,-2.9322,-3.1135,-3.148,-3.1704,-3.2363,-3.3829,-3.5504,-3.7345,-3.7719,0.0,0.0,0.0,0.0,-3.9364,-3.9388,-3.9185,-3.8631,-3.8108,-3.7793,-3.7793,-3.7793,-3.7793,-3.7793,-3.7793,-3.7793,-3.7793,-3.7793,-3.7734,-3.7599,-3.7599,-3.7599,-3.7599,-3.7599,-3.7674,-3.7838,-3.8362,-3.8601,-3.8631,-3.9185,-3.9388,-3.9388,-3.9388,-3.9388,-3.9388,-3.9388,-3.9388,-3.9388,-2.6911,-2.7375,-2.7809,-2.8472,-2.8876,-2.931,-2.9939,-2.9759,-2.9789,-3.0462,-3.0268,-2.9939,-2.9636,-2.8382,-2.7615,-2.76,-2.5764,-2.4605,-2.4605,-2.3962,-2.3595,-2.3595,-2.3595,-2.3595,-2.3595,-2.3595,-2.3595,-2.3595,-2.3595,-2.3595,-2.3595,-2.3595,-2.3954,-2.4567,-2.3894,-2.3969,-2.4597,-2.4597,-2.5375,-2.6871,-3.0208,-3.3125,-3.5714,-3.7674,-3.8826,-3.9388,-3.9388,-3.9388,-3.911,-3.7135,-3.6028,-3.504,-3.2348,-3.1735,-3.16,-2.9624,-2.9759,-3.0268,-2.8963,-2.8858,-2.9011,-2.8637,-2.8308,0.0,0.0,-2.7335,-2.739,-2.8393,-2.8064,-2.8109,-2.9744,-2.9774,-2.9774,-3.0447,-3.1943,-3.335,-3.4306,-3.6178,-3.7524,0.0,0.0,0.0,-3.8377,-3.8407,-3.8272,-3.7928,-3.7599,-3.7404,-3.7404,-3.7404,-3.7404,-3.7404,-3.7404,-3.7404,-3.7404,-3.7404,-3.7255,-3.6941,-3.6941,-3.6941,-3.6941,-3.6941,-3.712,-3.7419,-3.7764,-3.7898,-3.7928,-3.8272,-3.8616,-3.8931,-3.929,-3.9388,-3.9388,-3.9388,-3.9388,-3.9388,-2.6273,-2.6956,-2.763,-2.8278,-2.8951,-2.9609,-3.0223,-3.0223,-3.0432,-3.1197,-3.1525,-3.1331,-3.046,-2.952,-2.8891,-2.8753,-2.6557,-2.5292,-2.5546,-2.4582,-2.3984,-2.3984,-2.3744,-2.3655,-2.3789,-2.367,-2.3595,-2.3595,-2.3595,-2.3595,-2.3595,-2.3595,-2.4253,-2.5352,-2.4283,-2.4537,-2.5719,-2.4507,-2.5061,-2.7126,-3.139,-3.3694,-3.4861,-3.7749,-3.8856,-3.8901,-3.929,-3.9388,-3.905,-3.6671,-3.5878,-3.5415,-3.2721,-3.2422,-3.2751,-3.1165,-3.1241,-3.16,-3.0313,-3.0043,-3.0178,-3.0298,-2.9415,-2.8633,0.0,0.0,0.0,-2.8562,-2.7974,0.0,0.0,0.0,0.0,0.0,0.0,0.0,0.0,-3.3798,0.0,0.0,0.0,0.0,0.0,-3.6881,-3.6821,-3.721,-3.6761,-3.6641,-3.7015,-3.7045,-3.7045,-3.7045,-3.7045,-3.7045,-3.7045,-3.7045,-3.6791,-3.6297,-3.6297,-3.6297,-3.6297,-3.6297,-3.6567,-3.7045,-3.718,-3.724,-3.724,-3.736,-3.7719,-3.8257,-3.896,-3.9305,-3.9373,-3.9275,-3.9305,-3.9394,-2.5576,-2.6243,-2.6941,-2.76,-2.8274,-2.8936,-2.9579,-2.919,-2.925,-3.0462,-3.1659,-3.2572,-3.3006,-3.139,-3.0971,-3.2677,-2.9427,-2.7764,-2.8936,-2.6737,-2.5375,-2.5375,-2.4238,-2.3879,-2.447,-2.3909,-2.3595,-2.3595,-2.3595,-2.3595,-2.3595,-2.3595,-2.3999,-2.4709,-2.456,-2.5217,-2.6437,-2.5689,-2.7475,-3.0883,-3.1481,-3.1451,-3.1495,-3.5355,-3.6821,-3.7045,-3.8796,-3.9388,-3.9149,-3.7704,-3.7195,-3.6731,-3.4098,-3.4143,-3.4666,-3.2123,-3.2273,-3.2976,-3.1645,-3.1705,-3.1779,-3.0103,-3.0821,-3.1076,-2.7694,0.0,-2.7934,-2.6378,0.0,0.0,0.0,0.0,0.0,0.0,0.0,0.0,-2.8139,-2.9909,-3.1943,-3.3724,0.0,0.0,0.0,-3.4981,-3.4681,-3.6462,-3.4397,-3.3844,-3.5624,-3.5729,-3.5729,-3.5729,-3.5729,-3.5729,-3.5729,-3.5729,-3.5684,-3.5609,-3.5609,-3.5609,-3.5609,-3.5609,-3.5654,-3.5759,-3.6327,-3.6596,-3.6626,-3.718,-3.7449,-3.7584,-3.8242,-3.8886,-3.9313,-3.8736,-3.8901,-3.9334,-2.4889,-2.557,-2.6228,-2.6911,-2.7245,-2.7799,-2.8846,-3.0402,-3.1495,-3.1644,-3.2826,-3.3754,-3.4038,-3.2632,-3.2168,-3.338,-3.127,-2.9624,-2.9056,-2.759,-2.6408,-2.5621,-2.4702,-2.4306,-2.459,-2.3954,-2.3595,-2.3595,-2.3595,-2.3595,-2.3595,-2.3595,-2.4373,-2.5749,-2.5337,-2.6363,-2.8259,-2.6797,-2.7365,-2.9265,-2.9669,-2.9654,-2.9953,-3.507,-3.7015,-3.7135,-3.7958,-3.8257,-3.7988,0.0,-3.5714,0.0,-3.4412,-3.3933,-3.3694,-3.3335,-3.3095,-3.2721,-3.1765,-3.1989,-3.2198,-3.1016,-3.1031,-3.0806,-2.8786,-2.8184,-2.7874,0.0,0.0,0.0,0.0,0.0,0.0,0.0,-2.6811,0.0,0.0,0.0,-2.9535,0.0,0.0,0.0,0.0,0.0,0.0,0.0,-3.3006,-3.2811,-3.4801,-3.4906,-3.51,-3.5489,-3.5504,-3.5504,-3.5504,-3.5504,-3.5504,-3.5504,-3.5504,-3.5504,-3.5504,-3.5504,-3.5504,-3.5519,-3.5804,-3.5923,-3.5938,-3.6193,-3.6522,-3.6911,-3.718,-3.7689,-3.8212,-3.7928,-3.8003,-3.8212,-2.4231,-2.4859,-2.5495,-2.5974,-2.6348,-2.7036,-2.8397,-3.0776,-3.2452,-3.2497,-3.3499,-3.4459,-3.4998,-3.4023,-3.3739,-3.4741,-3.3484,-3.1989,-3.0582,-2.916,-2.7949,-2.6991,-2.5606,-2.4963,-2.5143,-2.4328,-2.3789,-2.3595,-2.3595,-2.3595,-2.3595,-2.3595,-2.4477,-2.6048,-2.5929,-2.726,-2.9517,-2.8049,-2.8229,-2.9502,-2.9624,-2.9998,-3.0941,-3.504,-3.6941,-3.7404,-3.7404,-3.7404,-3.7135,-3.5355,-3.4756,0.0,-3.4354,-3.3679,-3.32,-3.3978,-3.3664,-3.2871,-3.2004,0.0,0.0,0.0,0.0,0.0,0.0,0.0,0.0,0.0,0.0,0.0,0.0,0.0,-2.5809,-2.563,0.0,-2.6033,0.0,-2.6048,0.0,0.0,0.0,0.0,0.0,0.0,0.0,0.0,0.0,-3.1465,-3.3814,-3.4144,-3.4517,-3.519,-3.54,-3.5504,-3.5504,-3.5504,-3.5504,-3.5504,-3.5504,-3.5504,-3.5504,-3.5504,-3.5504,-3.5504,-3.5504,-3.5504,-3.5504,-3.5504,-3.5789,-3.6222,-3.6222,-3.6492,-3.6911,-3.709,-3.727,-3.7389,-2.3625,-2.4156,-2.4649,-2.4664,-2.5749,-2.7036,-2.8397,-2.9235,-3.0387,-3.2273,-3.3095,-3.4262,-3.6207,-3.5818,-3.6163,-3.8063,-3.6477,-3.5355,-3.5295,-3.2228,-3.0387,-3.0342,-2.729,-2.5869,-2.6512,-2.5232,-2.4246,-2.3595,-2.3595,-2.3595,-2.3595,-2.3595,-2.3984,-2.4724,-2.6004,-2.7705,-2.9606,-2.9532,-3.1359,-3.4174,-3.2886,-3.3559,-3.5235,0.0,-3.5759,-3.7404,-3.7404,0.0,0.0,-3.5908,-3.5474,0.0,0.0,0.0,0.0,0.0,0.0,0.0,0.0,0.0,0.0,-2.949,0.0,0.0,0.0,0.0,-2.9172,0.0,0.0,0.0,0.0,-2.7046,-2.6348,-2.5719,-2.563,0.0,0.0,0.0,0.0,0.0,0.0,0.0,0.0,0.0,0.0,0.0,0.0,0.0,-3.2407,-3.3185,-3.3829,-3.4518,-3.516,-3.5504,-3.5504,-3.5504,-3.5504,-3.5504,-3.5504,-3.5504,-3.5504,-3.5504,-3.5504,-3.5504,-3.5504,-3.5504,-3.5504,-3.5504,-3.5519,-3.5534,-3.5534,-3.5549,-3.5639,-3.6282,-3.6896,-3.733,-2.4261,-2.444,-2.4455,-2.4029,-2.4687,-2.6033,-2.8263,-3.0268,-3.2063,-3.3604,-3.4397,-3.5564,-3.7524,-3.7165,-3.721,-3.8287,-3.7793,-3.6866,-3.5594,-3.3604,-3.2287,-3.1854,-2.9101,-2.7694,-2.7919,-2.6617,-2.539,-2.4261,-2.4261,-2.4022,-2.3595,-2.3595,-2.3969,-2.4664,-2.6004,-2.7934,-3.0193,-3.0193,-3.1345,-3.314,0.0,-3.3709,-3.5489,0.0,-3.5564,-3.6148,-3.6148,-3.6148,0.0,-3.5654,-3.5205,-3.4831,-3.4831,-3.4367,-3.3858,-3.4114,-3.3993,0.0,0.0,0.0,-3.3559,-3.115,0.0,0.0,0.0,0.0,0.0,0.0,0.0,0.0,-2.7839,-2.7061,-2.6512,-2.6303,-2.5525,-2.4784,0.0,0.0,0.0,0.0,0.0,0.0,0.0,0.0,0.0,0.0,-2.8757,0.0,0.0,-3.2452,-3.3155,-3.3799,-3.4053,-3.4382,-3.4816,-3.4848,-3.5055,-3.5504,-3.5504,-3.5504,-3.5504,-3.5504,-3.5504,-3.5504,-3.5504,-3.5504,-3.5504,-3.5504,-3.5504,-3.5504,-3.5504,-3.5504,-3.5534,-3.5744,-3.5968,-3.6118,-2.4903,-2.4769,-2.447,-2.4022,-2.4694,-2.6153,-2.8577,-3.0971,-3.2991,-3.4339,-3.528,-3.6507,-3.8197,-3.8003,-3.8033,-3.8691,-3.8751,-3.7928,-3.5983,-3.504,-3.4053,-3.2916,-3.1016,-2.9879,-2.9654,-2.8338,-2.6886,-2.5307,-2.5068,-2.4485,-2.3595,-2.3595,-2.3834,-2.4306,-2.5899,-2.7799,-2.9894,-3.0821,-3.1988,0.0,0.0,-3.4352,0.0,0.0,-3.5504,-3.5504,0.0,-3.5504,-3.5504,-3.5504,-3.5205,-3.4921,-3.537,-3.4921,-3.4292,-3.4726,-3.4547,-3.4158,-3.3903,-3.4189,0.0,-3.1989,-3.1346,0.0,-2.8996,0.0,-2.9325,0.0,0.0,0.0,0.0,-2.7375,-2.6587,-2.6587,-2.5457,-2.453,0.0,-2.4231,0.0,0.0,0.0,0.0,0.0,0.0,-2.7006,-2.8143,-2.7799,0.0,0.0,0.0,-3.2213,-3.3125,-3.338,-3.3709,-3.4159,-3.4128,-3.4352,-3.4801,-3.4801,-3.4921,-3.513,-3.513,-3.5265,-3.5504,-3.5504,-3.5504,-3.5504,-3.5504,-3.5504,-3.5504,-3.5504,-3.5504,-3.5504,-3.5504,-3.5504,-3.5504,-2.5472,-2.5128,-2.4754,-2.4754,-2.5809,-2.7345,-2.9352,-3.127,-3.3006,-3.4384,-3.5731,-3.7015,-3.8302,-3.8437,-3.8706,-3.9328,-3.9388,-3.8631,-3.6746,-3.6567,-3.5684,-3.3769,-3.3006,-3.2273,-3.1615,-3.0313,-2.8693,-2.6692,-2.5959,-2.4941,-2.3655,-2.361,-2.3595,-2.3684,-2.563,-2.7275,-2.8757,-3.13,-3.3185,-3.4563,-3.5235,-3.5504,-3.5504,-3.5504,-3.5504,-3.5504,-3.5504,-3.5504,-3.5504,-3.5504,-3.5504,-3.5504,-3.5504,-3.5504,-3.5489,-3.5459,-3.5459,-3.5295,-3.4638,-3.4459,-3.3963,-3.2034,0.0,0.0,0.0,0.0,-3.0913,0.0,0.0,0.0,0.0,0.0,-2.6701,-2.6632,-2.5555,-2.4455,-2.3744,-2.3655,-2.3655,0.0,0.0,0.0,0.0,-2.5382,-2.5495,-2.736,-2.6378,-2.6826,0.0,0.0,-3.1061,-3.2377,-3.3051,-3.341,-3.344,-3.344,-3.3469,-3.3499,-3.3499,-3.3829,-3.4459,-3.4459,-3.4786,-3.5415,-3.5415,-3.5429,-3.5459,-3.5459,-3.5474,-3.5504,-3.5504,-3.5504,-3.5504,-3.5504,-3.5504,-3.5504,-2.5674,-2.6258,-2.6836,-2.6836,-2.7121,-2.8004,0.0,0.0,0.0,-3.4996,-3.6372,-3.7674,-3.9005,-3.9155,-3.923,-3.9373,-3.9388,-3.9215,-3.8706,-3.7734,-3.6941,-3.6432,-3.4846,-3.3664,-3.3006,-3.1195,-2.9549,-2.8083,-2.6422,-2.5158,-2.4335,-2.3834,-2.3595,-2.364,-2.4649,-2.6398,-2.8682,-2.9849,-3.1928,-3.4563,-3.5235,-3.5504,-3.5504,0.0,-3.5504,-3.5504,-3.5504,-3.5504,-3.5504,-3.5504,-3.5504,-3.5504,-3.5504,-3.5504,-3.54,-3.4891,-3.4773,-3.4592,-3.3933,-3.3754,-3.3499,-3.2512,-3.1629,-3.0851,0.0,0.0,0.0,0.0,0.0,0.0,0.0,0.0,-2.7919,-2.742,-2.6632,-2.5689,-2.45,-2.4335,0.0,-2.4335,0.0,0.0,-2.4343,-2.5405,-2.6093,-2.6108,-2.6731,-2.7615,0.0,0.0,0.0,-3.0986,-3.166,-3.2243,-3.2766,-3.2766,-3.3021,-3.3499,-3.3499,-3.3589,-3.3754,-3.3754,-3.3844,-3.4008,-3.4008,-3.4292,-3.4773,-3.4773,-3.504,-3.5504,-3.5504,-3.5504,-3.5504,-3.5504,-3.5504,-3.5504,-2.6871,-2.7964,-2.8951,-2.925,0.0,0.0,-3.1153,-3.2273,0.0,-3.528,-3.6611,0.0,-3.8452,-3.9065,-3.9388,-3.9388,-3.9388,-3.9134,-3.8571,-3.8377,-3.7898,-3.7045,-3.6207,-3.5459,-3.4816,-3.2841,-3.1031,-2.943,-2.744,-2.5839,-2.459,-2.3924,-2.3595,-2.3625,-2.4291,-2.5756,-2.7844,-2.9654,-3.2003,-3.4533,-3.4906,-3.5235,0.0,-3.5504,-3.5504,-3.5504,-3.5504,-3.5504,-3.5504,-3.5504,-3.5504,-3.5504,-3.5504,-3.5504,-3.537,-3.4713,-3.4503,-3.4354,-3.3679,-3.3499,-3.341,-3.3036,-3.2377,-3.1659,-3.1062,-3.0956,-3.0776,0.0,0.0,0.0,0.0,0.0,0.0,-2.6896,-2.6408,-2.5809,-2.4754,-2.4605,-2.4485,0.0,-2.3834,0.0,-2.3595,-2.4612,-2.5375,-2.5576,-2.6303,0.0,0.0,0.0,0.0,-3.0477,-3.0881,-3.1376,-3.2049,-3.2049,-3.2243,-3.2647,-3.2647,-3.2781,-3.3066,-3.3066,-3.3215,-3.3499,-3.3499,-3.3709,-3.4099,-3.4384,-3.4728,-3.5085,-3.5385,-3.5504,-3.5504,-3.5504,-3.5504,-3.5504,-2.8502,-2.9834,-3.0926,-3.1406,0.0,0.0,0.0,-3.3391,0.0,-3.5561,0.0,-3.7674,-3.7674,-3.8686,-3.9388,-3.9388,-3.9388,-3.8931,-3.7749,-3.8766,-3.8571,-3.6686,-3.712,-3.709,-3.6372,-3.4397,-3.2422,-3.0507,-2.8468,-2.6482,-2.459,-2.3924,-2.3595,-2.3625,-2.4201,0.0,0.0,-3.0135,-3.2617,-3.4384,-3.4474,-3.4891,-3.5504,-3.5504,-3.5504,-3.5504,-3.5504,-3.5504,-3.5504,-3.5504,-3.5504,-3.5504,-3.5504,-3.5444,-3.5235,-3.4578,-3.4324,-3.4099,-3.3425,-3.3245,-3.3245,-3.3245,-3.3245,-3.2946,-3.1765,-3.1511,-3.1331,-3.0761,-3.0208,-3.0163,0.0,0.0,0.0,-2.6198,-2.5929,-2.5674,-2.5068,-2.4844,-2.4515,-2.3939,0.0,0.0,0.0,-2.3729,-2.4223,-2.5367,-2.5457,0.0,0.0,0.0,0.0,-3.0208,-3.0417,-3.0791,-3.1361,0.0,-3.1511,-3.1511,-3.1511,-3.1809,-3.2363,-3.2363,-3.2706,-3.3245,-3.3245,-3.329,-3.341,-3.3978,-3.4354,-3.4578,-3.5235,-3.5504,-3.5504,-3.5504,-3.5504,-3.5504,-2.9397,-3.0896,-3.2004,-3.1585,0.0,-3.4297,-3.5591,-3.5169,-3.5239,-3.6869,-3.8227,-3.9065,-3.9065,-3.9239,-3.9388,-3.9388,-3.9388,0.0,-3.9059,-3.9254,-3.8766,-3.7315,-3.7345,-3.6866,-3.5699,-3.3709,-3.1973,-3.0507,-2.7993,-2.6033,-2.459,-2.3924,-2.3595,-2.361,-2.3729,0.0,-2.76,-3.033,0.0,-3.3709,-3.4294,-3.4891,-3.5504,-3.5504,-3.5504,-3.5504,-3.5504,-3.5504,-3.5504,-3.5504,-3.5504,-3.5504,-3.5504,-3.5115,-3.4548,-3.3858,-3.3275,-3.2706,-3.2034,-3.1854,-3.1854,-3.1854,-3.1854,-3.1795,-3.1555,-3.1511,-3.1466,-3.1346,-3.1241,-3.1062,-3.0746,0.0,0.0,0.0,0.0,0.0,-2.7091,-2.6123,-2.5367,-2.527,-2.4754,-2.4425,0.0,-2.4425,-2.453,-2.4769,-2.4784,0.0,0.0,0.0,0.0,0.0,-2.9953,0.0,0.0,0.0,-3.1511,-3.1511,-3.1511,-3.157,-3.1675,-3.1675,-3.1735,-3.1854,-3.1854,-3.2153,-3.2691,-3.2811,-3.3499,-3.4578,-3.5235,-3.5504,-3.5504,-3.5504,-3.5504,-3.5504,-3.1539,-3.2377,-3.314,-3.3499,0.0,0.0,0.0,-3.5883,-3.5894,-3.7222,-3.7973,-3.8377,-3.8377,-3.897,-3.9388,-3.9388,-3.9388,-3.9388,-3.9388,-3.908,-3.8601,-3.7943,-3.7285,-3.6641,-3.6028,-3.4053,-3.2362,-3.1017,-2.8397,-2.6422,-2.5098,-2.4088,-2.3595,-2.3625,-2.4328,-2.5734,0.0,0.0,0.0,-3.3529,-3.3844,-3.4577,-3.5504,-3.5504,-3.5504,-3.5504,-3.5504,-3.5504,-3.5504,-3.5504,-3.5504,-3.5444,-3.5085,-3.4773,-3.4309,-3.3275,-3.2766,-3.2333,-3.169,-3.1511,-3.1511,-3.1511,-3.1511,-3.1511,-3.1511,-3.1511,-3.1511,-3.1511,-3.1511,-3.1301,-3.0627,-2.9998,0.0,0.0,0.0,0.0,0.0,-2.6737,-2.5869,-2.5158,-2.4799,-2.447,-2.4133,0.0,0.0,0.0,0.0,0.0,0.0,0.0,0.0,0.0,0.0,0.0,0.0,0.0,0.0,-3.1511,-3.1511,-3.1511,-3.1511,-3.1511,-3.1511,-3.1511,-3.1511,-3.169,-3.2004,-3.2348,-3.3095,-3.3993,-3.4337,-3.4681,-3.4966,-3.4966,-3.519,-3.5504,-3.3604,-3.3933,0.0,0.0,-3.5114,-3.5112,-3.6481,-3.6408,-3.6549,-3.7495,-3.7614,-3.7674,-3.7823,-3.8781,-3.9328,-3.9215,-3.92,-3.914,-3.897,-3.8482,-3.8123,-3.7988,-3.703,-3.6417,-3.6282,-3.4592,-3.2991,-3.1511,-2.916,-2.7171,-2.5585,-2.4522,-2.4029,-2.4088,-2.5435,0.0,0.0,0.0,-3.121,-3.3499,-3.3499,-3.4292,-3.5504,-3.5504,-3.5504,-3.5504,-3.5504,-3.5504,-3.5504,-3.5504,-3.5504,-3.5415,-3.4861,-3.4533,-3.4099,-3.3021,-3.2497,-3.2168,-3.1645,-3.1511,-3.1511,-3.1511,-3.1511,-3.1511,-3.1511,-3.1511,-3.1511,-3.1511,-3.1511,-3.1301,-3.0627,-3.0223,0.0,0.0,0.0,0.0,0.0,0.0,-2.6004,-2.4933,-2.4694,-2.4335,-2.367,0.0,0.0,0.0,0.0,0.0,-2.4799,0.0,0.0,0.0,0.0,-2.9086,-3.0088,0.0,-3.1511,-3.1511,-3.1511,-3.1511,-3.1511,-3.1511,-3.1511,-3.1511,-3.1511,-3.1511,-3.1555,-3.2213,-3.2826,-3.3305,-3.344,-3.3814,-3.4294,-3.4294,-3.4607,-3.507,0.0,0.0,0.0,0.0,0.0,-3.7137,-3.728,-3.7291,-3.751,-3.8212,-3.8302,-3.8542,-3.917,-3.9313,-3.917,-3.8542,-3.8482,-3.8242,-3.7644,-3.7539,-3.7255,-3.6686,-3.6552,-3.6207,-3.5609,-3.4801,-3.344,0.0,0.0,-2.8098,0.0,-2.548,-2.542,-2.548,0.0,0.0,0.0,-2.9879,-3.1614,-3.3499,-3.3499,-3.4292,-3.5504,-3.5504,-3.5504,-3.5504,-3.5504,-3.5504,-3.5504,-3.5504,-3.5504,-3.5489,-3.5429,-3.4577,-3.3559,-3.344,-3.2557,-3.1585,-3.1525,-3.1511,-3.1511,-3.1511,-3.1511,-3.1511,-3.1511,-3.1511,-3.1511,-3.1511,-3.1511,-3.1301,-3.0627,-3.0943,-3.0733,0.0,0.0,0.0,0.0,0.0,-2.5659,-2.5516,-2.4963,-2.4335,0.0,-2.3595,0.0,0.0,-2.3655,0.0,0.0,0.0,0.0,-2.6632,0.0,-2.8667,-2.8786,-3.0584,-3.1511,-3.1511,-3.1511,-3.1511,-3.1511,-3.1511,-3.1511,-3.1511,-3.1511,-3.1511,-3.1555,-3.2213,-3.2557,-3.2662,-3.326,-3.3529,-3.3589,-3.3589,-3.3619,-3.3679,0.0,0.0,0.0,0.0,0.0,0.0,0.0,-3.6522,-3.6507,-3.7165,-3.7913,-3.8347,-3.8227,-3.8931,-3.899,-3.7898,-3.8167,-3.8108,-3.7449,-3.706,-3.6746,-3.6492,-3.6103,-3.5774,-3.5504,-3.4831,-3.3709,0.0,0.0,0.0,-2.6806,-2.6378,-2.6408,-2.6851,0.0,-2.8562,-2.9265,-3.0567,-3.1809,-3.2976,-3.3769,-3.4397,-3.4936,-3.5355,-3.5504,-3.5504,-3.5504,-3.5504,-3.5504,-3.5504,-3.5504,-3.5429,-3.5026,-3.4517,-3.3918,-3.314,-3.2512,-3.2004,-3.1615,-3.1511,-3.1511,-3.1511,-3.1511,-3.1511,-3.1511,-3.1511,-3.1391,-3.0972,-3.0612,-3.0283,-2.9998,-2.9849,-2.9654,0.0,0.0,0.0,0.0,0.0,0.0,-2.5659,-2.5008,-2.4335,-2.367,0.0,0.0,0.0,0.0,-2.3834,-2.4373,0.0,0.0,-2.5375,0.0,-2.7784,-2.8592,-3.0133,-3.1092,-3.1511,-3.1511,-3.1511,-3.1511,-3.1511,-3.1511,-3.1511,-3.1511,-3.1511,-3.1525,-3.1795,-3.1899,-3.1929,-3.2183,-3.2557,-3.2901,-3.2901,-3.3155,-3.344,-3.7015,0.0,-3.6956,0.0,-3.6641,-3.5953,-3.6417,-3.5923,-3.5669,-3.6133,-3.715,-3.7719,-3.7434,-3.8257,-3.8377,-3.724,-3.7569,-3.7554,-3.6896,-3.6447,-3.6193,-3.6193,-3.5744,0.0,-3.5504,-3.5026,-3.4218,-3.3095,-3.1509,0.0,-2.8738,-2.7874,-2.7839,0.0,-2.8951,-2.9535,-3.0223,-3.1316,-3.2168,-3.2901,-3.4054,-3.4503,-3.4578,-3.5235,-3.5504,-3.5504,-3.5504,-3.5504,-3.5504,-3.5504,-3.5504,-3.5429,-3.4936,-3.4668,-3.4294,-3.3125,-3.2662,-3.2333,-3.169,-3.1511,-3.1511,-3.1511,-3.1511,-3.1511,-3.1511,-3.1346,-3.1017,-3.0372,-2.9906,-2.9606,-2.9606,-2.9205,-2.8906,-2.9007,0.0,0.0,0.0,-2.7021,0.0,-2.5674,-2.4829,-2.4111,-2.3655,-2.3595,0.0,0.0,0.0,-2.3984,-2.4178,0.0,0.0,0.0,0.0,0.0,0.0,-2.9759,-3.0746,-3.1212,-3.1406,-3.1511,-3.1511,-3.1511,-3.1511,-3.1511,-3.1511,-3.1511,-3.1511,-3.1511,-3.1511,-3.1511,-3.1511,-3.1795,-3.2198,-3.2198,-3.2527,-3.2856,-3.8242,-3.7838,-3.7599,-3.8257,-3.7315,-3.6477,-3.6492,-3.5923,-3.5504,-3.5519,-3.6088,-3.6746,-3.7345,-3.7419,-3.718,-3.6552,-3.6507,-3.6237,-3.5564,-3.5519,-3.5519,0.0,0.0,-3.5504,-3.5504,-3.5489,-3.516,-3.4488,0.0,0.0,-3.1436,-3.0163,-2.9879,-3.0477,-3.0477,-3.0838,-3.1525,-3.2183,-3.2886,-3.3544,-3.4234,-3.4503,-3.4578,-3.5235,-3.5504,-3.5504,-3.5504,-3.5504,-3.5504,-3.5504,-3.5504,-3.5504,-3.5489,-3.5026,-3.4384,-3.3679,-3.3021,-3.2333,-3.169,-3.1511,-3.1511,-3.1511,-3.1511,-3.1511,-3.1511,-3.0972,-3.0342,-2.9756,-2.9621,-2.9606,-2.9606,-2.9592,-2.9157,-2.7839,0.0,0.0,0.0,-2.6033,0.0,-2.5615,-2.4418,-2.361,-2.3595,-2.3595,0.0,0.0,0.0,-2.4874,-2.5555,0.0,0.0,-2.557,-2.6896,0.0,-2.76,-2.952,-3.0507,-3.0522,-3.1182,-3.1511,-3.1511,-3.1511,-3.1511,-3.1511,-3.1511,-3.1511,-3.1511,-3.1511,-3.1511,-3.1511,-3.1511,-3.1511,-3.1511,-3.1511,-3.1525,-3.1525,-3.7045,-3.727,-3.7345,-3.7135,-3.6761,-3.6342,-3.5893,-3.5639,-3.5504,-3.5504,-3.5684,-3.5893,-3.6088,-3.6881,-3.6985,0.0,-3.6237,-3.6207,0.0,-3.5504,-3.5504,-3.5504,-3.5504,-3.5504,-3.5504,-3.5504,-3.516,-3.4503,0.0,0.0,0.0,-3.1779,-3.1689,-3.1884,-3.2347,-3.2422,-3.2243,-3.338,-3.3709,-3.3589,-3.4726,-3.4906,-3.4578,-3.5235,-3.5504,-3.5504,-3.5504,-3.5504,-3.5504,-3.5504,-3.5504,-3.5504,-3.5504,-3.5355,-3.4951,-3.3829,-3.335,-3.2946,-3.1809,-3.1511,-3.1511,-3.1511,-3.1511,-3.1511,-3.1511,-3.0672,-2.9684,-2.9041,-2.8532,-2.8244,-2.8244,-2.8244,-2.8094,-2.766,-2.7779,0.0,-2.7345,0.0,-2.5615,-2.5615,-2.4814,-2.4096,0.0,-2.4433,0.0,0.0,0.0,0.0,0.0,0.0,0.0,0.0,-2.6213,0.0,-2.8263,-2.934,-3.0313,-3.1182,-3.1406,-3.1511,-3.1511,-3.1511,-3.1511,-3.1511,-3.1511,-3.1511,-3.1511,-3.1511,-3.1511,-3.1511,-3.1511,-3.1511,-3.1511,-3.1511,-3.1161,-3.0673,-3.6836,-3.6956,-3.6941,-3.6552,-3.6282,-3.5983,-3.5564,-3.5504,-3.5504,-3.5504,-3.5504,-3.5504,-3.5504,-3.6222,0.0,-3.5579,-3.5878,-3.5953,-3.5534,-3.5504,-3.5504,-3.5504,-3.5504,-3.5504,-3.5504,-3.5504,0.0,-3.4861,-3.4457,-3.4038,-3.3634,-3.338,-3.3245,-3.326,-3.3425,-3.341,-3.3305,-3.4128,-3.4279,-3.3963,-3.5055,-3.51,-3.4578,-3.5235,-3.5504,-3.5504,-3.5504,-3.5504,-3.5504,-3.5504,-3.5504,-3.5504,-3.5504,-3.5504,-3.525,-3.3888,-3.3499,-3.3215,-3.1854,-3.1511,-3.1511,-3.1511,-3.1511,-3.1376,-3.0883,-3.0163,-2.9427,-2.8742,-2.8079,-2.7675,-2.7944,-2.7764,-2.76,-2.76,-2.76,-2.76,-2.76,0.0,-2.5689,0.0,0.0,0.0,0.0,-2.5121,-2.554,0.0,0.0,0.0,0.0,0.0,0.0,-2.5352,-2.6408,0.0,-2.8203,-2.9157,-2.9998,-3.0778,-3.1271,-3.1511,-3.1511,-3.1511,-3.1511,-3.1511,-3.1511,-3.1511,-3.1511,-3.1511,-3.1511,-3.1511,-3.1511,-3.1511,-3.1511,-3.1511,-3.119,-3.0748,-3.7285,-3.6821,-3.6417,0.0,-3.5908,0.0,-3.5504,-3.5504,-3.5504,-3.5504,-3.5504,-3.5504,-3.5504,-3.5504,-3.5504,-3.5504,0.0,0.0,0.0,-3.5504,-3.5504,-3.5504,-3.5504,-3.5504,-3.5504,-3.5504,-3.5504,-3.5504,-3.5504,-3.5504,-3.5489,-3.4846,-3.4548,-3.4474,-3.3888,-3.3948,-3.4503,-3.4563,-3.4578,-3.4638,-3.525,-3.5115,-3.4653,-3.5265,-3.5504,-3.5504,-3.5504,-3.5504,-3.5504,-3.5504,-3.5504,-3.5504,-3.5504,-3.5504,-3.525,-3.3888,-3.3499,-3.3215,-3.1854,-3.1511,-3.1511,-3.1511,-3.1511,-3.1182,-2.9939,-2.9666,-2.9487,-2.8801,-2.8184,-2.7929,-2.8487,-2.8094,-2.7645,-2.76,-2.76,-2.7585,-2.754,-2.6452,-2.5884,0.0,0.0,0.0,0.0,-2.5689,-2.5959,0.0,0.0,0.0,0.0,0.0,-2.5959,-2.6572,-2.7255,-2.7615,-2.766,-2.8963,-2.9651,-2.9756,-3.0913,-3.1511,-3.1511,-3.1511,-3.1511,-3.1511,-3.1511,-3.1511,-3.1511,-3.1511,-3.1511,-3.1511,-3.1511,-3.1511,-3.1511,-3.1511,-3.1438,-3.1322,0.0,0.0,-3.5744,-3.5744,-3.5609,-3.5504,-3.5504,-3.5504,-3.5504,-3.5504,-3.5504,-3.5504,-3.5504,-3.5504,-3.5504,-3.5504,-3.5504,-3.5504,-3.5504,-3.5504,-3.5504,-3.5504,-3.5504,-3.5504,-3.5504,-3.5504,-3.5504,-3.5504,-3.5504,-3.5504,-3.5504,-3.534,-3.4981,-3.4518,-3.4861,-3.4816,-3.4533,-3.504,-3.5265,-3.528,-3.5444,-3.54,-3.528,-3.5444,-3.5504,-3.5504,-3.5504,-3.5504,-3.5504,-3.5504,-3.5504,-3.5504,-3.5504,-3.5504,-3.525,-3.3888,-3.3499,-3.3215,-3.1854,-3.1511,-3.1511,-3.1511,-3.1511,-3.1286,-3.0477,-3.0283,-3.0103,-2.9475,-2.9247,-2.9037,-2.8667,-2.8472,-2.8188,-2.7675,-2.76,-2.742,-2.6926,-2.6557,0.0,0.0,-2.6019,-2.5989,-2.5621,-2.6512,-2.6776,0.0,0.0,0.0,0.0,-2.6437,-2.6437,-2.6587,-2.7255,-2.7854,-2.8353,-2.9202,-3.0088,-3.1047,-3.1361,-3.1511,-3.1511,-3.1511,-3.1511,-3.1511,-3.1511,-3.1511,-3.1511,-3.1511,-3.1511,-3.1511,-3.1511,-3.1511,-3.1511,-3.1511,-3.0673,-2.9597,-3.5504,-3.5504,-3.5504,-3.5504,-3.5504,-3.5504,-3.5504,-3.5504,-3.5504,-3.5504,-3.5504,-3.5504,-3.5504,-3.5504,-3.5504,-3.5504,-3.5504,-3.5504,-3.5504,-3.5504,-3.5504,-3.5504,-3.5504,-3.5504,-3.5504,-3.5504,-3.5504,-3.5504,-3.5504,-3.5504,-3.5504,-3.5504,-3.531,-3.4966,-3.534,-3.5295,-3.4966,-3.5355,-3.5504,-3.5504,-3.5504,-3.5504,-3.5504,-3.5504,-3.5504,-3.5504,-3.5504,-3.5504,-3.5504,-3.5504,-3.5504,-3.5504,-3.5504,-3.5504,-3.525,-3.3888,-3.3499,-3.3215,-3.1854,-3.1511,-3.1511,-3.1511,-3.1511,-3.1316,-3.0657,-3.0507,-3.0417,-3.0073,-2.9774,-2.9502,-2.9116,-2.8801,-2.8368,-2.7705,-2.76,-2.7465,-2.7121,-2.6806,0.0,-2.6512,-2.6557,-2.6572,-2.6512,-2.718,-2.73,-2.6557,-2.6866,0.0,-2.7061,-2.7061,-2.7061,-2.7061,-2.7405,-2.7779,-2.8128,-2.9112,-3.0238,-3.1511,-3.1511,-3.1511,-3.1511,-3.1511,-3.1511,-3.1511,-3.1511,-3.1511,-3.1511,-3.1511,-3.1511,-3.1511,-3.1511,-3.1511,-3.1511,-3.1511,-3.0673,-2.9597,-3.5504,-3.5504,-3.5504,-3.5504,-3.5504,-3.5504,-3.5504,-3.5504,-3.5504,-3.5504,-3.5504,-3.5504,-3.5504,-3.5504,-3.5504,-3.5504,-3.5504,-3.5504,-3.5504,-3.5504,-3.5504,-3.5504,-3.5504,-3.5504,-3.5504,-3.5504,-3.5504,-3.5504,-3.5504,-3.5504,-3.5504,-3.5504,-3.5504,-3.5504,-3.5504,-3.5504,-3.5504,-3.5504,-3.5504,-3.5504,-3.5504,-3.5504,-3.5504,-3.5504,-3.5504,-3.5504,-3.5504,-3.5504,-3.5504,-3.5504,-3.5504,-3.5504,-3.5504,-3.5504,-3.5265,-3.4008,-3.3574,-3.3215,-3.1854,-3.1511,-3.1511,-3.1511,-3.1511,-3.1346,-3.0791,-3.0657,-3.0657,-3.0657,-3.0238,-2.9849,-2.9744,-2.919,-2.8532,-2.7869,-2.766,-2.7555,-2.7465,0.0,-2.6926,-2.739,-2.7046,-2.6986,-2.754,-2.76,-2.76,-2.76,-2.76,-2.76,-2.76,-2.76,-2.76,-2.76,-2.76,-2.7645,-2.775,-2.8888,-3.0088,-3.1346,-3.1346,-3.1406,-3.1511,-3.1406,-3.1406,-3.1496,-3.1391,-3.1406,-3.1511,-3.1511,-3.1511,-3.1511,-3.1511,-3.1511,-3.1511,-3.1511,-3.0999,-3.0269,-3.5504,-3.5504,-3.5504,-3.5504,-3.5504,-3.5504,-3.5504,-3.5504,-3.5504,-3.5504,-3.5504,-3.5504,-3.5504,-3.5504,-3.5504,-3.5504,-3.5504,-3.5504,-3.5504,-3.5504,-3.5504,-3.5504,-3.5504,-3.5504,-3.5504,-3.5504,-3.5504,-3.5504,-3.5504,-3.5504,-3.5504,-3.5504,-3.5504,-3.5504,-3.5504,-3.5504,-3.5504,-3.5504,-3.5504,-3.5504,-3.5504,-3.5504,-3.5504,-3.5504,-3.5504,-3.5504,-3.5504,-3.5504,-3.5504,-3.5504,-3.5504,-3.5504,-3.5504,-3.5504,-3.5355,-3.4562,-3.3918,-3.3215,-3.1854,-3.1511,-3.1511,-3.1511,-3.1511,-3.1481,-3.1376,-3.1346,-3.1346,-3.1346,-3.1271,-3.1017,-3.0462,-2.9849,-2.922,-2.8547,-2.7974,-2.7405,-2.6811,0.0,-2.727,-2.6821,-2.7165,-2.748,-2.7585,-2.76,-2.76,-2.76,-2.76,-2.76,-2.76,-2.76,-2.76,-2.76,-2.76,-2.7869,-2.8442,-2.8652,-2.94,-3.0672,-3.0672,-3.0943,-3.1481,-3.0898,-3.0957,-3.1466,-3.0883,-3.0972,-3.1511,-3.1511,-3.1511,-3.1511,-3.1511,-3.1511,-3.1511,-3.1511,-3.0999,-3.0208,-3.5504,-3.5504,-3.5504,-3.5504,-3.5504,-3.5504,-3.5504,-3.5504,-3.5504,-3.5504,-3.5504,-3.5504,-3.5504,-3.5504,-3.5504,-3.5504,-3.5504,-3.5504,-3.5504,-3.5504,-3.5504,-3.5504,-3.5504,-3.5504,-3.5504,-3.5504,-3.5504,-3.5504,-3.5504,-3.5504,-3.5504,-3.5504,-3.5504,-3.5504,-3.5504,-3.5504,-3.5504,-3.5504,-3.5504,-3.5504,-3.5504,-3.5504,-3.5504,-3.5504,-3.5504,-3.5504,-3.5504,-3.5504,-3.5504,-3.5504,-3.5504,-3.5504,-3.5504,-3.5504,-3.537,-3.4713,-3.3769,-3.2766,-3.1765,-3.1511,-3.1511,-3.1511,-3.1511,-3.1511,-3.1511,-3.1511,-3.1511,-3.1511,-3.1511,-3.1301,-3.0627,-2.9998,-2.9517,-2.9175,-2.8274,0.0,0.0,-2.7645,-2.748,-2.718,-2.7405,-2.76,-2.76,-2.76,-2.76,-2.76,-2.76,-2.76,-2.76,-2.76,-2.76,-2.76,-2.76,-2.7929,-2.8592,-2.8951,-2.9594,-3.0507,-3.0881,-3.1197,-3.1481,-3.0821,-3.0881,-3.1466,-3.0806,-3.0896,-3.1511,-3.1511,-3.1511,-3.1511,-3.1511,-3.1248,-3.0837,-3.0837,-3.0011,-2.8844,-3.5504,-3.5504,-3.5504,-3.5504,-3.5504,-3.5504,-3.5504,-3.5504,-3.5504,-3.5504,-3.5504,-3.5504,-3.5504,-3.5504,-3.5504,-3.5504,-3.5504,-3.5504,-3.5504,-3.5504,-3.5504,-3.5504,-3.5504,-3.5504,-3.5504,-3.5504,-3.5504,-3.5504,-3.5504,-3.5504,-3.5504,-3.5504,-3.5504,-3.5504,-3.5504,-3.5504,-3.5504,-3.5504,-3.5504,-3.5504,-3.5504,-3.5504,-3.5504,-3.5504,-3.5504,-3.5504,-3.5504,-3.5504,-3.5504,-3.5504,-3.5504,-3.5504,-3.5504,-3.5504,-3.54,-3.4876,-3.3784,-3.2557,-3.172,-3.1511,-3.1511,-3.1511,-3.1511,-3.1511,-3.1511,-3.1511,-3.1511,-3.1511,-3.1511,-3.1346,-3.0836,-3.0223,-2.9744,-2.9636,0.0,0.0,0.0,-2.7929,-2.76,-2.76,-2.76,-2.76,-2.76,-2.76,-2.76,-2.76,-2.76,-2.76,-2.76,-2.76,-2.76,-2.76,-2.76,-2.7854,-2.8353,-2.9026,-2.9669,-3.0298,-3.0821,-3.1122,-3.1241,-3.0432,-3.0507,-3.1227,-3.037,-3.0448,-3.1219,-3.0999,-3.0925,-3.0925,-3.0925,-3.0554,-3.0011,-3.0011,-2.916,-2.7953,-3.5504,-3.5504,-3.5504,-3.5504,-3.5504,-3.5504,-3.5504,-3.5504,-3.5504,-3.5504,-3.5504,-3.5504,-3.5504,-3.5504,-3.5504,-3.5504,-3.5504,-3.5504,-3.5504,-3.5504,-3.5504,-3.5504,-3.5504,-3.5504,-3.5504,-3.5504,-3.5504,-3.5504,-3.5504,-3.5504,-3.5504,-3.5504,-3.5504,-3.5504,-3.5504,-3.5504,-3.5504,-3.5504,-3.5504,-3.5504,-3.5504,-3.5504,-3.5504,-3.5504,-3.5504,-3.5504,-3.5504,-3.5504,-3.5504,-3.5504,-3.5504,-3.5504,-3.5504,-3.5504,-3.5489,-3.5444,-3.4472,-3.314,-3.1854,-3.1511,-3.1511,-3.1511,-3.1511,-3.1511,-3.1511,-3.1511,-3.1511,-3.1511,-3.1511,-3.1481,-3.1436,-3.0896,-3.0253,-2.9696,0.0,0.0,-2.775,-2.763,-2.76,-2.76,-2.76,-2.76,-2.76,-2.76,-2.76,-2.76,-2.76,-2.76,-2.76,-2.76,-2.76,-2.76,-2.76,-2.7615,-2.7675,-2.8323,-2.9011,-2.9681,-2.9726,-3.0028,-3.0537,-2.9295,-2.9415,-3.0481,-2.9085,-2.9204,-3.0329,-2.9504,-2.9192,-2.9192,-2.9192,-2.916,-2.9097,-2.9097,-2.9002,-2.878,-3.5504,-3.5504,-3.5504,-3.5504,-3.5504,-3.5504,-3.5504,-3.5504,-3.5504,-3.5504,-3.5504,-3.5504,-3.5504,-3.5504,-3.5504,-3.5504,-3.5504,-3.5504,-3.5504,-3.5504,-3.5504,-3.5504,-3.5504,-3.5504,-3.5504,-3.5504,-3.5504,-3.5504,-3.5504,-3.5504,-3.5504,-3.5504,-3.5504,-3.5504,-3.5504,-3.5504,-3.5504,-3.5504,-3.5504,-3.5504,-3.5504,-3.5504,-3.5504,-3.5504,-3.5504,-3.5504,-3.5504,-3.5504,-3.5504,-3.5504,-3.5504,-3.5504,-3.5504,-3.5504,-3.534,-3.4502,-3.3903,-3.3215,-3.1854,-3.1511,-3.1511,-3.1511,-3.1511,-3.1511,-3.1511,-3.1511,-3.1511,-3.1511,-3.1511,-3.1511,-3.1511,-3.0657,-2.9983,-3.0133,0.0,-2.8049,-2.8188,-2.7869,-2.76,-2.76,-2.76,-2.76,-2.76,-2.76,-2.76,-2.76,-2.76,-2.76,-2.76,-2.76,-2.76,-2.76,-2.76,-2.76,-2.76,-2.8248,-2.8727,-2.8981,-2.9412,-2.9726,-2.9909,-2.9011,-2.9086,-2.9894,-2.8897,-2.9009,-2.9835,-2.9507,-2.9377,-2.9349,-2.9223,-2.8851,-2.8367,-2.8228,-2.7887,-2.7365,-3.5504,-3.5504,-3.5504,-3.5504,-3.5504,-3.5504,-3.5504,-3.5504,-3.5504,-3.5504,-3.5504,-3.5504,-3.5504,-3.5504,-3.5504,-3.5504,-3.5504,-3.5504,-3.5504,-3.5504,-3.5504,-3.5504,-3.5504,-3.5504,-3.5504,-3.5504,-3.5504,-3.5504,-3.5504,-3.5504,-3.5504,-3.5504,-3.5504,-3.5504,-3.5504,-3.5504,-3.5504,-3.5504,-3.5504,-3.5504,-3.5504,-3.5504,-3.5504,-3.5504,-3.5504,-3.5504,-3.5504,-3.5504,-3.5504,-3.5504,-3.5504,-3.5504,-3.5504,-3.5504,-3.525,-3.3888,-3.3499,-3.3215,-3.1854,-3.1511,-3.1511,-3.1511,-3.1511,-3.1511,-3.1511,-3.1511,-3.1511,-3.1511,-3.1511,-3.1436,-3.1212,-3.0477,-2.9879,-2.9894,-2.8771,-2.8004,-2.8248,-2.7899,-2.76,-2.76,-2.76,-2.76,-2.76,-2.76,-2.76,-2.76,-2.76,-2.76,-2.76,-2.76,-2.76,-2.76,-2.76,-2.76,-2.76,-2.8248,-2.8607,-2.8607,-2.9056,-2.9307,-2.925,-2.8577,-2.8637,-2.925,-2.8518,-2.8574,-2.9167,-2.8651,-2.8439,-2.8411,-2.8038,-2.751,-2.6988,-2.6824,-2.6447,-2.5921,-3.5504,-3.5504,-3.5504,-3.5504,-3.5504,-3.5504,-3.5504,-3.5504,-3.5504,-3.5504,-3.5504,-3.5504,-3.5504,-3.5504,-3.5504,-3.5504,-3.5504,-3.5504,-3.5504,-3.5504,-3.5504,-3.5504,-3.5504,-3.5504,-3.5504,-3.5504,-3.5504,-3.5504,-3.5504,-3.5504,-3.5504,-3.5504,-3.5504,-3.5504,-3.5504,-3.5504,-3.5504,-3.5504,-3.5504,-3.5504,-3.5504,-3.5504,-3.5504,-3.5504,-3.5504,-3.5504,-3.5504,-3.5504,-3.5504,-3.5504,-3.5504,-3.5504,-3.5504,-3.5504,-3.525,-3.3903,-3.3499,-3.3215,-3.1869,-3.1511,-3.1511,-3.1511,-3.1511,-3.1511,-3.1511,-3.1511,-3.1511,-3.1511,-3.1511,-3.1301,-3.0627,-3.0507,-3.0073,-2.8801,-2.8607,-2.8353,-2.769,-2.76,-2.76,-2.76,-2.76,-2.76,-2.76,-2.76,-2.76,-2.76,-2.76,-2.76,-2.76,-2.76,-2.76,-2.76,-2.76,-2.76,-2.76,-2.8248,-2.8592,-2.8592,-2.8592,-2.8592,-2.8562,-2.7899,-2.7974,-2.854,-2.769,-2.768,-2.8169,-2.6553,-2.5893,-2.5831,-2.5103,-2.4808,-2.4808,-2.4788,-2.4788,-2.4788,-3.5504,-3.5504,-3.5504,-3.5504,-3.5504,-3.5504,-3.5504,-3.5504,-3.5504,-3.5504,-3.5504,-3.5504,-3.5504,-3.5504,-3.5504,-3.5504,-3.5504,-3.5504,-3.5504,-3.5504,-3.5504,-3.5504,-3.5504,-3.5504,-3.5504,-3.5504,-3.5504,-3.5504,-3.5504,-3.5504,-3.5504,-3.5504,-3.5504,-3.5504,-3.5504,-3.5504,-3.5504,-3.5504,-3.5504,-3.5504,-3.5504,-3.5504,-3.5504,-3.5504,-3.5504,-3.5504,-3.5504,-3.5504,-3.5504,-3.5504,-3.5504,-3.5504,-3.5504,-3.5504,-3.5325,-3.4442,-3.3858,-3.3305,-3.2452,-3.1854,-3.1511,-3.1511,-3.1511,-3.1511,-3.1511,-3.1511,-3.1511,-3.1511,-3.1511,-3.1301,-3.0627,-3.0148,-2.9579,-2.8742,-2.8214,-2.7839,-2.763,-2.76,-2.76,-2.76,-2.76,-2.76,-2.76,-2.76,-2.76,-2.76,-2.76,-2.76,-2.76,-2.76,-2.76,-2.76,-2.76,-2.76,-2.76,-2.7809,-2.7899,-2.7899,-2.7899,-2.7899,-2.7899,-2.769,-2.7705,-2.7874,-2.7613,-2.7613,-2.7738,-2.673,-2.6315,-2.6218,-2.5362,-2.5,-2.4991,-2.4861,-2.4788,-2.4738,-3.5504,-3.5504,-3.5504,-3.5504,-3.5504,-3.5504,-3.5504,-3.5504,-3.5504,-3.5504,-3.5504,-3.5504,-3.5504,-3.5504,-3.5504,-3.5504,-3.5504,-3.5504,-3.5504,-3.5504,-3.5504,-3.5504,-3.5504,-3.5504,-3.5504,-3.5504,-3.5504,-3.5504,-3.5504,-3.5504,-3.5504,-3.5504,-3.5504,-3.5504,-3.5504,-3.5504,-3.5504,-3.5504,-3.5504,-3.5504,-3.5504,-3.5504,-3.5504,-3.5504,-3.5504,-3.5504,-3.5504,-3.5504,-3.5504,-3.5504,-3.5504,-3.5504,-3.5504,-3.5504,-3.537,-3.4713,-3.4219,-3.3679,-3.2766,-3.2183,-3.1824,-3.157,-3.1511,-3.1511,-3.1511,-3.1511,-3.1511,-3.1511,-3.1511,-3.1212,-3.0313,-2.9834,-2.9307,-2.8378,-2.7869,-2.76,-2.76,-2.76,-2.76,-2.76,-2.76,-2.76,-2.76,-2.76,-2.76,-2.76,-2.76,-2.76,-2.76,-2.76,-2.76,-2.76,-2.76,-2.76,-2.76,-2.76,-2.76,-2.76,-2.76,-2.76,-2.76,-2.76,-2.76,-2.76,-2.76,-2.76,-2.7534,-2.68,-2.6336,-2.5988,-2.5128,-2.4599,-2.4292,-2.4172,-2.4123,-2.4073,-3.5504,-3.5504,-3.5504,-3.5504,-3.5504,-3.5504,-3.5504,-3.5504,-3.5504,-3.5504,-3.5504,-3.5504,-3.5504,-3.5504,-3.5504,-3.5504,-3.5504,-3.5504,-3.5504,-3.5504,-3.5504,-3.5504,-3.5504,-3.5504,-3.5504,-3.5504,-3.5504,-3.5504,-3.5504,-3.5504,-3.5504,-3.5504,-3.5504,-3.5504,-3.5504,-3.5504,-3.5504,-3.5504,-3.5504,-3.5504,-3.5504,-3.5504,-3.5504,-3.5504,-3.5504,-3.5504,-3.5504,-3.5504,-3.5504,-3.5504,-3.5504,-3.5504,-3.5504,-3.5504,-3.5385,-3.4788,-3.4518,-3.4128,-3.2931,-3.2512,-3.2243,-3.1645,-3.1511,-3.1511,-3.1511,-3.1511,-3.1511,-3.1511,-3.1511,-3.1122,-2.9894,-2.9651,-2.9187,-2.7899,-2.7645,-2.76,-2.76,-2.76,-2.76,-2.76,-2.76,-2.76,-2.76,-2.76,-2.76,-2.76,-2.76,-2.76,-2.76,-2.76,-2.76,-2.76,-2.76,-2.76,-2.76,-2.76,-2.76,-2.76,-2.76,-2.76,-2.76,-2.76,-2.76,-2.76,-2.7524,-2.7484,-2.7433,-2.6628,-2.5906,-2.5231,-2.4481,-2.3738,-2.3108,-2.3108,-2.3108,-2.3108,-3.5504,-3.5504,-3.5504,-3.5504,-3.5504,-3.5504,-3.5504,-3.5504,-3.5504,-3.5504,-3.5504,-3.5504,-3.5504,-3.5504,-3.5504,-3.5504,-3.5504,-3.5504,-3.5504,-3.5504,-3.5504,-3.5504,-3.5504,-3.5504,-3.5504,-3.5504,-3.5504,-3.5504,-3.5504,-3.5504,-3.5504,-3.5504,-3.5504,-3.5504,-3.5504,-3.5504,-3.5504,-3.5504,-3.5504,-3.5504,-3.5504,-3.5504,-3.5504,-3.5504,-3.5504,-3.5504,-3.5504,-3.5504,-3.5504,-3.5504,-3.5504,-3.5504,-3.5504,-3.5504,-3.5474,-3.5325,-3.4532,-3.3649,-3.3365,-3.2527,-3.169,-3.154,-3.1511,-3.1511,-3.1511,-3.1511,-3.1511,-3.1511,-3.1511,-3.1256,-3.0447,-2.9909,-2.9337,-2.8502,-2.7944,-2.76,-2.76,-2.76,-2.76,-2.76,-2.76,-2.76,-2.76,-2.76,-2.76,-2.76,-2.76,-2.76,-2.76,-2.76,-2.76,-2.76,-2.76,-2.76,-2.76,-2.76,-2.76,-2.76,-2.76,-2.76,-2.76,-2.76,-2.76,-2.7575,-2.6982,-2.6747,-2.6642,-2.5315,-2.4681,-2.4452,-2.3679,-2.3245,-2.3108,-2.3108,-2.3108,-2.3108,-3.5444,-3.5235,-3.5115,-3.5444,-3.5504,-3.5504,-3.5504,-3.5504,-3.5504,-3.5504,-3.5504,-3.5504,-3.5504,-3.5504,-3.5504,-3.5504,-3.5504,-3.5504,-3.5504,-3.5504,-3.5504,-3.5504,-3.5504,-3.5504,-3.5504,-3.5504,-3.5504,-3.5504,-3.5504,-3.5504,-3.5504,-3.5504,-3.5504,-3.5504,-3.5504,-3.5504,-3.5504,-3.5504,-3.5504,-3.5504,-3.5504,-3.5504,-3.5504,-3.5504,-3.5504,-3.5504,-3.5504,-3.5504,-3.5504,-3.5504,-3.5504,-3.5504,-3.5504,-3.5504,-3.5444,-3.5115,-3.4517,-3.3829,-3.32,-3.2497,-3.1899,-3.1585,-3.1511,-3.1511,-3.1511,-3.1511,-3.1511,-3.1511,-3.1511,-3.1212,-3.0253,-2.9804,-2.9292,-2.8289,-2.7839,-2.76,-2.76,-2.76,-2.76,-2.76,-2.76,-2.76,-2.76,-2.76,-2.76,-2.76,-2.76,-2.76,-2.76,-2.76,-2.76,-2.76,-2.76,-2.76,-2.76,-2.76,-2.76,-2.76,-2.76,-2.76,-2.76,-2.76,-2.76,-2.7575,-2.7188,-2.7008,-2.6956,-2.6174,-2.5467,-2.4781,-2.4352,-2.3754,-2.3108,-2.3108,-2.3108,-2.3108,-3.5055,-3.4696,-3.4487,-3.5055,-3.516,-3.5205,-3.531,-3.5325,-3.537,-3.5489,-3.5504,-3.5504,-3.5504,-3.5504,-3.5504,-3.5504,-3.5504,-3.5504,-3.5504,-3.5504,-3.5504,-3.5504,-3.5504,-3.5504,-3.5504,-3.5504,-3.5504,-3.5504,-3.5504,-3.5504,-3.5504,-3.5504,-3.5504,-3.5504,-3.5504,-3.5504,-3.5504,-3.5504,-3.5504,-3.5504,-3.5504,-3.5504,-3.5504,-3.5504,-3.5504,-3.5504,-3.5504,-3.5504,-3.5504,-3.5504,-3.5504,-3.5504,-3.5504,-3.5504,-3.5385,-3.4816,-3.4518,-3.4099,-3.2976,-3.2512,-3.2183,-3.1645,-3.1511,-3.1511,-3.1511,-3.1511,-3.1511,-3.1511,-3.1511,-3.1137,-2.9968,-2.9681,-2.9202,-2.7974,-2.7675,-2.76,-2.76,-2.76,-2.76,-2.76,-2.76,-2.76,-2.76,-2.76,-2.76,-2.76,-2.76,-2.76,-2.76,-2.76,-2.76,-2.76,-2.76,-2.76,-2.76,-2.76,-2.76,-2.76,-2.76,-2.76,-2.76,-2.76,-2.76,-2.76,-2.7473,-2.7408,-2.7382,-2.7137,-2.6322,-2.5203,-2.5063,-2.4237,-2.3108,-2.3108,-2.3108,-2.3108,-3.3739,-3.3694,-3.3649,-3.3754,-3.3769,-3.3963,-3.4563,-3.4653,-3.4831,-3.5429,-3.5504,-3.5504,-3.5504,-3.5504,-3.5504,-3.5504,-3.5504,-3.5504,-3.5504,-3.5504,-3.5504,-3.5504,-3.5504,-3.5504,-3.5504,-3.5504,-3.5504,-3.5504,-3.5504,-3.5504,-3.5504,-3.5504,-3.5504,-3.5504,-3.5504,-3.5504,-3.5504,-3.5504,-3.5504,-3.5504,-3.5504,-3.5504,-3.5504,-3.5504,-3.5504,-3.5504,-3.5504,-3.5504,-3.5504,-3.5504,-3.5504,-3.5504,-3.5504,-3.5504,-3.5489,-3.5385,-3.4532,-3.3589,-3.341,-3.2527,-3.1615,-3.1525,-3.1511,-3.1511,-3.1511,-3.1511,-3.1511,-3.1511,-3.1511,-3.1271,-3.0522,-2.9939,-2.9367,-2.8592,-2.7989,-2.76,-2.76,-2.76,-2.76,-2.76,-2.76,-2.76,-2.76,-2.76,-2.76,-2.76,-2.76,-2.76,-2.76,-2.76,-2.76,-2.76,-2.76,-2.76,-2.76,-2.76,-2.76,-2.76,-2.76,-2.76,-2.76,-2.76,-2.76,-2.756,-2.693,-2.6642,-2.6563,-2.5273,-2.4624,-2.4366,-2.3679,-2.3275,-2.3108,-2.3108,-2.3108,-2.3108,-3.3425,-3.32,-3.3066,-3.3425,-3.3499,-3.3724,-3.4414,-3.4503,-3.4726,-3.5415,-3.5504,-3.5504,-3.5504,-3.5504,-3.5504,-3.5504,-3.5504,-3.5504,-3.5504,-3.5504,-3.5504,-3.5504,-3.5504,-3.5504,-3.5504,-3.5504,-3.5504,-3.5504,-3.5504,-3.5504,-3.5504,-3.5504,-3.5504,-3.5504,-3.5504,-3.5504,-3.5504,-3.5504,-3.5504,-3.5504,-3.5504,-3.5504,-3.5504,-3.5504,-3.5504,-3.5504,-3.5504,-3.5504,-3.5504,-3.5504,-3.5504,-3.5504,-3.5504,-3.5504,-3.5429,-3.504,-3.4247,-3.341,-3.3036,-3.2228,-3.1511,-3.1511,-3.1511,-3.1511,-3.1511,-3.1511,-3.1511,-3.1511,-3.1511,-3.1182,-3.0178,-2.9786,-2.9262,-2.8214,-2.7794,-2.76,-2.76,-2.76,-2.76,-2.76,-2.76,-2.76,-2.76,-2.76,-2.76,-2.76,-2.76,-2.76,-2.76,-2.76,-2.76,-2.76,-2.76,-2.76,-2.76,-2.76,-2.76,-2.76,-2.76,-2.76,-2.76,-2.76,-2.76,-2.7575,-2.7255,-2.6878,-2.6457,-2.5783,-2.5035,-2.4263,-2.3914,-2.3514,-2.3108,-2.3108,-2.3108,-2.3108]},{"header":{"parameterUnit":"m.s-1","parameterCategory":1,"la1":30.6,"la2":28.766,"lo1":-90.7593,"lo2":-88.6598,"dy":0.0162,"dx":0.0183,"nx":116,"ny":114,"refTime":"2024-06-22T18:00:00:Z","depth":0,"parameterNumber":3,"parameterNumberName":"V-component_of_WINDS"},"data":[0.0,0.0,0.0,0.0,0.0,0.0,0.0,0.0,0.0,0.0,0.0,0.0,0.0,0.0,0.0,0.0,0.0,0.0,0.0,0.0,0.0,0.0,0.0,0.0,0.0,0.0,0.0,0.0,0.0,0.0,0.0,0.0,0.0,0.0,0.0,0.0,0.0,0.0,0.0,0.0,0.0,0.0,0.0,0.0,0.0,0.0,0.0,0.0,0.0,0.0,0.0,0.0,0.0,0.0,0.0,0.0,0.0,0.0,0.0,0.0,0.0,0.0,0.0,0.0,0.0,0.0,0.0,0.0,0.0,0.0,0.0,0.0,0.0,0.0,0.0,0.0,0.0,0.0,0.0,0.0,0.0,0.0,0.0,0.0,0.0,0.0,0.0,0.0,0.0,0.0,0.0,0.0,0.0,0.0,0.0,0.0,0.0,0.0,0.0,0.0,0.0,0.0,0.0,0.0,0.0,0.0,0.0,0.0,0.0,0.0,0.0,0.0,0.0,0.0,0.0,0.0,0.0,0.0,0.0,0.0,0.0,0.0,0.0,0.0,0.0,0.0,0.0,0.0,0.0,0.0,0.0,0.0,0.0,0.0,0.0,0.0,0.0,0.0,0.0,0.0,0.0,0.0,0.0,0.0,0.0,0.0,0.0,0.0,0.0,0.0,0.0,0.0,0.0,0.0,0.0,0.0,0.0,0.0,0.0,0.0,0.0,0.0,0.0,0.0,0.0,0.0,0.0,0.0,0.0,0.0,0.0,0.0,0.0,0.0,0.0,0.0,0.0,0.0,0.0,0.0,0.0,0.0,0.0,0.0,0.0,0.0,0.0,0.0,0.0,0.0,0.0,0.0,0.0,0.0,0.0,0.0,0.0,0.0,0.0,0.0,0.0,0.0,0.0,0.0,0.0,0.0,0.0,0.0,0.0,0.0,0.0,0.0,0.0,0.0,0.0,0.0,0.0,0.0,0.0,0.0,0.0,0.0,0.0,0.0,0.0,0.0,0.0,0.0,0.0,0.0,0.0,0.0,0.0,0.0,0.0,0.0,0.0,0.0,0.0,0.0,0.0,0.0,0.0,0.0,0.0,0.0,0.0,0.0,0.0,0.0,0.0,0.0,0.0,0.0,0.0,0.0,0.0,0.0,0.0,0.0,0.0,0.0,0.0,0.0,0.0,0.0,0.0,0.0,0.0,0.0,0.0,0.0,0.0,0.0,0.0,0.0,0.0,0.0,0.0,0.0,0.0,0.0,0.0,0.0,0.0,0.0,0.0,0.0,0.0,0.0,0.0,0.0,0.0,0.0,0.0,0.0,0.0,0.0,0.0,0.0,0.0,0.0,0.0,0.0,0.0,0.0,0.0,0.0,0.0,0.0,0.0,0.0,0.0,0.0,0.0,0.0,0.0,0.0,0.0,0.0,0.0,0.0,0.0,0.0,0.0,0.0,0.0,0.0,0.0,0.0,0.0,0.0,0.0,0.0,0.0,0.0,0.0,0.0,0.0,0.0,0.0,0.0,0.0,0.0,0.0,0.0,0.0,0.0,0.0,0.0,0.0,0.0,0.0,0.0,0.0,0.0,0.0,0.0,0.0,0.0,0.0,0.0,0.0,0.0,0.0,0.0,0.0,0.0,0.0,0.0,0.0,0.0,0.0,0.0,0.0,0.0,0.0,0.0,0.0,0.0,0.0,0.0,0.0,0.0,0.0,0.0,0.0,0.0,0.0,0.0,0.0,0.0,0.0,0.0,0.0,0.0,0.0,0.0,0.0,0.0,0.0,0.0,0.0,0.0,0.0,0.0,0.0,0.0,0.0,0.0,0.0,0.0,0.0,0.0,0.0,0.0,0.0,0.0,0.0,0.0,0.0,0.0,0.0,0.0,0.0,0.0,0.0,0.0,0.0,0.0,0.0,0.0,0.0,0.0,0.0,0.0,0.0,0.0,0.0,0.0,0.0,0.0,0.0,0.0,0.0,0.0,0.0,0.0,0.0,0.0,0.0,0.0,0.0,0.0,0.0,0.0,0.0,0.0,0.0,0.0,0.0,0.0,0.0,0.0,0.0,0.0,0.0,0.0,0.0,0.0,0.0,0.0,0.0,0.0,0.0,0.0,0.0,0.0,0.0,0.0,0.0,0.0,0.0,0.0,0.0,0.0,0.0,0.0,0.0,0.0,0.0,0.0,0.0,0.0,0.0,0.0,0.0,0.0,0.0,0.0,0.0,0.0,0.0,0.0,0.0,0.0,0.0,0.0,0.0,0.0,0.0,0.0,0.0,0.0,0.0,0.0,0.0,0.0,0.0,0.0,0.0,0.0,0.0,0.0,0.0,0.0,0.0,0.0,0.0,0.0,0.0,0.0,0.0,0.0,0.0,0.0,0.0,0.0,0.0,0.0,0.0,0.0,0.0,0.0,0.0,0.0,0.0,0.0,0.0,0.0,0.0,0.0,0.0,0.0,0.0,0.0,0.0,0.0,0.0,0.0,0.0,0.0,0.0,0.0,0.0,0.0,0.0,0.0,0.0,0.0,0.0,0.0,0.0,0.0,0.0,0.0,0.0,0.0,0.0,0.0,0.0,0.0,0.0,0.0,0.0,0.0,0.0,0.0,0.0,0.0,0.0,0.0,0.0,0.0,0.0,0.0,0.0,0.0,0.0,0.0,0.0,0.0,0.0,0.0,0.0,0.0,0.0,0.0,0.0,0.0,0.0,0.0,0.0,0.0,0.0,0.0,0.0,0.0,0.0,0.0,0.0,0.0,0.0,0.0,0.0,0.0,0.0,0.0,0.0,0.0,0.0,0.0,0.0,0.0,0.0,0.0,0.0,0.0,0.0,0.0,0.0,0.0,0.0,0.0,0.0,0.0,0.0,0.0,0.0,0.0,0.0,0.0,0.0,0.0,0.0,0.0,0.0,0.0,0.0,0.0,0.0,0.0,0.0,0.0,0.0,0.0,0.0,0.0,0.0,0.0,0.0,0.0,0.0,0.0,0.0,0.0,0.0,0.0,0.0,0.0,0.0,0.0,0.0,0.0,0.0,0.0,0.0,0.0,0.0,0.0,0.0,0.0,0.0,0.0,0.0,0.0,0.0,0.0,0.0,0.0,0.0,0.0,0.0,0.0,0.0,0.0,0.0,0.0,0.0,0.0,0.0,0.0,0.0,0.0,0.0,0.0,0.0,0.0,0.0,0.0,0.0,0.0,0.0,0.0,0.0,0.0,0.0,0.0,0.0,0.0,0.0,0.0,0.0,0.0,0.0,0.0,0.0,0.0,0.0,0.0,0.0,0.0,0.0,0.0,0.0,0.0,0.0,0.0,0.0,0.0,0.0,0.0,0.0,0.0,0.0,0.0,0.0,0.0,0.0,0.0,0.0,0.0,0.0,0.0,0.0,0.0,0.0,0.0,0.0,0.0,0.0,0.0,0.0,0.0,0.0,0.0,0.0,0.0,0.0,0.0,0.0,0.0,0.0,0.0,0.0,0.0,0.0,0.0,0.0,0.0,0.0,0.0,0.0,0.0,0.0,0.0,0.0,0.0,0.0,0.0,0.0,0.0,0.0,0.0,0.0,0.0,0.0,0.0,0.0,0.0,0.0,0.0,0.0,0.0,0.0,0.0,0.0,0.0,0.0,0.0,0.0,0.0,0.0,0.0,0.0,0.0,0.0,0.0,0.0,0.0,0.0,0.0,0.0,0.0,0.0,0.0,0.0,0.0,0.0,0.0,0.0,0.0,0.0,0.0,0.0,0.0,0.0,0.0,0.0,0.0,0.0,0.0,0.0,0.0,0.0,0.0,0.0,0.0,0.0,0.0,0.0,0.0,0.0,0.0,0.0,0.0,0.0,0.0,0.0,0.0,0.0,0.0,0.0,0.0,0.0,0.0,0.0,0.0,0.0,0.0,0.0,0.0,0.0,0.0,0.0,0.0,0.0,0.0,0.0,0.0,0.0,0.0,0.0,0.0,0.0,0.0,0.0,0.0,0.0,0.0,0.0,0.0,0.0,0.0,0.0,0.0,0.0,0.0,0.0,0.0,0.0,0.0,0.0,0.0,0.0,0.0,0.0,0.0,0.0,0.0,0.0,0.0,0.0,0.0,0.0,0.0,0.0,0.0,0.0,0.0,0.0,0.0,0.0,0.0,0.0,0.0,0.0,0.0,0.0,0.0,0.0,0.0,0.0,0.0,0.0,0.0,0.0,0.0,0.0,0.0,0.0,0.0,0.0,0.0,0.0,0.0,0.0,0.0,0.0,0.0,0.0,0.0,0.0,0.0,0.0,0.0,0.0,0.0,0.0,0.0,0.0,0.0,0.0,0.0,0.0,0.0,0.0,0.0,0.0,0.0,0.0,0.0,0.0,0.0,0.0,0.0,0.0,0.0,0.0,0.0,0.0,0.0,0.0,0.0,0.0,0.0,0.0,0.0,0.0,0.0,0.0,0.0,0.0,0.0,0.0,0.0,0.0,0.0,0.0,0.0,0.0,0.0,0.0,0.0,0.0,0.0,0.0,0.0,0.0,0.0,0.0,0.0,0.0,0.0,0.0,0.0,0.0,0.0,0.0,0.0,0.0,0.0,0.0,0.0,0.0,0.0,0.0,0.0,0.0,0.0,0.0,0.0,0.0,0.0,0.0,0.0,0.0,0.0,0.0,0.0,0.0,0.0,0.0,0.0,0.0,0.0,0.0,0.0,0.0,0.0,0.0,0.0,0.0,0.0,0.0,0.0,0.0,0.0,0.0,0.0,0.0,0.0,0.0,0.0,0.0,0.0,0.0,0.0,0.0,0.0,0.0,0.0,0.0,0.0,0.0,0.0,0.0,0.0,0.0,0.0,0.0,0.0,0.0,0.0,0.0,0.0,0.0,0.0,0.0,0.0,0.0,0.0,0.0,0.0,0.0,0.0,0.0,0.0,0.0,0.0,0.0,0.0,0.0,0.0,0.0,0.0,0.0,0.0,0.0,0.0,0.0,0.0,0.0,0.0,0.0,0.0,0.0,0.0,0.0,0.0,0.0,0.0,0.0,0.0,0.0,0.0,0.0,0.0,0.0,0.0,0.0,0.0,0.0,0.0,0.0,0.0,0.0,0.0,0.0,0.0,0.0,0.0,0.0,0.0,0.0,0.0,0.0,0.0,0.0,0.0,0.0,0.0,0.0,0.0,0.0,0.0,0.0,0.0,0.0,0.0,0.0,0.0,0.0,0.0,0.0,0.0,0.0,0.0,0.0,0.0,0.0,0.0,0.0,0.0,0.0,0.0,0.0,0.0,0.0,0.0,0.0,0.0,0.0,0.0,0.0,0.0,0.0,0.0,0.0,0.0,0.0,0.0,0.0,0.0,0.0,0.0,0.0,0.0,0.0,0.0,0.0,0.0,0.0,0.0,0.0,0.0,0.0,0.0,0.0,0.0,0.0,0.0,0.0,0.0,0.0,0.0,0.0,0.0,0.0,0.0,0.0,0.0,0.0,0.0,0.0,0.0,0.0,0.0,0.0,0.0,0.0,0.0,0.0,0.0,0.0,0.0,0.0,0.0,0.0,0.0,0.0,0.0,0.0,0.0,0.0,0.0,0.0,0.0,0.0,0.0,0.0,0.0,0.0,0.0,0.0,0.0,0.0,0.0,0.0,0.0,0.0,0.0,0.0,0.0,0.0,0.0,0.0,0.0,0.0,0.0,0.0,0.0,0.0,0.0,0.0,0.0,0.0,0.0,0.0,0.0,0.0,0.0,0.0,0.0,0.0,0.0,0.0,0.0,0.0,0.0,0.0,0.0,0.0,0.0,0.0,0.0,0.0,0.0,0.0,0.0,0.0,0.0,0.0,0.0,0.0,0.0,0.0,0.0,0.0,0.0,0.0,0.0,0.0,0.0,0.0,0.0,0.0,0.0,0.0,0.0,0.0,0.0,0.0,0.0,0.0,0.0,0.0,0.0,0.0,0.0,0.0,0.0,0.0,0.0,0.0,0.0,0.0,0.0,0.0,0.0,0.0,0.0,0.0,0.0,0.0,0.0,0.0,0.0,0.0,0.0,0.0,0.0,0.0,0.0,0.0,0.0,0.0,0.0,0.0,0.0,0.0,0.0,0.0,0.0,0.0,0.0,0.0,0.0,0.0,0.0,-1.9243,0.0,0.0,0.0,0.0,0.0,0.0,0.0,0.0,0.0,0.0,0.0,0.0,0.0,0.0,0.0,0.0,0.0,0.0,0.0,0.0,0.0,0.0,0.0,0.0,-0.8771,-0.9211,-0.9232,-0.9506,-0.9552,-0.9252,0.0,0.0,0.0,0.0,0.0,-0.8584,-0.843,-0.8392,-0.8532,-0.8691,-0.8938,-0.9239,-1.0134,-1.0145,-0.9452,0.0,0.0,0.0,0.0,0.0,0.0,0.0,0.0,0.0,0.0,0.0,0.0,0.0,0.0,0.0,0.0,0.0,0.0,0.0,0.0,0.0,0.0,0.0,0.0,0.0,0.0,0.0,0.0,0.0,0.0,0.0,0.0,0.0,0.0,0.0,0.0,0.0,0.0,0.0,0.0,0.0,0.0,0.0,0.0,0.0,0.0,0.0,0.0,0.0,0.0,0.0,0.0,0.0,0.0,0.0,0.0,0.0,0.0,0.0,0.0,0.0,0.0,0.0,0.0,0.0,0.0,0.0,0.0,0.0,0.0,0.0,-2.0762,0.0,0.0,0.0,0.0,0.0,0.0,0.0,0.0,0.0,0.0,0.0,0.0,0.0,0.0,0.0,0.0,0.0,0.0,0.0,0.0,0.0,-0.8039,-0.8435,-0.8971,-0.9391,-0.9659,-0.9809,-0.9822,-0.9722,-0.9471,0.0,0.0,0.0,-0.8958,-0.8958,-0.8958,-0.9126,-0.95,-0.9778,-1.0139,-1.0626,-1.2775,-1.2814,-1.1069,-1.1471,0.0,0.0,0.0,0.0,0.0,0.0,0.0,0.0,0.0,0.0,0.0,0.0,0.0,0.0,0.0,0.0,0.0,0.0,0.0,0.0,0.0,0.0,0.0,0.0,0.0,0.0,0.0,0.0,0.0,0.0,0.0,0.0,0.0,0.0,0.0,0.0,0.0,0.0,0.0,0.0,0.0,0.0,0.0,0.0,0.0,0.0,0.0,0.0,0.0,0.0,0.0,0.0,0.0,0.0,0.0,0.0,0.0,0.0,0.0,0.0,0.0,0.0,0.0,-1.8807,-2.0253,-2.1238,-2.2969,-2.4448,-2.5575,-2.3691,-2.3066,-2.3237,-2.2185,0.0,0.0,0.0,0.0,0.0,0.0,0.0,0.0,0.0,0.0,0.0,0.0,0.0,0.0,0.0,0.0,0.0,0.0,0.0,-0.8112,-0.8691,-0.9272,-0.9639,-0.9708,-1.0184,-1.0258,-0.9749,-0.988,0.0,0.0,-0.9586,-0.9566,-0.9566,-0.9566,-0.9945,-1.0669,-1.2011,-1.2609,-1.2587,-1.4371,-1.5263,-1.523,-1.3997,-1.3951,-1.4657,0.0,0.0,0.0,0.0,0.0,0.0,0.0,0.0,0.0,0.0,0.0,0.0,0.0,0.0,0.0,0.0,0.0,0.0,0.0,0.0,0.0,0.0,0.0,0.0,0.0,0.0,0.0,0.0,0.0,0.0,0.0,0.0,0.0,0.0,0.0,0.0,0.0,0.0,0.0,0.0,0.0,-1.1893,-1.2482,0.0,0.0,0.0,0.0,0.0,0.0,0.0,0.0,0.0,0.0,0.0,0.0,0.0,-1.7052,-1.7288,-1.811,-1.8531,-1.8577,-2.1703,-2.3228,-2.3447,-2.6298,-2.7707,-2.7832,-2.7187,0.0,-2.4238,-2.4072,0.0,0.0,0.0,0.0,0.0,0.0,0.0,0.0,0.0,0.0,0.0,0.0,0.0,0.0,0.0,0.0,0.0,0.0,0.0,0.0,0.0,-0.9719,-1.0271,-1.0439,-1.0802,-1.0868,-1.0448,-1.0388,-1.0234,-0.994,-0.9773,-0.9715,-0.9715,-0.9715,-1.0296,-1.1517,-1.3729,-1.4635,-1.4356,-1.6322,-1.721,-1.7088,-1.6679,-1.6357,-1.6044,-1.4824,0.0,0.0,0.0,0.0,0.0,0.0,0.0,0.0,0.0,0.0,0.0,0.0,0.0,0.0,0.0,0.0,0.0,0.0,0.0,0.0,0.0,0.0,0.0,0.0,0.0,0.0,0.0,0.0,0.0,0.0,0.0,0.0,0.0,0.0,0.0,0.0,0.0,0.0,0.0,-1.2118,-1.2966,-1.322,-1.3427,-1.342,0.0,0.0,0.0,0.0,0.0,0.0,0.0,0.0,0.0,-1.701,-1.7769,-1.8364,-1.8824,-1.9219,-1.9952,-2.1038,-2.3336,-2.4889,-2.5861,-2.8039,-2.9014,-2.9004,-2.8809,-2.792,-2.6523,-2.5508,-2.457,-2.3613,0.0,0.0,0.0,0.0,-2.3199,-2.4143,0.0,0.0,0.0,0.0,0.0,0.0,0.0,0.0,0.0,0.0,0.0,0.0,-0.9519,-1.0198,-1.074,-1.1069,-1.1236,-1.1223,-1.1009,-1.0754,-1.0492,-1.0241,-1.005,-0.9936,-0.9936,-1.0294,-1.1269,-1.2876,-1.5184,-1.6244,-1.61,-1.7915,-1.8663,-1.8406,-1.8661,-1.8178,-1.7126,-1.6141,-1.5068,-1.3926,0.0,0.0,0.0,0.0,0.0,0.0,0.0,0.0,0.0,0.0,0.0,0.0,0.0,0.0,0.0,0.0,0.0,0.0,0.0,0.0,0.0,0.0,0.0,0.0,0.0,0.0,0.0,0.0,0.0,0.0,0.0,0.0,0.0,0.0,0.0,0.0,0.0,-1.3053,-1.38,-1.4019,-1.4499,-1.4612,0.0,0.0,0.0,0.0,0.0,0.0,-1.655,-1.7388,-1.8036,-1.8428,-1.9138,-1.9693,-2.0134,-2.0214,-2.1192,-2.3029,-2.4463,-2.6005,-2.7658,-2.9193,-2.9912,-2.9902,-2.9785,-2.9375,-2.8652,-2.7051,-2.6006,-2.539,-2.4707,-2.4199,-2.3877,-2.4297,-2.5083,-2.6158,0.0,0.0,0.0,0.0,0.0,0.0,0.0,0.0,0.0,0.0,0.0,-0.9953,-1.0461,-1.0566,-1.0821,-1.1322,-1.1169,-1.1009,-1.0995,-1.0754,-1.0586,-1.0573,-1.0553,-1.0546,-1.0546,-1.188,-1.3434,-1.5223,-1.6403,-1.7252,-1.7796,-1.8791,-1.9446,-1.9788,-1.9407,-1.8984,-1.8422,-1.7165,-1.6112,-1.5244,-1.4358,0.0,0.0,0.0,0.0,0.0,0.0,0.0,0.0,0.0,0.0,0.0,0.0,0.0,0.0,0.0,0.0,0.0,0.0,0.0,0.0,0.0,0.0,0.0,0.0,0.0,0.0,0.0,0.0,0.0,0.0,0.0,0.0,0.0,0.0,0.0,0.0,0.0,0.0,-1.5211,-1.5578,0.0,0.0,0.0,0.0,-1.6533,-1.7408,-1.8109,-1.8738,-1.9339,-1.9679,-1.9713,-2.0548,-2.1015,-2.1042,-2.1323,-2.2347,-2.3977,-2.5304,-2.6781,-2.8423,-3.0081,-3.082,-3.0801,-3.0361,-3.0137,-3.0,-2.8701,-2.7441,-2.6318,-2.6279,-2.5986,-2.5615,-2.6094,-2.7087,-2.8455,0.0,0.0,0.0,-1.038,-1.0303,-1.0303,-1.0303,-0.9957,-0.9709,-0.9673,-0.9721,-0.9879,-1.0238,-1.0775,-1.1276,-1.1677,-1.1617,-1.1476,-1.1283,-1.1002,-1.0868,-1.0868,-1.0868,-1.1249,-1.2069,-1.364,-1.5047,-1.6306,-1.7756,-1.8709,-1.9192,-1.9538,-1.9922,-2.0322,-2.0214,-1.9873,-1.9358,-1.8344,-1.7428,-1.6572,-1.542,-1.4328,0.0,0.0,0.0,0.0,0.0,0.0,0.0,0.0,0.0,0.0,0.0,0.0,0.0,0.0,0.0,0.0,0.0,0.0,0.0,0.0,0.0,0.0,0.0,0.0,0.0,0.0,0.0,0.0,0.0,0.0,0.0,0.0,0.0,0.0,0.0,0.0,0.0,-1.6489,-1.6954,0.0,-1.7094,-1.7361,-1.7709,-1.8103,-1.8778,-1.9265,-1.9472,-2.0221,-2.0641,-2.0641,-2.1316,-2.224,-2.3371,-2.3486,-2.4927,-2.769,-2.8174,-2.9245,-3.087,-3.1169,-3.1299,-3.1269,-3.083,-3.0478,-3.0156,-2.9707,-2.8769,-2.7607,-2.7607,-2.7178,-2.6582,-2.6728,-2.814,-3.0075,-1.2558,-1.1724,0.0,-1.0592,-1.0409,-1.0352,-1.0469,-1.0334,-1.0263,-1.0411,-1.0466,-1.062,-1.094,-1.1336,-1.1697,-1.2027,-1.1837,-1.1637,-1.1402,-1.1062,-1.0881,-1.0881,-1.1262,-1.2178,-1.3697,-1.4934,-1.6296,-1.7853,-1.8758,-1.9515,-2.0137,-2.0137,-2.0283,-2.0605,-2.0605,-2.0449,-2.0098,-1.9531,-1.8711,-1.7715,-1.6699,-1.5771,-1.4855,0.0,0.0,0.0,0.0,0.0,0.0,0.0,0.0,0.0,0.0,0.0,0.0,0.0,0.0,0.0,0.0,0.0,0.0,0.0,0.0,0.0,0.0,0.0,0.0,0.0,0.0,0.0,0.0,0.0,0.0,0.0,0.0,0.0,0.0,-1.5618,-1.6673,-1.7368,-1.7976,-1.8282,-1.8323,-1.8691,-1.9052,-1.9339,-1.9913,-2.0287,-2.0388,-2.1036,-2.1403,-2.1403,-2.1877,-2.297,-2.4767,-2.4767,-2.6488,-2.986,-2.9724,-3.0553,-3.2148,-3.1719,-3.1514,-3.1494,-3.1074,-3.0713,-3.043,-3.043,-2.9844,-2.8926,-2.8779,-2.8281,-2.7708,-2.8157,-2.9642,-3.1514,-1.2508,-1.1697,-1.1019,-1.1,-1.0611,-1.0449,-1.085,-1.1289,-1.1757,-1.2232,-1.217,-1.2225,-1.2628,-1.2207,-1.202,-1.2278,-1.1764,-1.1389,-1.1389,-1.0914,-1.06,-1.0633,-1.1783,-1.3351,-1.5384,-1.5688,-1.7153,-1.9912,-1.9316,-1.9559,-2.0605,-2.0605,-2.0605,-2.0605,-2.0605,-2.0605,-2.0605,-2.0605,-1.9844,-1.8627,-1.8223,-1.7506,-1.6648,0.0,0.0,0.0,0.0,0.0,0.0,0.0,0.0,0.0,0.0,0.0,0.0,0.0,0.0,0.0,0.0,0.0,0.0,0.0,0.0,0.0,0.0,0.0,0.0,0.0,0.0,0.0,0.0,0.0,0.0,0.0,0.0,0.0,-1.5438,-1.6199,-1.7088,-1.7929,-1.8542,-1.8958,-1.8971,-1.9499,-1.996,-2.0193,-2.0808,-2.1263,-2.1614,-2.1844,-2.1997,-2.1997,-2.2345,-2.3349,-2.5112,-2.5244,-2.6922,-3.0203,-2.994,-3.0661,-3.2187,-3.1758,-3.1562,-3.1533,-3.1094,-3.0908,-3.0908,-3.0898,-3.0625,-3.0176,-2.9756,-2.9316,-2.9099,-3.0444,-3.1531,-3.2682,-1.2579,-1.2,-1.1468,-1.1075,-1.0611,-1.0449,-1.085,-1.1129,-1.1466,-1.1879,-1.191,-1.2011,-1.2308,-1.2067,-1.202,-1.2278,-1.1764,-1.1389,-1.1389,-1.0914,-1.0874,-1.1517,-1.2278,-1.3704,-1.5914,-1.64,-1.7699,-1.9912,-2.0072,-2.0323,-2.0605,-2.0605,-2.0605,-2.0605,-2.0605,-2.0605,-2.0605,-2.0605,-2.04,-2.0008,-1.9238,-1.8418,-1.7568,0.0,0.0,0.0,0.0,0.0,0.0,0.0,0.0,0.0,0.0,0.0,0.0,0.0,0.0,0.0,0.0,0.0,0.0,0.0,0.0,0.0,0.0,0.0,0.0,0.0,0.0,0.0,0.0,0.0,0.0,0.0,-1.5671,-1.6346,-1.6346,-1.7301,-1.825,-1.8925,-1.9332,-1.9726,-2.0154,-2.0535,-2.0869,-2.1169,-2.1537,-2.1784,-2.1864,-2.2138,-2.2298,-2.2298,-2.3831,-2.4914,-2.5383,-2.7933,-2.9699,-3.0682,-3.1809,-3.2609,-3.3066,-3.2637,-3.2441,-3.2402,-3.167,-3.1348,-3.1318,-3.1016,-3.081,-3.0654,-3.0195,-2.9766,-2.9401,-2.9461,-3.0653,-3.2682,-1.2855,-1.2419,-1.1938,-1.1431,-1.1091,-1.0965,-1.1155,-1.1588,-1.2121,-1.2691,-1.2446,-1.2336,-1.267,-1.2096,-1.175,-1.1917,-1.1588,-1.1342,-1.1249,-1.1042,-1.1256,-1.2017,-1.3364,-1.4812,-1.6442,-1.7595,-1.8819,-2.0185,-2.0478,-2.0605,-2.0605,-2.0605,-2.0605,-2.0605,-2.0605,-2.0605,-2.0605,-2.0605,-2.0605,-2.0566,-2.0067,-1.9414,-1.8711,-1.7818,-1.733,-1.7061,-1.6455,-1.624,-1.6182,-1.5811,0.0,0.0,0.0,0.0,0.0,0.0,0.0,0.0,0.0,0.0,0.0,0.0,0.0,0.0,0.0,0.0,0.0,0.0,0.0,0.0,0.0,0.0,0.0,0.0,-1.6794,-1.7542,-1.7782,-1.8417,-1.9072,-1.9659,-1.9993,-2.0401,-2.1052,-2.1196,-2.1416,-2.171,-2.2004,-2.2164,-2.2164,-2.2445,-2.2605,-2.2605,-2.3765,-2.5121,-2.6639,-2.8681,-3.0448,-3.1899,-3.2892,-3.3418,-3.3408,-3.2988,-3.2793,-3.2764,-3.209,-3.1689,-3.1504,-3.126,-3.1055,0.0,0.0,0.0,0.0,0.0,-3.1806,-3.3731,-1.321,-1.282,-1.2377,-1.1933,-1.177,-1.1686,-1.1672,-1.2367,-1.3184,-1.3997,-1.3429,-1.3048,-1.3369,-1.2299,-1.1491,-1.143,-1.1389,-1.1329,-1.1102,-1.1465,-1.189,-1.2378,-1.4669,-1.625,-1.6932,-1.8801,-2.0061,-2.0605,-2.0605,-2.0605,-2.0605,-2.0605,-2.0605,-2.0605,-2.0605,-2.0605,-2.0605,-2.0605,-2.0605,-2.0605,-2.0605,-2.0303,-1.9834,-1.9036,-1.8715,-1.8568,-1.7812,-1.7529,-1.7402,-1.6594,0.0,0.0,0.0,0.0,0.0,0.0,0.0,0.0,0.0,0.0,0.0,0.0,0.0,0.0,0.0,0.0,0.0,0.0,0.0,0.0,0.0,0.0,0.0,0.0,-1.7876,-1.8791,-1.9379,-1.9492,-1.9706,-2.0221,-2.0514,-2.0971,-2.1561,-2.1648,-2.1789,-2.2011,-2.2305,-2.2472,-2.2472,0.0,0.0,0.0,0.0,-2.4926,-2.7842,-2.8501,-3.0272,-3.3092,-3.3292,-3.3418,-3.3408,-3.3037,-3.2861,-3.2842,-3.2422,-3.1992,-3.1592,-3.1533,-3.1269,-3.0889,-3.0889,-3.0721,-3.0645,-3.2509,-3.3942,-3.5175,-1.3303,-1.282,-1.2447,-1.2297,-1.1966,-1.1799,-1.204,-1.2549,-1.3184,-1.3997,-1.3918,-1.3661,-1.3433,-1.2828,-1.2173,-1.1457,-1.1389,-1.1503,0.0,0.0,-1.3308,-1.3045,-1.5382,-1.6851,-1.7218,-1.8514,-1.9642,-2.0605,-2.0605,-2.0605,-2.0605,-2.0605,-2.0605,-2.0605,-2.0605,-2.0605,-2.0605,-2.0605,-2.0605,-2.0605,-2.0605,-2.0303,-1.9893,-1.9727,-1.9463,-1.9092,-1.8539,-1.8354,-1.8286,-1.7803,-1.7337,-1.6789,-1.5933,-1.5231,0.0,0.0,0.0,0.0,0.0,0.0,0.0,0.0,0.0,0.0,0.0,0.0,0.0,0.0,0.0,0.0,0.0,0.0,0.0,-1.827,-1.8891,-1.9399,-1.9987,-2.0274,-2.0468,-2.0575,-2.0641,-2.0971,-2.1561,-2.1829,-2.2024,-2.2311,-2.2605,-2.2779,-2.2779,-2.2832,-2.2928,-2.2928,-2.5651,-2.6781,-2.6046,-3.0254,-3.2036,-3.1304,0.0,0.0,-3.3418,-3.334,-3.3301,-3.3281,-3.2861,-3.2432,-3.2012,-3.167,-3.1269,-3.0889,-3.0889,-3.1324,-3.2131,-3.3626,-3.4578,-3.536,-1.4111,-1.3865,-1.361,-1.3298,-1.3001,-1.2765,-1.2675,-1.2956,-1.3418,-1.4026,-1.3923,-1.3803,-1.3786,-1.2711,-1.1902,-1.1609,-1.1349,0.0,0.0,-1.3375,-1.3921,-1.34,-1.6309,-1.7743,-1.7293,-1.8948,-2.004,-2.0605,-2.0605,-2.0605,-2.0605,-2.0605,-2.0605,-2.0605,-2.0605,-2.0605,-2.0605,-2.0605,-2.0605,-2.0605,-2.0605,-2.0478,-2.0244,-2.0244,-2.0145,-1.9844,-1.9199,-1.8965,-1.8867,-1.8223,-1.7871,-1.7589,-1.6949,-1.6318,-1.5426,0.0,0.0,0.0,0.0,0.0,0.0,0.0,0.0,0.0,0.0,0.0,0.0,0.0,0.0,-1.5665,-1.6547,0.0,-1.811,-1.8998,-1.9512,-1.9953,-2.0394,-2.0581,-2.0675,-2.0675,-2.0808,-2.1122,-2.171,-2.1897,-2.2164,-2.2605,-2.2779,-2.2928,-2.2928,-2.2928,-2.3331,-2.4188,-2.5912,-2.7296,-2.8139,-3.078,-3.2091,-3.2091,-3.2956,-3.3418,-3.3418,-3.3418,-3.3418,-3.3408,-3.3203,-3.2871,-3.2432,-3.1787,-3.1269,-3.0889,-3.0889,-3.1684,-3.2969,-3.4843,-3.5549,-3.563,-1.5185,-1.5211,-1.5002,-1.4337,-1.405,-1.3751,-1.3304,-1.3323,-1.3535,-1.3929,-1.3763,-1.3668,-1.3904,-1.2543,-1.1658,-1.1765,-1.1342,0.0,0.0,-1.3813,-1.4434,-1.4342,-1.7338,-1.855,-1.7666,-1.9599,-2.0605,-2.0605,-2.0605,-2.0605,-2.0605,-2.0605,-2.0644,-2.0732,-2.0732,-2.0732,-2.0732,-2.0732,-2.0683,-2.0605,-2.0605,-2.0605,-2.0595,-2.0507,-2.0478,-2.037,-1.957,-1.918,-1.8936,-1.8242,-1.7959,-1.7842,-1.7588,-1.704,-1.6154,-1.4549,-1.434,0.0,0.0,0.0,0.0,0.0,0.0,0.0,0.0,-1.4584,-1.5147,-1.6052,-1.6856,-1.7552,-1.7795,-1.8692,-1.9455,-1.9537,-1.998,-2.0421,-2.0722,-2.0762,-2.0762,-2.0762,-2.0969,-2.1343,-2.1924,-2.1984,-2.2231,-2.2819,-2.2928,-2.2928,-2.2928,-2.3195,-2.406,-2.545,-2.6172,-2.7883,-3.0771,-3.1166,-3.2027,-3.3418,-3.3418,-3.3418,-3.3418,-3.3418,-3.3418,-3.3418,-3.334,-3.3066,-3.2607,-3.1836,-3.1269,-3.0947,-3.1218,-3.2207,-3.3746,-3.5692,-3.6339,-3.6329,-1.6233,-1.6312,-1.598,-1.4902,-1.426,-1.3872,-1.3748,-1.3296,-1.3105,-1.35,-1.3536,-1.338,-1.3067,-1.2846,-1.2421,-1.1689,-1.1471,0.0,-1.4044,-1.4523,-1.5388,-1.6798,-1.8244,-1.8957,-1.8798,-2.0001,-2.0605,-2.0605,-2.0605,-2.0605,-2.0605,-2.0605,-2.0781,-2.1122,-2.1122,-2.1122,-2.1122,-2.1122,-2.0928,-2.0605,-2.0605,-2.0605,-2.0556,-2.0137,-1.999,-1.9932,-1.9453,-1.8799,-1.8135,-1.8047,-1.7764,-1.751,-1.7842,-1.7862,-1.7518,-1.6206,-1.5864,-1.5526,-1.3853,-1.3299,-1.3372,-1.4068,-1.4128,-1.4733,0.0,-1.7955,-1.8074,-1.8955,-2.0467,-2.1063,-1.909,-2.0168,-2.1061,-2.022,-2.0414,-2.0728,-2.1022,-2.1062,-2.1062,-2.1062,-2.1089,-2.1343,-2.1924,-2.1984,-2.2231,-2.2819,-2.2928,-2.2928,-2.2928,-2.4392,-2.5315,-2.551,-2.8541,-3.0375,-3.0771,-3.2355,-3.3228,-3.3418,-3.3418,-3.3418,-3.3418,-3.3418,-3.3418,-3.3398,-3.3027,-3.2627,-3.2207,-3.1719,-3.1269,-3.1005,-3.2369,-3.3744,-3.5068,-3.5342,-3.6437,-3.7792,-1.645,-1.65,-1.6361,-1.5868,-1.4995,-1.435,-1.432,-1.3515,-1.3027,-1.3447,-1.3506,-1.363,-1.3958,-1.3809,-1.3048,-1.1564,-1.1859,-1.2622,-1.3705,-1.4989,-1.6112,-1.6908,-1.8861,-1.9638,-1.8997,-2.004,-2.0605,-2.0605,-2.0605,-2.0605,-2.0605,-2.0605,-2.0703,-2.0859,-2.1123,-2.1094,-2.0859,-2.1083,-2.0977,-2.0605,-2.0605,-2.0605,-2.0556,-2.0078,-1.9609,-1.9075,-1.8691,-1.8311,0.0,0.0,-1.7116,-1.7031,-1.7174,-1.7233,-1.6923,-1.5387,-1.6193,-1.7483,-1.7196,-1.6758,-1.6514,-1.7139,-1.7625,-1.8318,-1.9654,-1.9941,-2.0285,-2.119,-2.1311,-2.1356,-2.1711,-2.2047,-2.209,-2.1603,-2.2008,-2.2075,-2.1215,-2.1109,-2.1049,-2.0882,-2.1002,-2.1343,-2.1924,-2.1984,-2.2231,-2.2819,-2.2928,-2.3331,-2.4392,-2.5113,-2.6432,-2.8541,-3.0051,-3.1304,-3.2292,-3.3029,-3.3418,-3.3418,-3.3418,-3.3418,-3.3418,-3.3418,-3.3418,-3.3408,-3.3232,-3.2783,-3.2158,-3.1973,-3.1494,-3.1054,-3.253,-3.4024,-3.5398,-3.6271,-3.7176,-3.8002,-1.65,-1.65,-1.65,-1.65,-1.5644,-1.4903,-1.4721,-1.3813,-1.3238,-1.3482,-1.3506,-1.3789,-1.4531,-1.4249,-1.3456,-1.2062,-1.2331,-1.2979,-1.4011,-1.5082,-1.6216,-1.7527,-1.9099,-1.98,-1.9441,-2.0206,-2.0605,-2.0605,-2.0605,-2.0605,-2.0605,-2.0605,-2.0674,-2.0762,-2.1094,-2.1055,-2.0771,-2.1094,-2.0977,-2.0605,-2.0605,-2.0537,-2.038,-1.9912,-1.9173,-1.8393,-1.8081,-1.7783,0.0,0.0,-1.6619,-1.6541,-1.6668,-1.6697,-1.6533,-1.5626,-1.6986,-1.892,-1.9469,-1.9219,-1.9004,-1.9561,-2.03,-2.1034,-2.1482,-2.1761,-2.2113,-2.2933,-2.2592,-2.244,-2.3431,-2.3314,-2.3125,-2.3158,-2.3384,-2.3208,-2.1971,-2.1714,-2.143,-2.0871,-2.0909,-2.1223,-2.181,-2.1937,-2.2231,-2.2819,-2.2928,-2.3659,-2.5383,-2.5979,-2.7619,-3.0707,-3.1295,-3.21,-3.3364,-3.3418,-3.3418,-3.3418,-3.3418,-3.3418,-3.3418,-3.3418,-3.3418,-3.3418,-3.3418,-3.3008,-3.2334,-3.2278,-3.2018,-3.1764,-3.2742,-3.4236,-3.6054,-3.7091,-3.7816,-3.8216,-1.65,-1.65,-1.65,-1.65,-1.5986,-1.5387,-1.4789,-1.4167,-1.3707,-1.3523,-1.3506,-1.3646,-1.4085,-1.383,-1.3588,-1.3541,-1.2724,-1.3282,-1.5842,-1.4622,-1.5593,-1.9628,-1.8879,-1.9034,-2.0518,-2.0566,-2.0605,-2.0605,-2.0605,-2.0605,-2.0605,-2.0605,-2.0801,-2.1171,-2.119,-2.119,-2.1181,-2.119,-2.0977,-2.0605,-2.0605,-2.0312,-1.9883,-1.9463,-1.8779,-1.8027,-1.8018,0.0,-1.6212,-1.6592,-1.6445,-1.6193,-1.6592,-1.6697,-1.6941,-1.811,-1.8901,-1.9398,-1.9566,-1.9523,-1.9674,-2.0529,-2.0947,-2.1625,-2.326,-2.3606,-2.3682,-2.3994,-2.5185,-2.5618,-2.3611,-2.368,-2.422,-2.4729,-2.4149,-2.3574,-2.3512,-2.3236,-2.2541,-2.1245,-2.0855,-2.0922,-2.1574,-2.1817,-2.2231,-2.2819,-2.2928,-2.3659,-2.5383,-2.7172,-2.8952,-3.0707,-3.2428,-3.3355,-3.3418,-3.3418,-3.3418,-3.3418,-3.3418,-3.3418,-3.3418,-3.3418,-3.3418,-3.3418,-3.3418,-3.3174,-3.2744,-3.2334,-3.2754,-3.3571,-3.3245,-3.4891,-3.7465,-3.7465,-3.8059,-3.8768,-1.7024,-1.7087,-1.72,-1.7576,-1.7167,-1.6443,-1.5403,-1.4419,-1.3731,-1.3523,-1.4004,0.0,0.0,0.0,0.0,0.0,-1.3904,-1.4279,-1.5242,-1.5487,-1.6519,-1.8562,-1.8862,-1.9314,-2.0127,-2.0137,-2.0273,-2.0605,-2.0605,-2.0605,-2.0605,-2.0605,-2.0683,-2.0801,-2.1064,-2.1064,-2.081,-2.1103,-2.1103,-2.0957,-2.0371,-2.0215,-2.0273,-1.9561,-1.8584,-1.7598,0.0,0.0,-1.6075,-1.5908,-1.5752,-1.5654,-1.5781,-1.6055,-1.6709,-1.8857,-1.9541,-2.0058,-2.1892,-2.2563,-2.2889,-2.3484,-2.394,-2.4333,-2.4884,-2.502,-2.5144,-2.5553,-2.5217,-2.5071,-2.5626,-2.555,-2.5538,-2.5874,-2.5425,-2.5077,-2.52,-2.4579,-2.3662,-2.2581,-2.2916,-2.2865,-2.1679,-2.1702,0.0,-2.2525,-2.369,-2.5226,-2.7164,-2.8943,-3.0716,-3.2492,-3.3092,-3.3418,-3.3418,-3.3418,-3.3418,-3.3418,-3.3418,-3.3418,-3.3418,-3.3418,-3.3418,-3.3418,-3.3418,-3.3184,-3.2764,-3.2344,-3.2813,-3.3754,-3.4309,-3.577,-3.7636,-3.8582,-3.8949,-3.8831,-1.7405,-1.7561,-1.779,-1.8141,-1.7903,0.0,0.0,0.0,0.0,0.0,0.0,0.0,0.0,0.0,0.0,0.0,0.0,-1.4747,-1.5303,-1.5766,-1.6535,-1.774,-1.8311,-1.8809,-1.9219,-1.9228,-1.9443,-1.9873,-1.9873,-1.9961,-2.0145,-2.0145,-2.0145,-2.0165,-2.041,-2.0381,-2.0165,-2.042,-2.0498,-2.0478,-1.9709,-1.9629,-1.9805,-1.9102,-1.8125,0.0,0.0,0.0,-1.5811,-1.5508,-1.5518,-1.5674,-1.583,-1.6709,-1.8032,-1.9658,-2.0569,-2.1471,-2.3489,-2.4209,-2.456,-2.5156,-2.5527,-2.5693,-2.5693,-2.5693,-2.5771,-2.6103,-2.5246,-2.4936,-2.6519,-2.5988,-2.5739,-2.7142,-2.6347,-2.5938,-2.6934,-2.608,-2.4918,-2.3781,-2.4116,-2.4008,-2.2784,-2.2655,-2.2907,-2.3447,-2.4612,-2.6413,-2.9,-3.0189,-3.1634,-3.3355,-3.3418,-3.3418,-3.3418,-3.3418,-3.3418,-3.3418,-3.3418,-3.3418,-3.3418,-3.3418,-3.3418,-3.3418,-3.3418,-3.3271,-3.2978,-3.2402,-3.3202,-3.4783,-3.5157,-3.6541,-3.8413,-3.9362,-3.9346,-3.8831,-1.765,-1.7865,-1.8254,0.0,0.0,0.0,0.0,0.0,0.0,0.0,0.0,0.0,0.0,0.0,0.0,0.0,0.0,0.0,-1.5996,-1.5364,0.0,-1.7243,-1.7334,-1.7549,-1.7969,-1.7978,-1.8184,-1.8568,-1.8568,-1.8828,-1.9248,-1.9248,-1.9268,-1.9287,-1.9287,-1.9287,-1.9287,-1.9268,-1.9268,-1.9248,-1.8724,-1.8559,-1.8559,-1.813,0.0,0.0,0.0,-1.62,-1.5478,-1.5478,-1.5801,-1.631,-1.6716,-1.8603,-2.0644,-2.0723,-2.1936,-2.3452,-2.4228,-2.4473,-2.4687,-2.5479,-2.5693,-2.5693,-2.5693,-2.5674,-2.5654,-2.5654,-2.5352,-2.5341,-2.6133,-2.5069,-2.5094,-2.8294,-2.6823,-2.6192,-2.8844,-2.7807,-2.6335,-2.5008,-2.4667,-2.4622,-2.4724,-2.4769,-2.5041,-2.5725,0.0,-2.7206,-3.0642,-3.09,-3.1698,-3.3355,-3.3418,-3.3418,-3.3418,-3.3418,-3.3418,-3.3418,-3.3418,-3.3418,-3.3418,-3.3418,-3.3418,-3.3418,-3.3418,-3.3418,-3.335,-3.2632,-3.401,-3.6541,-3.5736,-3.7156,-3.9697,-3.9697,-3.932,-3.8743,0.0,0.0,0.0,0.0,0.0,0.0,0.0,0.0,0.0,0.0,0.0,0.0,0.0,0.0,0.0,0.0,0.0,0.0,-1.5566,-1.5729,0.0,0.0,0.0,0.0,0.0,0.0,0.0,0.0,-1.813,-1.8354,-1.8763,-1.8763,-1.8975,-1.9287,-1.9287,-1.9287,-1.9268,-1.8936,-1.8994,-1.9199,0.0,-1.8076,-1.8559,0.0,0.0,0.0,0.0,-1.7096,-1.6365,-1.6365,-1.7067,-1.8081,-1.8867,-2.001,-2.121,-2.2165,-2.3252,-2.4219,-2.4756,-2.5146,-2.5411,-2.5635,-2.5693,-2.5693,-2.5693,-2.5478,-2.5244,-2.5244,-2.4893,-2.4648,-2.4873,-2.5362,-2.6253,-2.775,-2.7702,-2.8197,-3.0562,-3.0215,-2.9425,-2.8511,-2.8804,-2.8571,-2.7052,-2.7149,-2.7892,0.0,-2.9262,-2.9623,-3.0753,-3.2027,-3.2956,-3.3364,-3.3418,-3.3418,-3.3418,-3.3418,-3.3418,-3.3418,-3.3418,-3.3418,-3.3418,-3.3418,-3.3418,-3.3418,-3.3418,-3.3418,-3.3413,-3.373,-3.4912,-3.6598,-3.6827,-3.8084,-3.9697,-3.9697,-3.9069,-3.8203,0.0,0.0,0.0,0.0,0.0,0.0,0.0,0.0,0.0,0.0,0.0,0.0,0.0,0.0,0.0,0.0,0.0,0.0,0.0,-1.5644,0.0,0.0,0.0,0.0,0.0,0.0,0.0,0.0,0.0,0.0,-1.7769,-1.7769,-1.7896,-1.8164,-1.8164,-1.8164,-1.8144,-1.7876,0.0,0.0,0.0,0.0,0.0,0.0,0.0,0.0,0.0,-1.7783,-1.7881,-1.8032,-1.873,-1.9639,-2.0508,-2.1504,-2.2539,-2.3393,-2.417,-2.4795,-2.5244,-2.5684,-2.5977,-2.5732,-2.583,-2.5869,-2.5245,-2.5107,-2.4949,-2.4392,-2.4189,-2.4082,-2.3887,-2.4775,-2.5869,-2.6934,-2.7271,-2.8336,-3.113,-3.0913,-3.0419,-3.0203,-3.0564,-3.0359,-2.9172,-2.9215,-3.006,-3.1835,-3.1093,-3.1002,-3.1881,-3.2892,-3.3418,-3.3418,-3.3418,-3.3418,-3.3418,-3.3418,-3.3418,-3.3418,-3.3418,-3.3418,-3.3418,-3.3418,-3.3418,-3.3418,0.0,-3.3418,-3.3413,-3.3437,-3.4688,-3.6598,-3.6553,-3.7808,-3.9659,-3.9421,-3.8768,-3.7977,0.0,0.0,0.0,0.0,0.0,0.0,0.0,0.0,0.0,-1.5614,-1.5449,-1.541,-1.541,-1.541,0.0,0.0,0.0,0.0,0.0,0.0,0.0,0.0,0.0,0.0,0.0,0.0,0.0,0.0,0.0,0.0,0.0,0.0,0.0,0.0,0.0,0.0,0.0,0.0,0.0,0.0,0.0,0.0,0.0,0.0,0.0,0.0,-1.7471,-1.8213,-1.9287,-1.9824,-2.041,-2.1104,-2.1943,-2.3018,-2.4043,-2.4473,-2.4863,-2.5254,-2.5703,-2.6055,-2.6221,-2.5908,-2.6064,-2.5986,-2.4775,-2.4707,-2.4617,-2.3443,-2.3359,-2.3437,-2.3071,-2.3715,-2.4785,-2.6162,-2.6567,-2.7796,-3.1023,-3.0973,-3.0665,-3.1121,-3.1166,-3.1166,-3.1166,-3.1166,-3.1762,-3.3292,-3.2027,-3.1826,-3.3292,-3.3418,-3.3418,-3.3418,-3.3418,-3.3418,-3.3418,-3.3418,-3.3418,-3.3418,-3.3418,-3.3418,-3.3418,-3.3418,-3.3418,-3.3418,-3.3418,0.0,-3.3281,-3.2726,-3.4087,-3.6451,-3.5813,-3.7263,-3.9634,-3.9082,-3.8504,-3.7927,0.0,0.0,0.0,0.0,0.0,0.0,-1.7727,-1.7801,-1.755,-1.6168,-1.5635,-1.541,-1.541,-1.541,0.0,0.0,0.0,0.0,0.0,0.0,0.0,0.0,0.0,0.0,0.0,0.0,0.0,0.0,-1.5605,0.0,0.0,0.0,0.0,0.0,0.0,0.0,0.0,0.0,0.0,0.0,0.0,0.0,0.0,0.0,0.0,0.0,-1.79,-1.8237,-1.889,-2.0068,-2.1496,-2.2904,-2.3711,-2.4375,-2.4932,-2.5381,-2.5508,-2.5723,-2.6162,-2.6064,-2.5869,-2.6201,-2.6064,-2.5693,-2.5088,-2.4463,-2.3848,-2.3262,-2.2646,-2.2305,-2.2568,-2.332,-2.4443,-2.6113,-2.754,-2.9186,-3.121,-3.2002,-3.2493,-3.2907,-3.2956,-3.2956,-3.2956,-3.2956,-3.3092,0.0,-3.3092,-3.3092,-3.3355,-3.3418,-3.3418,-3.3418,-3.3418,-3.3418,-3.3418,-3.3418,-3.3418,-3.3418,-3.3418,-3.3418,-3.3418,-3.3418,-3.3418,-3.3418,-3.3418,0.0,-3.2985,-3.3688,-3.4795,-3.6084,-3.6828,-3.819,-3.9634,-3.9082,-3.8504,-3.7927,0.0,0.0,0.0,0.0,0.0,0.0,-1.8768,-1.8453,-1.801,-1.7205,-1.6725,-1.626,-1.5801,-1.5547,-1.541,0.0,0.0,0.0,0.0,0.0,0.0,0.0,0.0,0.0,0.0,-1.5635,-1.5635,-1.541,0.0,-1.5742,-1.5723,-1.5723,-1.584,-1.6015,-1.6015,0.0,0.0,0.0,0.0,0.0,0.0,0.0,0.0,0.0,0.0,0.0,0.0,-1.8428,-1.9102,-1.9941,-2.124,-2.2725,-2.4014,-2.4873,-2.5459,-2.5625,-2.5693,-2.5781,-2.6269,-2.6396,-2.6396,-2.6396,-2.6396,-2.5986,-2.4414,-2.3916,-2.3418,-2.207,-2.1846,-2.1807,-2.1543,-2.2578,-2.3809,-2.4863,-2.6475,-2.8281,-3.0234,-3.125,-3.2129,-3.2998,-3.3291,-3.3418,-3.3418,-3.3418,-3.3418,-3.3418,-3.3418,-3.3418,-3.3418,-3.3418,-3.3418,-3.3418,-3.3418,-3.3418,-3.3418,-3.3418,-3.3418,-3.3418,-3.3418,-3.3418,-3.3418,-3.3418,-3.3418,-3.3418,-3.3418,0.0,-3.2816,-3.3145,-3.4296,-3.5904,-3.6248,-3.7701,-3.9597,-3.8743,-3.8253,-3.7889,0.0,0.0,0.0,0.0,0.0,0.0,-1.9617,-1.9023,-1.8522,-1.831,-1.7827,-1.7288,-1.6584,-1.6006,-1.5654,0.0,0.0,0.0,0.0,0.0,0.0,0.0,0.0,0.0,0.0,0.0,0.0,-1.5557,-1.6026,0.0,0.0,0.0,0.0,0.0,-1.5642,-1.5719,-1.5853,0.0,0.0,0.0,0.0,-1.7152,0.0,0.0,0.0,0.0,0.0,-1.8437,-1.9092,-1.9609,-2.0527,-2.1748,-2.3359,-2.46,-2.5421,-2.5518,-2.5615,-2.5781,-2.6269,-2.6562,-2.6689,-2.6445,-2.6494,-2.6016,-2.3744,-2.3398,-2.2978,-2.1094,-2.1182,-2.1416,-2.086,-2.1867,-2.3008,-2.3799,-2.5156,-2.6914,-2.9293,-3.0332,-3.1367,-3.2646,-3.3164,-3.3418,-3.3418,-3.3418,0.0,-3.3418,-3.3418,-3.3418,-3.3418,-3.3418,-3.3418,-3.3418,-3.3418,-3.3418,-3.3418,-3.3418,-3.3418,-3.3418,-3.3418,-3.3418,-3.3418,-3.3418,-3.3418,-3.3418,-3.3418,0.0,0.0,-3.2305,-3.362,-3.5759,-3.5445,-3.7103,-3.9559,-3.8417,-3.8002,-3.7852,0.0,0.0,0.0,0.0,0.0,0.0,-1.9617,-1.952,-1.9417,-1.9208,-1.8472,-1.792,-1.7842,-1.7067,-1.6445,0.0,0.0,0.0,0.0,0.0,0.0,0.0,0.0,0.0,0.0,0.0,0.0,-1.6036,-1.6455,0.0,0.0,0.0,0.0,0.0,0.0,-1.6782,-1.7302,-1.5968,0.0,0.0,0.0,0.0,0.0,0.0,0.0,0.0,0.0,-1.8057,-1.8252,-1.9072,-1.9678,-2.0332,-2.1689,-2.3232,-2.4609,-2.501,-2.542,-2.5781,-2.6269,-2.6133,-2.5888,-2.6299,-2.581,-2.498,-2.3965,-2.3164,-2.2353,-2.1337,-2.0918,-2.083,-2.1073,-2.1268,-2.2019,-2.4033,-2.4824,-2.627,-2.9215,-3.0332,-3.1367,-3.2646,-3.3164,-3.3418,-3.3418,-3.3418,-3.3418,-3.3418,-3.3418,-3.3418,-3.3418,-3.3418,-3.3418,-3.3418,-3.3418,-3.3418,-3.3418,-3.3418,-3.3418,-3.3418,-3.3418,-3.3418,-3.3418,-3.3418,-3.3418,-3.3418,-3.3418,0.0,0.0,-3.2248,-3.3444,-3.5356,-3.5311,-3.7103,-3.9559,-3.8417,-3.8002,-3.7852,0.0,0.0,0.0,0.0,0.0,0.0,-2.0202,-1.9811,-1.9515,-1.9602,-1.9065,-1.8486,-1.8042,-1.7672,-1.7109,-1.6183,0.0,0.0,0.0,0.0,0.0,0.0,0.0,0.0,0.0,0.0,-1.6232,-1.6465,-1.6609,0.0,0.0,0.0,0.0,0.0,0.0,-1.7163,-1.7545,-1.6804,0.0,0.0,0.0,0.0,0.0,0.0,0.0,0.0,0.0,0.0,-1.8789,-1.8867,-1.918,-1.9629,-2.0156,-2.1328,-2.274,-2.4248,-2.499,-2.5488,-2.6201,-2.626,-2.6172,-2.6348,-2.5928,-2.5107,-2.373,-2.2949,-2.2187,-2.1064,-2.0723,-2.0664,-2.0801,-2.1055,-2.1726,-2.3398,-2.4023,-2.5176,-2.7676,-2.8779,-2.9902,-3.1465,-3.2256,-3.2861,-3.3369,0.0,-3.3418,-3.3418,-3.3418,-3.3418,-3.3418,-3.3418,-3.3418,-3.3418,-3.3418,-3.3418,-3.3418,-3.3418,-3.3418,-3.3418,-3.3418,-3.3418,-3.3418,-3.3418,-3.3418,-3.3408,-3.3154,0.0,0.0,-3.2843,-3.4,-3.5409,-3.6271,-3.7861,-3.9559,-3.8417,-3.8002,-3.7852,0.0,0.0,0.0,0.0,0.0,-1.9999,-2.0603,-2.007,-1.9761,-2.0281,-1.963,-1.8952,-1.8608,-1.8247,-1.7588,-1.6574,-1.6242,0.0,0.0,0.0,0.0,0.0,0.0,0.0,0.0,0.0,-1.667,-1.7077,-1.7204,-1.7416,0.0,0.0,-1.7999,-1.8378,0.0,0.0,0.0,0.0,0.0,0.0,0.0,0.0,0.0,0.0,0.0,0.0,0.0,0.0,0.0,0.0,0.0,-1.9121,-1.9248,-2.0,-2.12,-2.3262,-2.4336,-2.5039,-2.5791,-2.6094,-2.6191,-2.6191,-2.5771,-2.4961,-2.3486,-2.2725,-2.1992,-2.085,-2.0605,-2.0605,-2.0605,-2.0937,-2.157,-2.2783,-2.3437,-2.4541,-2.6709,-2.7754,-2.8887,-3.0488,-3.1338,-3.2119,-3.2969,-3.3271,-3.3418,-3.3418,-3.3418,-3.3418,-3.3418,-3.3418,-3.3418,-3.3418,-3.3418,-3.3418,-3.3418,-3.3418,-3.3418,-3.3418,-3.3418,-3.3418,-3.3418,-3.3291,-3.3232,-3.3213,-3.2793,0.0,0.0,-3.3217,-3.4321,-3.5453,-3.6918,-3.8413,-3.9559,-3.8417,-3.8002,-3.7852,0.0,0.0,0.0,0.0,0.0,0.0,-2.0603,-2.029,-2.0393,-2.1525,-2.0182,-1.9289,-1.9815,-1.8747,-1.7842,-1.7402,-1.6604,0.0,0.0,0.0,0.0,0.0,0.0,0.0,0.0,0.0,-1.7578,-1.7998,-1.8383,-1.9093,-2.0062,-2.0271,-2.0646,-2.1147,0.0,0.0,0.0,0.0,0.0,0.0,0.0,0.0,-2.1795,0.0,0.0,0.0,0.0,0.0,0.0,0.0,0.0,0.0,0.0,-1.958,-2.0273,-2.2021,-2.3428,-2.4521,-2.4961,-2.541,-2.5693,-2.5693,-2.504,-2.4199,-2.3296,-2.249,-2.1641,-2.0791,-2.0605,-2.0605,-2.0605,-2.0937,-2.1483,-2.2373,-2.3232,-2.4541,-2.6709,-2.7754,-2.8769,-3.0049,-3.0625,-3.124,-3.216,-3.293,-3.3418,-3.3418,-3.3418,0.0,-3.3418,-3.3418,-3.3418,-3.3418,-3.3418,-3.3418,-3.3418,-3.3418,-3.3418,-3.3418,-3.3418,-3.3418,-3.3408,-3.2988,-3.2803,-3.2773,0.0,0.0,0.0,-3.3084,-3.4321,-3.5453,-3.6918,-3.8413,-3.9559,-3.8417,-3.8002,-3.7852,0.0,0.0,0.0,0.0,0.0,0.0,-2.0075,-1.9963,-1.9931,-2.0096,-1.9215,-1.866,-1.893,-1.8134,-1.7646,-1.7803,-1.7328,0.0,0.0,0.0,0.0,0.0,0.0,0.0,0.0,0.0,-1.7734,-1.8403,-1.9217,-1.9952,-2.0593,-2.0918,-2.131,-2.1635,-2.1069,-2.1078,0.0,0.0,0.0,0.0,0.0,-2.3329,-2.3815,0.0,0.0,0.0,0.0,0.0,0.0,0.0,0.0,0.0,0.0,0.0,0.0,-2.0937,-2.2305,-2.353,-2.3775,-2.4082,-2.4336,-2.4053,-2.376,-2.3276,-2.2471,-2.208,-2.1631,-2.0791,-2.0605,-2.0605,-2.0605,-2.0937,-2.1668,-2.3154,-2.3857,-2.4873,-2.6748,-2.7754,-2.8769,-3.0049,-3.1631,-3.2725,0.0,0.0,-3.3418,-3.3418,-3.3418,-3.3418,-3.3418,-3.3418,-3.3418,-3.3418,-3.3418,-3.3418,-3.3418,-3.3418,-3.3418,-3.3418,-3.3418,-3.3271,-3.2988,-3.2861,-3.2637,0.0,0.0,0.0,0.0,-3.2812,-3.4097,-3.5453,-3.6918,-3.8413,-3.9559,-3.8417,-3.8002,-3.7852,0.0,0.0,0.0,0.0,0.0,0.0,-1.9798,-1.9798,-1.9817,-1.9891,-1.9193,-1.8899,-1.9399,-1.8467,-1.7991,-1.8455,-1.7965,0.0,0.0,0.0,0.0,0.0,0.0,0.0,0.0,-1.7314,-1.8231,-1.9435,-2.0045,-2.107,-2.2406,-2.2423,-2.2758,-2.3247,-2.2474,-2.2247,0.0,0.0,0.0,0.0,-2.4048,-2.4268,-2.4143,0.0,0.0,0.0,0.0,0.0,0.0,0.0,0.0,0.0,0.0,0.0,0.0,0.0,-2.1318,-2.2448,-2.2822,-2.3223,-2.3477,-2.3213,-2.3027,-2.2682,-2.2041,-2.1758,-2.1435,-2.0752,-2.0605,-2.0654,-2.0791,-2.1182,-2.1885,-2.3115,-2.3935,-2.4912,-2.6328,-2.7412,-2.8584,-3.0019,-3.1826,0.0,0.0,-3.3232,-3.3418,-3.3418,-3.3418,-3.3418,-3.3418,-3.3418,-3.3418,-3.3418,-3.3418,-3.3418,-3.3418,-3.3418,-3.3418,-3.3418,-3.3262,-3.3047,-3.2783,-3.2461,-3.2168,0.0,0.0,0.0,0.0,-3.3203,-3.4459,-3.5508,-3.753,-3.8785,-3.927,-3.8354,-3.7877,-3.7563,0.0,0.0,0.0,0.0,0.0,0.0,0.0,-1.9798,-1.9987,-2.0566,-1.9888,-1.9759,-2.0831,-1.9517,-1.8731,-1.9257,-1.8593,0.0,0.0,0.0,0.0,0.0,0.0,0.0,-1.6746,-1.7617,-1.8968,-2.079,-2.0924,-2.2415,-2.5052,-2.4599,-2.4876,-2.5611,-2.4531,-2.4017,0.0,0.0,0.0,0.0,-2.4232,-2.3956,0.0,0.0,0.0,0.0,0.0,0.0,0.0,0.0,0.0,0.0,0.0,0.0,0.0,0.0,0.0,0.0,0.0,-2.2613,-2.2955,-2.2916,-2.2643,-2.2314,-2.1894,-2.1504,0.0,-2.0693,-2.0605,-2.0752,-2.1151,-2.1611,-2.206,-2.2607,-2.3691,-2.4795,-2.5693,-2.7041,-2.856,-3.0137,-3.1475,0.0,-3.2256,-3.2969,-3.3418,-3.3418,-3.3389,0.0,-3.3379,-3.335,-3.333,-3.333,-3.333,-3.3359,-3.3418,-3.3389,-3.3379,-3.3369,-3.2949,-3.2734,-3.2676,-3.1875,-3.1504,0.0,0.0,0.0,0.0,-3.3968,-3.5233,-3.5563,-3.8388,-3.9269,-3.8844,-3.8178,-3.7626,-3.7098,0.0,0.0,0.0,0.0,0.0,0.0,0.0,0.0,0.0,0.0,-1.9344,-1.9242,-2.0268,-1.9519,-1.9053,0.0,0.0,0.0,0.0,0.0,0.0,0.0,0.0,0.0,-1.7227,-1.8022,-1.9234,-2.079,-2.2294,-2.3893,-2.5636,-2.6282,-2.6479,-2.6248,-2.5109,-2.4123,0.0,0.0,0.0,0.0,-2.5091,-2.5211,0.0,0.0,0.0,0.0,-2.002,-1.9514,0.0,0.0,0.0,0.0,0.0,0.0,0.0,0.0,-2.0068,-2.0235,-2.0469,0.0,-2.1561,-2.125,-2.1357,-2.1416,0.0,-2.1064,-2.1103,-2.0693,-2.0605,-2.084,-2.1592,-2.1816,-2.2451,-2.4235,-2.4717,-2.5449,-2.6992,-2.8896,-3.0527,-3.1572,-3.2549,-3.3125,-3.3125,-3.331,-3.3418,-3.3418,-3.3125,-3.2939,-3.2939,-3.2637,-3.2461,-3.2461,-3.2461,-3.2773,-3.3418,-3.3105,-3.2939,-3.2939,-3.2519,-3.2139,-3.1816,-3.1611,-3.1338,0.0,0.0,0.0,-3.1054,-3.2871,-3.4292,-3.5419,-3.6867,-3.8001,-3.8806,-3.7739,-3.7299,-3.7098,0.0,0.0,0.0,0.0,0.0,0.0,0.0,0.0,0.0,0.0,-1.9449,-1.9519,-2.0332,-1.9593,-1.9141,0.0,0.0,0.0,0.0,0.0,0.0,0.0,0.0,-1.7383,-1.7383,-1.8178,-1.9661,-2.1868,-2.3084,-2.478,-2.6871,-2.7167,-2.7165,-2.6813,-2.5423,-2.4311,0.0,0.0,0.0,-2.4838,-2.5385,0.0,0.0,0.0,0.0,0.0,-2.0486,-1.9788,0.0,-1.9544,-1.9555,-1.9697,0.0,0.0,0.0,0.0,-1.9775,-1.9629,-1.9629,-2.042,-2.119,-2.1182,-2.1357,-2.1465,-2.1271,-2.1045,-2.0859,-2.0654,-2.0605,-2.0879,-2.1728,-2.2041,-2.2685,-2.4228,-2.498,-2.6045,-2.7969,-2.959,-3.0967,-3.2041,-3.2744,-3.3213,0.0,-3.3242,-3.3135,-3.3135,0.0,-3.251,-3.251,-3.2295,-3.2229,-3.2229,-3.2229,-3.2383,-3.2842,-3.2617,-3.251,-3.25,-3.208,-3.1748,-3.1514,-3.1318,-3.1103,0.0,0.0,0.0,-3.2025,-3.3173,-3.4548,-3.604,-3.6964,-3.7615,-3.8077,-3.7412,-3.7023,-3.6807,0.0,0.0,0.0,0.0,0.0,0.0,0.0,0.0,0.0,0.0,0.0,0.0,0.0,0.0,0.0,0.0,0.0,0.0,0.0,0.0,0.0,0.0,-1.7642,-1.7675,-1.7568,-1.8596,-2.0425,-2.3069,-2.38,-2.5499,-2.8097,-2.7708,-2.7356,-2.6967,-2.5561,-2.4594,0.0,0.0,-2.4913,-2.4938,-2.5335,0.0,0.0,0.0,0.0,0.0,0.0,0.0,0.0,-2.0236,-2.0073,-1.9786,-2.0172,0.0,0.0,0.0,0.0,0.0,-1.9346,-2.0342,-2.1327,-2.1543,-2.1787,-2.1953,-2.1816,-2.1201,-2.0703,-2.0703,-2.0703,-2.0997,-2.1904,-2.2373,-2.2949,-2.4014,-2.5283,-2.6727,-2.8652,-2.9717,-3.0742,-3.1934,-3.2441,0.0,-3.3193,-3.291,-3.2695,0.0,0.0,-3.207,-3.207,-3.2012,-3.1973,-3.1973,-3.1973,-3.1973,-3.1973,-3.2041,-3.207,-3.206,-3.1631,-3.1426,-3.1406,-3.1055,-3.0889,-3.0889,0.0,0.0,-3.3043,-3.3923,-3.5226,-3.6629,-3.7518,-3.76,-3.7174,-3.7098,-3.6807,-3.6405,0.0,0.0,0.0,0.0,0.0,0.0,0.0,0.0,0.0,0.0,0.0,0.0,0.0,0.0,0.0,0.0,0.0,0.0,0.0,0.0,0.0,-1.8467,-1.8789,-1.8825,-1.8437,-2.0424,-2.1972,-2.2939,-2.5086,-2.6806,-2.8109,-2.8461,-2.767,-2.5837,-2.5586,-2.4933,-2.4067,-2.5059,-2.5473,-2.5448,-2.5084,0.0,0.0,0.0,0.0,0.0,0.0,0.0,0.0,-1.9953,-2.0422,-2.1266,-1.9484,0.0,0.0,0.0,0.0,0.0,-1.9619,-2.0781,-2.1533,-2.0478,-2.1328,-2.2227,-2.1504,-2.119,-2.1093,-2.1093,-2.1093,-2.1463,-2.2682,-2.2955,-2.3647,-2.5674,-2.706,-2.8135,-2.8818,-3.0,-3.0996,-3.1553,0.0,-3.2285,-3.2353,-3.2305,0.0,0.0,0.0,-3.1621,-3.1621,-3.1279,-3.1084,-3.1084,-3.1084,-3.1084,-3.1084,-3.1445,-3.1621,-3.1611,-3.1191,-3.0986,-3.0986,-3.0918,-3.0889,-3.0869,0.0,-3.1061,-3.2437,-3.3482,-3.471,-3.6042,-3.6961,-3.7262,-3.7123,-3.6707,-3.648,-3.6405,0.0,0.0,0.0,0.0,0.0,0.0,0.0,0.0,0.0,0.0,0.0,0.0,0.0,0.0,0.0,0.0,0.0,0.0,0.0,0.0,-2.0568,-2.0567,-2.0687,-2.0354,-1.9416,-2.0602,-2.2327,-2.4575,-2.5634,-2.7159,-2.9013,-2.8649,-2.7444,-2.5598,-2.5598,-2.5322,-2.4895,-2.5385,-2.5774,-2.6047,0.0,0.0,0.0,0.0,0.0,0.0,0.0,0.0,0.0,0.0,-2.1442,-2.1796,-2.0725,0.0,0.0,0.0,0.0,0.0,-1.9349,-2.0758,-2.197,-2.1966,-2.2747,-2.3437,-2.3003,-2.2555,-2.2223,-2.2223,-2.2275,-2.2529,-2.334,-2.3682,-2.4541,-2.6728,-2.7764,-2.8603,-2.9482,-3.0127,-3.0771,0.0,0.0,-3.1904,-3.2209,-3.1953,0.0,0.0,0.0,0.0,-3.1182,-3.0996,-3.0889,-3.0889,-3.0889,-3.0889,-3.0889,-3.1084,-3.1182,-3.1172,-3.0986,-3.0889,-3.0889,-3.0889,-3.0752,-3.0508,0.0,-3.1314,-3.3084,-3.3304,-3.4604,-3.6579,-3.6694,-3.6782,-3.6757,-3.6505,-3.6405,-3.6405,0.0,0.0,0.0,0.0,0.0,0.0,0.0,0.0,0.0,0.0,0.0,0.0,0.0,0.0,0.0,0.0,0.0,0.0,0.0,0.0,-2.14,-2.1817,-2.2262,-2.1896,-2.0569,-2.1502,-2.3209,-2.5759,-2.6283,-2.7516,-2.9377,-2.8373,-2.7092,-2.5598,-2.5737,-2.5724,-2.5598,-2.5737,-2.6084,-2.6449,0.0,0.0,0.0,0.0,0.0,0.0,0.0,0.0,0.0,0.0,0.0,0.0,0.0,0.0,0.0,-2.0222,-1.9246,-1.8536,-1.9628,-2.1083,-2.2569,-2.362,-2.4288,-2.4736,-2.5219,-2.4355,-2.3533,-2.3819,-2.3659,-2.3599,-2.3877,-2.4531,-2.5576,-2.7246,-2.8125,-2.8935,-2.9912,-3.0225,-3.0615,-3.1289,-3.1367,-3.1504,-3.1836,0.0,0.0,0.0,0.0,0.0,-3.0889,-3.0889,-3.0889,-3.0889,-3.0889,-3.0889,-3.0889,-3.0889,-3.0889,-3.0889,-3.0889,-3.083,-3.0732,-3.0732,-3.0478,-3.0039,-3.027,-3.1587,-3.3608,-3.3424,-3.4795,-3.6996,-3.6568,-3.6405,-3.6405,-3.6405,-3.6405,-3.6405,0.0,0.0,0.0,0.0,0.0,0.0,0.0,0.0,0.0,0.0,0.0,0.0,0.0,0.0,0.0,0.0,0.0,0.0,0.0,0.0,-2.2389,-2.0779,-2.2855,-2.337,-2.1907,-2.4625,-2.5745,-2.5053,-2.7495,-2.8525,-2.821,-2.762,-2.6716,-2.5624,-2.6197,-2.6135,-2.5636,-2.6197,-2.6461,-2.6449,-2.5824,0.0,0.0,0.0,0.0,0.0,0.0,0.0,0.0,0.0,0.0,0.0,0.0,0.0,-2.1241,-2.0727,-1.9911,-1.9588,-2.1258,-2.2459,-2.342,-2.4327,-2.4926,-2.5804,-2.7603,-2.6185,-2.4845,-2.5999,-2.5209,-2.4336,-2.4365,-2.5713,-2.6875,-2.7041,-2.8418,-2.9567,-2.96,0.0,-3.0859,-3.0928,-3.0937,-3.0947,0.0,0.0,0.0,0.0,0.0,0.0,-3.0889,-3.0889,-3.0889,-3.0889,-3.0889,-3.0889,-3.0889,-3.0889,-3.0889,-3.0889,-3.0889,-3.0664,-3.0244,-3.0244,-3.0019,-2.9702,-3.056,-3.1772,-3.3093,-3.3942,-3.5126,-3.6468,-3.643,-3.6405,-3.6405,-3.6405,-3.6405,-3.6405,0.0,0.0,0.0,0.0,0.0,0.0,0.0,0.0,0.0,0.0,0.0,0.0,0.0,0.0,0.0,0.0,0.0,0.0,0.0,-2.1721,-2.1541,-2.1576,-2.1901,-2.222,-2.243,-2.4482,-2.5849,-2.6434,-2.8108,-2.8612,-2.8097,-2.7544,-2.7055,-2.664,-2.6549,-2.6373,-2.6185,-2.6399,-2.6499,-2.6449,-2.5824,-2.5285,0.0,0.0,0.0,0.0,0.0,0.0,0.0,0.0,-2.2983,-2.3798,-2.2542,-2.2191,-2.2092,-2.1579,-2.0782,-2.0378,-2.1571,-2.3176,-2.4776,-2.5983,-2.7222,-2.8186,-2.8443,-2.7363,-2.6654,-2.781,-2.6972,-2.5957,-2.5693,-2.6396,-2.7109,-2.7373,-2.9126,-3.0533,-3.0799,-3.2138,-3.3082,-3.3082,-3.3404,-3.3642,0.0,0.0,0.0,0.0,0.0,0.0,-3.2613,-3.1795,-3.137,-3.137,-3.0502,-3.0068,-3.0068,-3.0068,-3.0068,-3.0078,-3.0332,-3.0361,-3.0185,-2.9932,-2.957,-2.9205,-3.0463,-3.163,-3.265,-3.3904,-3.5174,-3.6405,-3.6405,-3.6405,-3.6405,-3.6405,-3.6405,-3.6405,0.0,0.0,0.0,0.0,0.0,0.0,0.0,0.0,0.0,0.0,0.0,0.0,0.0,0.0,0.0,0.0,0.0,0.0,-2.1421,-2.1074,-2.1109,-2.1666,-2.1662,-2.198,-2.2622,-2.4496,-2.5887,-2.6747,-2.7853,-2.821,-2.7833,-2.7281,-2.7153,-2.7291,-2.6738,-2.6587,-2.6738,-2.6373,-2.6223,-2.6185,-2.5749,-2.5184,0.0,0.0,0.0,0.0,0.0,0.0,0.0,0.0,-2.2824,-2.3427,-2.3183,-2.2794,-2.2448,-2.2296,-2.1914,-2.1712,-2.2567,-2.4296,-2.6136,-2.7287,-2.8674,-2.9849,-3.0005,-2.9251,-2.8838,-3.0,-2.9024,-2.7871,-2.7332,-2.7392,-2.7742,-2.8243,-2.9805,-3.1222,-3.1955,-3.3244,-3.4131,-3.4131,-3.4497,0.0,0.0,0.0,0.0,0.0,0.0,0.0,0.0,-3.2737,-3.2212,-3.2212,-3.0949,-3.0208,-3.0208,-2.9839,-2.9626,-2.9626,-2.9726,-2.9795,-2.9785,-2.9492,-2.9131,-2.8819,-3.0642,-3.1734,-3.2431,-3.4264,-3.5571,-3.6405,-3.6405,-3.6405,-3.6405,-3.6405,-3.6405,-3.6405,0.0,0.0,0.0,0.0,0.0,0.0,0.0,0.0,0.0,0.0,0.0,0.0,0.0,0.0,0.0,0.0,0.0,0.0,-2.0416,-2.1313,-2.1479,-2.0643,-2.2428,-2.3164,-2.2528,-2.5126,-2.619,-2.5619,-2.6744,-2.7268,-2.7268,-2.6751,-2.6788,-2.7291,-2.6738,-2.6788,-2.7193,-2.6063,-2.5586,-2.5586,-2.5586,-2.4946,-2.4004,0.0,0.0,0.0,0.0,0.0,0.0,0.0,-2.2309,-2.238,-2.2932,-2.2549,-2.2075,-2.2854,-2.3296,-2.3713,-2.4569,-2.6025,-2.7419,-2.7971,-2.8976,-3.0394,-3.2579,-3.2008,-3.1374,-3.2648,-3.1459,-2.9972,-2.9155,-2.8943,-2.904,-2.9623,-3.0464,-3.1476,-3.2823,-3.338,-3.3629,-3.3629,-3.364,0.0,0.0,0.0,0.0,0.0,0.0,0.0,0.0,-3.3618,-3.3629,-3.3629,-3.2309,-3.1627,-3.1627,-3.0299,-2.9616,-2.9607,-2.9166,-2.8916,-2.8916,-2.8916,-2.8682,-2.8451,-3.1133,-3.228,-3.2532,-3.5246,-3.6405,-3.6405,-3.6405,-3.6405,-3.6392,-3.6392,-3.6392,-3.6392,0.0,0.0,0.0,0.0,0.0,0.0,0.0,0.0,0.0,0.0,0.0,0.0,0.0,0.0,0.0,0.0,0.0,0.0,-1.9701,-1.9977,-2.0082,-1.9957,-2.0522,-2.1206,-2.2059,-2.383,-2.5428,-2.6792,-2.6739,-2.6939,-2.7268,-2.6751,-2.6587,-2.6738,-2.6562,-2.6147,-2.5523,-2.5197,-2.5059,-2.4988,-2.4632,-2.428,-2.3916,0.0,0.0,0.0,0.0,0.0,0.0,0.0,0.0,0.0,-2.2932,-2.3492,-2.3839,-2.3273,-2.371,-2.4384,-2.428,-2.5737,-2.7419,-2.7971,-3.0118,-3.2277,-3.2973,-3.2345,-3.1795,-3.2371,-3.1818,-3.1173,-3.0926,-3.0861,-3.0905,-3.1097,-3.2402,-3.3546,-3.3945,-3.5238,-3.6134,-3.6134,-3.6462,0.0,0.0,0.0,0.0,0.0,0.0,0.0,0.0,-3.4665,-3.4167,-3.4167,-3.283,-3.2101,-3.2101,-3.1698,-3.149,-3.149,-3.135,-3.0422,-2.8906,-2.8613,-2.8408,-2.8451,-3.1133,-3.228,-3.2532,-3.5246,-3.6132,-3.5793,-3.5793,-3.5554,-3.5203,-3.5203,-3.5203,-3.5203,0.0,0.0,0.0,0.0,0.0,0.0,0.0,0.0,0.0,0.0,0.0,-2.0691,0.0,0.0,0.0,0.0,0.0,0.0,0.0,-1.931,-1.9413,-1.9443,-1.9942,-2.1016,-2.27,-2.3778,-2.4971,-2.6302,-2.5975,-2.5975,-2.6302,-2.6176,-2.6273,-2.6499,-2.6499,-2.6122,-2.5448,-2.5008,-2.4662,-2.4469,-2.413,-2.3866,-2.3602,0.0,0.0,0.0,0.0,0.0,0.0,0.0,0.0,0.0,-2.2681,-2.3246,-2.3747,-2.3521,-2.4268,-2.5247,-2.5812,-2.7256,-2.8787,-2.9553,-3.1248,-3.2855,-3.3307,-3.3382,-3.3437,-3.3857,-3.3535,-3.3108,-3.282,-3.2595,0.0,-3.2722,-3.3672,-3.4581,-3.5126,-3.6143,-3.6908,-3.6908,0.0,0.0,0.0,0.0,0.0,0.0,0.0,0.0,0.0,-3.5619,-3.5174,-3.5174,-3.3859,-3.3155,-3.3155,-3.2593,-3.228,-3.228,-3.228,-3.1472,-2.9888,-2.9343,-2.9102,-2.924,-3.1677,-3.3091,-3.3677,-3.5147,-3.5516,-3.5169,-3.5169,-3.4969,-3.468,-3.468,-3.468,-3.468,0.0,0.0,-2.0062,-2.0666,0.0,0.0,0.0,0.0,0.0,-1.9811,-2.0327,-2.0679,0.0,0.0,0.0,-2.0616,0.0,0.0,0.0,0.0,-1.9427,-1.9238,-2.0551,-2.2171,-2.4023,-2.4519,-2.4713,-2.4713,-2.4713,-2.4738,-2.48,-2.536,-2.585,-2.6348,-2.6399,-2.6336,-2.6122,-2.5034,-2.4268,-2.3766,-2.3766,-2.3452,-2.3007,-2.3565,0.0,0.0,0.0,0.0,0.0,0.0,0.0,0.0,-2.2372,-2.2422,-2.2661,-2.364,-2.472,-2.605,-2.8098,-2.9527,-3.0733,-3.1863,-3.2252,-3.2654,-3.3734,-3.4751,-3.5558,-3.6153,-3.5855,-3.532,-3.4619,-3.409,-3.3947,-3.4497,-3.4581,-3.503,-3.6216,-3.6405,-3.6405,-3.6405,0.0,0.0,0.0,0.0,0.0,0.0,0.0,0.0,0.0,-3.6405,-3.6405,-3.6405,-3.5174,-3.4533,-3.4581,-3.3212,-3.2519,-3.2564,-3.2519,-3.2221,-3.1596,-3.0801,-3.043,-3.0623,-3.2561,-3.4193,-3.5382,-3.4881,-3.4688,-3.465,-3.465,-3.4613,-3.4575,-3.4575,-3.4575,-3.4575,0.0,0.0,-2.0679,-2.1245,0.0,0.0,0.0,0.0,-2.0352,-1.9861,-2.0327,-2.0515,-2.0037,-1.9987,0.0,-1.9987,-1.9874,0.0,0.0,0.0,-2.033,-2.0128,-2.2207,-2.3754,-2.46,-2.4343,-2.418,-2.418,-2.418,-2.4393,-2.48,-2.536,-2.5435,-2.5197,-2.5598,-2.5059,-2.3772,-2.3138,-2.2535,-2.2033,-2.2033,-2.1958,-2.1857,-2.1983,-2.1882,0.0,0.0,0.0,0.0,0.0,0.0,0.0,-2.2794,-2.3246,-2.359,-2.3346,-2.4406,-2.5799,-2.6776,-2.8122,-2.9654,-3.1185,-3.2554,-3.3709,-3.4399,-3.4726,-3.4926,-3.5052,-3.5282,-3.544,-3.5307,-3.5533,-3.5817,-3.5941,-3.5966,-3.6061,-3.6358,-3.6405,-3.6405,-3.6405,0.0,0.0,0.0,0.0,0.0,0.0,0.0,0.0,-3.638,-3.6405,-3.6405,-3.6405,-3.565,-3.5484,-3.5966,-3.477,-3.4409,0.0,-3.4397,-3.3558,-3.2394,-3.1634,-3.1596,-3.22,-3.2665,-3.3635,-3.4843,-3.4731,-3.4462,-3.4073,-3.4073,-3.3809,-3.3432,-3.3432,-3.3432,-3.3432,0.0,0.0,0.0,0.0,0.0,0.0,0.0,0.0,-2.1182,-2.0352,-2.0503,-2.0578,-2.0277,-1.9962,0.0,0.0,-1.9798,-1.9643,0.0,0.0,-2.048,-2.0925,-2.2488,-2.3571,-2.3985,-2.4004,-2.3866,-2.359,-2.359,-2.3866,-2.4456,-2.5511,-2.5862,-2.5624,-2.5921,-2.5234,-2.386,-2.3032,-2.2234,-2.1493,-2.1493,-2.1493,-2.1493,-2.1493,-2.1493,-2.1493,-2.1493,0.0,0.0,0.0,0.0,0.0,0.0,0.0,-2.2836,-2.3032,-2.391,-2.5184,-2.6804,-2.8461,-3.0131,-3.1788,-3.2855,-3.3583,-3.3872,-3.3935,-3.3935,-3.3935,-3.4575,-3.5107,-3.5107,-3.5604,-3.5968,-3.5968,-3.6194,-3.6405,-3.6405,-3.6405,-3.6304,-3.5994,0.0,0.0,0.0,0.0,0.0,0.0,0.0,-3.5232,-3.5554,-3.5579,-3.5579,-3.5579,-3.5303,-3.529,-3.5579,-3.5014,-3.4818,-3.5107,-3.4818,-3.4202,-3.325,-3.2429,-3.2321,-3.2734,-3.3107,-3.3658,-3.4311,-3.4035,-3.3771,-3.3508,-3.3508,-3.3332,-3.3124,-3.3124,-3.3124,-3.3124,0.0,0.0,0.0,0.0,0.0,0.0,0.0,0.0,0.0,-2.083,-2.0779,-2.0792,-2.0704,-2.015,-1.9798,0.0,0.0,0.0,-1.9605,0.0,0.0,-2.1719,-2.2396,-2.2914,-2.3258,-2.3653,-2.3584,-2.3108,-2.3007,-2.3489,-2.4456,-2.5657,-2.626,-2.6336,-2.6248,-2.5561,-2.4424,-2.3296,-2.2209,-2.1192,-2.1192,-2.1192,-2.1192,-2.1192,-2.1192,-2.1204,-2.1305,-2.1644,-2.2046,-2.2133,0.0,0.0,0.0,0.0,-2.1543,-2.2531,-2.3221,-2.4255,-2.6728,-2.89,-3.0871,-3.2516,-3.3006,-3.3124,-3.3124,-3.3124,-3.3124,-3.3124,-3.3872,-3.4575,-3.4575,-3.4994,-3.5357,-3.5357,-3.578,-3.6128,-3.6128,-3.6128,-3.5906,-3.5408,0.0,0.0,0.0,0.0,0.0,0.0,0.0,-3.4625,-3.4713,-3.468,-3.468,-3.468,-3.4625,-3.4625,-3.468,-3.4537,-3.4487,-3.4575,-3.4487,-3.4198,-3.3727,-3.3083,-3.2761,-3.2783,-3.3479,-3.3759,-3.3721,-3.3269,-3.3124,-3.3124,-3.3124,-3.3124,-3.3124,-3.3124,-3.3124,-3.3124,0.0,0.0,0.0,0.0,0.0,0.0,0.0,0.0,0.0,0.0,-2.1106,-2.1232,-2.0742,-2.015,-1.9798,-1.9798,-1.9798,-1.9527,0.0,0.0,0.0,-2.279,-2.3005,-2.3317,-2.3879,-2.3434,-2.3183,-2.3108,-2.2631,-2.3703,-2.6147,-2.5385,-2.5272,-2.5686,-2.5247,-2.4374,-2.3258,-2.2184,-2.1054,-2.0024,-2.0024,-2.0024,-2.0024,-2.0024,-2.0024,-2.0087,-2.0629,-2.0842,-2.0981,-2.1443,-2.1644,0.0,0.0,0.0,-2.093,-2.1559,-2.2096,-2.2836,-2.418,-2.7168,-3.0294,-3.1926,-3.2704,-3.3124,-3.3124,-3.3124,-3.3124,-3.3124,-3.3571,-3.401,-3.401,-3.4462,-3.4826,-3.4826,-3.4889,-3.4939,-3.4939,-3.4939,-3.4914,-3.4839,0.0,0.0,0.0,0.0,0.0,0.0,-3.401,-3.4223,-3.47,-3.468,-3.468,-3.468,-3.4261,-3.4236,-3.4713,-3.3771,-3.3533,-3.401,-3.352,-3.3257,-3.3181,-3.3083,-3.3065,-3.3052,-3.3176,-3.3224,-3.3181,-3.3106,-3.3124,-3.3124,-3.3124,-3.3124,-3.3124,-3.3124,-3.3124,-3.3124,0.0,0.0,0.0,0.0,0.0,0.0,0.0,0.0,0.0,0.0,0.0,-2.0968,-2.0717,-2.015,-1.9798,-1.9798,-1.9798,0.0,0.0,0.0,0.0,-2.1719,-2.2046,-2.2334,-2.2585,-2.2347,-2.2209,-2.2209,-2.197,-2.3263,-2.5963,-2.5485,-2.6389,-2.836,-2.718,-2.6038,-2.487,-2.2811,-2.1305,-2.0289,-1.9936,-2.0363,-2.1104,-2.0162,-2.0388,-2.1117,-2.0426,-2.0415,-2.0729,-2.0968,-2.1257,-2.1493,-2.1493,0.0,0.0,0.0,-2.1446,-2.2435,-2.5109,-2.7306,-2.939,-3.165,-3.2403,-3.2679,-3.3006,-3.3124,-3.3124,-3.3124,-3.3269,-3.3432,-3.3432,-3.3884,-3.4261,-3.4261,-3.4512,-3.468,-3.468,-3.468,-3.4613,-3.4299,0.0,0.0,0.0,0.0,0.0,0.0,-3.3432,-3.3545,-3.3784,-3.3796,-3.3796,-3.3796,-3.3558,-3.3558,-3.3796,-3.3319,-3.3206,-3.3432,-3.3194,-3.3124,-3.3124,-3.3124,-3.3124,-3.3124,-3.3124,-3.3124,-3.3124,-3.3124,-3.3124,-3.3124,-3.3124,-3.3124,-3.3124,-3.3124,-3.3124,-3.3124,0.0,0.0,0.0,0.0,0.0,0.0,0.0,0.0,0.0,0.0,0.0,-2.0691,-2.0691,0.0,0.0,0.0,-1.9798,0.0,0.0,0.0,0.0,0.0,0.0,-2.1307,-2.1307,-2.1307,-2.1307,-2.1307,-2.1307,-2.2912,-2.6025,-2.6025,-2.7896,-3.1148,-2.9051,-2.7406,-2.6109,-2.3577,-2.2046,-2.127,-2.0665,-2.128,-2.2393,-2.1594,-2.2046,-2.2924,-2.1255,-2.084,-2.1043,-2.0616,-2.0754,-2.1054,-2.1054,-2.0778,0.0,0.0,0.0,-2.1782,-2.5121,-2.6628,-2.7896,-3.052,-3.1587,-3.2152,-3.2729,-3.2968,-3.3124,0.0,-3.3124,-3.3124,-3.3124,-3.342,-3.3696,-3.3696,-3.4035,-3.4299,-3.4299,-3.4299,-3.4148,0.0,0.0,0.0,0.0,0.0,0.0,0.0,-3.3124,-3.3124,-3.3124,-3.3124,-3.3124,-3.3124,-3.3124,-3.3124,-3.3124,-3.3124,-3.3124,-3.3124,-3.3124,-3.3124,-3.3124,-3.3124,-3.3124,-3.3124,-3.3124,-3.3124,-3.3124,-3.3124,-3.3124,-3.3124,-3.3124,-3.3124,-3.3124,-3.3124,-3.3124,-3.3124,0.0,0.0,0.0,0.0,0.0,0.0,0.0,0.0,0.0,0.0,0.0,-2.0691,-2.0691,-2.015,-1.9798,-1.9798,-1.9798,0.0,0.0,0.0,0.0,0.0,0.0,0.0,-2.0729,-2.0729,-2.0729,-2.0729,-2.0729,-2.2967,-2.7193,-2.7193,-2.9252,-3.2847,-2.9553,-2.7193,-2.5523,-2.3785,-2.3032,-2.2932,-2.2397,-2.2518,-2.3221,-2.4732,-2.5347,-2.5209,-2.3521,-2.2619,-2.1983,-2.0376,-1.9874,-1.9886,-1.9886,-1.9874,-1.9849,0.0,0.0,0.0,-2.2083,-2.3753,-2.549,-2.7758,-2.9892,-3.1574,-3.2127,-3.2679,-3.3124,-3.3124,-3.3124,-3.3124,-3.3124,-3.3106,-3.3162,-3.3162,-3.3187,-3.3156,-3.3156,-3.3156,-3.3156,0.0,0.0,0.0,0.0,0.0,0.0,0.0,-3.3124,-3.3124,-3.3124,-3.3124,-3.3124,-3.3124,-3.3124,-3.3124,-3.3124,-3.3124,-3.3124,-3.3124,-3.3124,-3.3124,-3.3124,-3.3124,-3.3124,-3.3124,-3.3124,-3.3124,-3.3124,-3.3124,-3.3124,-3.3124,-3.3124,-3.3124,-3.3124,-3.3124,-3.3124,-3.3124,0.0,0.0,0.0,0.0,0.0,0.0,0.0,0.0,0.0,0.0,0.0,0.0,0.0,-1.9924,-1.9798,-1.9798,-1.9798,0.0,0.0,0.0,0.0,0.0,0.0,0.0,-2.0112,-2.0112,-2.0112,-2.0112,-2.0112,-2.1845,-2.5184,-2.5536,-2.6829,-2.8862,-2.8699,-2.8298,-2.7532,-2.4412,-2.3321,-2.364,-2.3045,-2.3998,-2.5737,-2.5272,-2.6189,-2.7433,-2.5448,-2.4142,-2.3301,-2.2698,-2.1543,-2.0377,-2.0377,-2.01,-1.9798,-1.9798,-1.9798,-2.0175,-2.1845,-2.2749,-2.3828,-2.6402,-2.8172,-2.9528,-3.0444,-3.1625,-3.2516,-3.2516,-3.2817,-3.3124,-3.3124,-3.3124,-3.3124,-3.3124,-3.3124,-3.3124,-3.3124,-3.3124,-3.3124,0.0,0.0,0.0,0.0,0.0,0.0,0.0,0.0,-3.3124,-3.3124,-3.3124,-3.3124,-3.3124,-3.3124,-3.3124,-3.3124,-3.3124,-3.3124,-3.3124,-3.3124,-3.3124,-3.3124,-3.3124,-3.3124,-3.3124,-3.3124,-3.3124,-3.3124,-3.3124,-3.3124,-3.3124,-3.3124,-3.3124,-3.3124,-3.3124,-3.3124,-3.3124,0.0,0.0,0.0,-2.3108,0.0,-2.1493,-2.1493,-2.0526,-1.9798,-1.9798,0.0,0.0,0.0,0.0,-1.9798,-1.9798,-1.9798,-1.9798,-1.9798,-1.9798,0.0,0.0,0.0,0.0,-1.9798,-1.9798,-1.9798,-1.9798,-1.9999,-2.133,-2.3715,-2.428,-2.5322,-2.6788,-2.7105,-2.7682,-2.8197,-2.5423,-2.4469,-2.4782,-2.4406,-2.5473,-2.7268,-2.7092,-2.8059,-2.9239,-2.7607,-2.6302,-2.5285,-2.4732,-2.3314,-2.1747,-2.137,-2.0564,-1.9798,-1.9798,-1.9798,-2.0049,-2.1167,-2.1744,-2.2661,-2.5292,-2.659,-2.7708,-2.9402,-3.0633,-3.1499,-3.1863,-3.239,-3.2842,-3.3043,-3.3124,-3.3124,-3.3124,-3.3124,-3.3124,-3.3124,-3.3124,0.0,0.0,0.0,0.0,0.0,0.0,0.0,0.0,0.0,0.0,-3.3124,-3.3124,-3.3124,-3.3124,-3.3124,-3.3124,-3.3124,-3.3124,-3.3124,-3.3124,-3.3124,-3.3124,-3.3124,-3.3124,-3.3124,-3.3124,-3.3124,-3.3124,-3.3124,-3.3124,-3.3124,-3.3124,-3.3124,-3.3124,-3.3124,-3.3124,-3.3124,-3.3124,-2.3753,-2.3496,-2.3108,-2.3108,-2.2234,-2.1506,-2.1506,-2.0564,-1.9849,-1.9849,0.0,0.0,0.0,0.0,0.0,-1.9823,-1.9823,-1.9823,-1.9798,-1.9798,0.0,0.0,0.0,0.0,-1.9798,-1.9798,-1.9798,-1.9798,-2.039,-2.1468,-2.3045,-2.3653,-2.5071,-2.7042,-2.4933,-2.5172,-2.7118,-2.6587,-2.6399,-2.6499,-2.6461,-2.6839,-2.7706,-3.0331,-3.1072,-3.062,-3.0068,-2.9139,-2.7934,-2.6276,-2.4971,-2.3841,-2.2661,-2.1154,-1.9823,-1.9811,-1.9811,-1.9823,0.0,0.0,0.0,-2.4155,-2.5096,-2.6226,-2.9001,0.0,-3.0005,-3.1097,-3.175,-3.2315,-3.296,-3.3074,-3.3074,-3.3074,-3.3099,-3.3124,-3.3124,-3.3124,0.0,0.0,0.0,0.0,0.0,0.0,0.0,0.0,-3.3124,-3.3124,-3.3124,-3.3124,-3.3124,-3.3124,-3.3124,-3.3124,-3.3124,-3.3124,-3.3124,-3.3124,-3.3124,-3.3124,-3.3124,-3.3124,-3.3124,-3.3124,-3.3124,-3.3124,-3.3124,-3.3124,-3.3124,-3.3124,-3.3124,-3.3124,-3.3124,-3.3124,-3.3124,-3.3124,-2.3208,-2.3208,-2.3108,-2.3108,-2.2518,-2.2083,-2.2083,-2.1481,-2.1029,0.0,0.0,0.0,-2.0503,-2.0453,-2.0453,-2.0453,-2.0453,-2.0277,-1.9823,-1.9798,-1.9798,-1.9798,-1.9798,-1.9798,-1.9798,-1.9798,-1.9798,-1.9798,-1.9962,-2.0489,-2.1383,-2.192,-2.2723,-2.369,-2.3904,-2.4104,-2.4186,-2.3263,-2.4287,-2.6424,-2.5598,-2.7042,-2.9729,-3.0093,-3.1135,-3.2315,-3.175,-3.0846,-2.9792,-2.8925,-2.708,-2.4757,-2.2447,-2.1157,-2.0377,-1.9924,-2.01,-2.0365,-1.9911,0.0,0.0,0.0,0.0,0.0,0.0,0.0,-2.7844,-2.9302,-3.0068,-3.0746,-3.1687,-3.1851,-3.1851,-3.1851,-3.2541,-3.3124,-3.3124,-3.3124,0.0,0.0,0.0,0.0,0.0,0.0,0.0,0.0,-3.3124,-3.3124,-3.3124,-3.3124,-3.3124,-3.3124,-3.3124,-3.3124,-3.3124,-3.3124,-3.3124,-3.3124,-3.3124,-3.3124,-3.3124,-3.3124,-3.3124,-3.3124,-3.3124,-3.3124,-3.3124,-3.3124,-3.3124,-3.3124,-3.3124,-3.3124,-3.3124,-3.3124,-3.3124,-3.3124,-2.2945,-2.3108,-2.3108,-2.3108,-2.2844,-2.2631,-2.2631,-2.2184,-2.1832,0.0,0.0,0.0,-2.1069,-2.1031,-2.0943,-2.0717,-2.0465,-2.0189,-1.9823,-1.9798,-1.9798,-1.9798,-1.9798,-1.9798,-1.9798,-1.9798,-1.9798,-1.9798,-1.9798,-1.9974,-2.0339,-2.0627,-2.1079,-2.1644,-2.2058,-2.2322,-2.2343,-2.1255,-2.2615,-2.5519,-2.5988,-2.7544,-2.9666,-3.0482,-3.1449,-3.239,-3.2528,-3.2014,-3.1235,-3.0909,-2.88,-2.5812,-2.305,-2.1958,-2.1493,-2.049,-2.0727,-2.123,-2.0665,-2.0779,-2.1207,-2.1911,0.0,0.0,-2.4255,-2.5071,-2.5963,0.0,-2.8699,-2.9428,-3.052,-3.0721,-3.0796,-3.1035,-3.1625,-3.2202,-3.2654,-3.2918,0.0,0.0,0.0,0.0,0.0,-3.3124,-3.3124,-3.3124,-3.3124,-3.3124,-3.3124,-3.3124,-3.3124,-3.3124,-3.3124,-3.3124,-3.3124,-3.3124,-3.2955,-3.2717,-3.2717,-3.2717,-3.2717,-3.2717,-3.2855,-3.3124,-3.3124,-3.3124,-3.3124,-3.3124,-3.3124,-3.3124,-3.3124,-3.3124,-3.3124,-3.3124,-3.3124,-3.3124,0.0,-2.3108,-2.312,-2.3195,-2.3195,-2.3221,-2.3283,-2.2819,-2.2523,0.0,-2.2108,-2.1794,-2.1857,-2.1694,-2.1405,-2.1006,-2.03,-1.9899,-1.9899,-1.9836,-1.9798,-1.9798,-1.9798,-1.9798,-1.9798,-1.9798,-1.9798,-1.9798,-1.9798,-1.9798,-1.9798,-1.9798,-2.0075,-2.0578,-2.0037,-2.0363,-2.1242,-2.0363,-2.1506,-2.413,-2.6703,-2.7959,-2.8574,-3.1148,-3.1888,-3.1712,-3.2759,-3.2754,-3.229,-3.2164,-3.0093,-2.7092,-2.4324,-2.3471,-2.3133,-2.1471,-2.1719,-2.246,-2.1832,-2.1719,-2.2096,-2.3464,-2.2786,0.0,-2.4619,-2.4506,-2.4456,0.0,-2.7205,-2.7921,-2.9114,-2.9327,-2.9503,-3.0068,-3.0306,-3.0821,-3.1964,-3.2566,0.0,0.0,0.0,0.0,-3.3111,-3.3124,-3.3056,-3.3023,-3.2918,-3.2893,-3.2893,-3.2893,-3.2893,-3.2893,-3.2893,-3.2893,-3.2893,-3.2893,-3.2629,-3.2127,-3.2127,-3.2127,-3.2127,-3.2127,-3.2403,-3.2893,-3.2955,-3.298,-3.3023,-3.3056,-3.3124,-3.3124,-3.3124,-3.3124,-3.3124,-3.3124,-3.3124,-3.3124,-2.2895,-2.3108,-2.3246,-2.3753,-2.3828,-2.3979,-2.4399,-2.4017,-2.3828,-2.4268,-2.3853,-2.3678,-2.4117,-2.2962,-2.2284,-2.2594,-2.133,-2.0515,-2.0515,-2.0062,-1.9798,-1.9798,-1.9798,-1.9798,-1.9798,-1.9798,-1.9798,-1.9798,-1.9798,-1.9798,-1.9798,-1.9798,-1.9861,-1.9962,-1.9849,-1.9924,-2.0175,-2.0865,-2.1983,-2.3396,-2.485,-2.7067,-2.9616,-3.1022,-3.2051,-3.2822,-3.3006,-3.3006,-3.2767,-3.1863,-3.0545,-2.89,-2.6587,-2.5845,-2.5398,-2.3276,-2.3421,-2.4073,-2.3058,-2.315,-2.3364,-2.2786,-2.3088,0.0,-2.2485,-2.2824,-2.3396,0.0,-2.3998,-2.455,-2.6126,-2.6414,-2.6603,-2.7216,-2.8386,-2.9792,-3.1336,-3.165,0.0,0.0,0.0,0.0,-3.3031,-3.3124,-3.288,-3.2416,-3.1976,-3.1712,-3.1712,-3.1712,-3.1712,-3.1712,-3.1712,-3.1712,-3.1712,-3.1712,-3.1662,-3.1549,-3.1549,-3.1549,-3.1549,-3.1549,-3.1612,-3.175,-3.219,-3.239,-3.2416,-3.288,-3.3124,-3.3124,-3.3124,-3.3124,-3.3124,-3.3124,-3.3124,-3.3124,-2.2531,-2.292,-2.3283,-2.3891,-2.423,-2.4594,-2.5121,-2.4971,-2.4996,-2.5561,-2.5398,-2.5121,-2.4813,-2.3816,-2.312,-2.3108,-2.1619,-2.0691,-2.0691,-2.0151,-1.9798,-1.9798,-1.9798,-1.9798,-1.9798,-1.9798,-1.9798,-1.9798,-1.9798,-1.9798,-1.9798,-1.9798,-2.01,-2.0614,-2.0049,-2.0112,-2.0639,-2.0639,-2.1292,-2.2548,-2.5347,-2.7795,-2.9967,-3.1612,-3.2579,-3.3124,-3.3124,-3.3124,-3.2817,-3.116,-3.0231,-2.9402,-2.7203,-2.6688,-2.6575,-2.4858,-2.4971,-2.5398,-2.4249,-2.4161,-2.4343,-2.4029,-2.3753,0.0,0.0,-2.2937,-2.2932,-2.3772,-2.3496,-2.3534,-2.4958,-2.4983,-2.4983,-2.5548,-2.6804,-2.7984,-2.885,-3.0357,-3.1486,0.0,0.0,0.0,-3.2202,-3.2227,-3.2114,-3.1825,-3.1549,-3.1386,-3.1386,-3.1386,-3.1386,-3.1386,-3.1386,-3.1386,-3.1386,-3.1386,-3.126,-3.0997,-3.0997,-3.0997,-3.0997,-3.0997,-3.1148,-3.1399,-3.1687,-3.18,-3.1825,-3.2114,-3.2403,-3.2667,-3.2968,-3.3124,-3.3124,-3.3124,-3.3124,-3.3124,-2.2046,-2.2569,-2.3133,-2.3728,-2.4293,-2.4845,-2.536,-2.536,-2.5536,-2.6235,-2.6512,-2.6348,-2.5502,-2.477,-2.4243,-2.4073,-2.2284,-2.127,-2.1483,-2.0627,-2.0125,-2.0125,-1.9924,-1.9849,-1.9962,-1.9861,-1.9798,-1.9798,-1.9798,-1.9798,-1.9798,-1.9798,-2.0351,-2.132,-2.0376,-2.0589,-2.1581,-2.0564,-2.1029,-2.2761,-2.6339,-2.8273,-2.9252,-3.1675,-3.2604,-3.2641,-3.2968,-3.3124,-3.2767,-3.0771,-3.0105,-2.9716,-2.7517,-2.7266,-2.7542,-2.6151,-2.6273,-2.6575,-2.5435,-2.5209,-2.5322,-2.5423,-2.4682,-2.3973,0.0,0.0,0.0,-2.3966,-2.3421,0.0,0.0,0.0,0.0,0.0,0.0,0.0,0.0,-2.8422,0.0,0.0,0.0,0.0,0.0,-3.0947,-3.0896,-3.1223,-3.0846,-3.0746,-3.106,-3.1085,-3.1085,-3.1085,-3.1085,-3.1085,-3.1085,-3.1085,-3.0871,-3.0457,-3.0457,-3.0457,-3.0457,-3.0457,-3.0683,-3.1085,-3.1198,-3.1248,-3.1248,-3.1348,-3.165,-3.2102,-3.2692,-3.298,-3.3111,-3.2955,-3.298,-3.3056,-2.1509,-2.202,-2.2556,-2.3108,-2.3672,-2.428,-2.482,-2.4494,-2.4544,-2.5561,-2.6565,-2.7331,-2.7695,-2.6339,-2.5988,-2.7419,-2.4637,-2.3246,-2.428,-2.2435,-2.1292,-2.1292,-2.0338,-2.0037,-2.0578,-2.0062,-1.9798,-1.9798,-1.9798,-1.9798,-1.9798,-1.9798,-2.0137,-2.0779,-2.0654,-2.1207,-2.2184,-2.1556,-2.3105,-2.5971,-2.6474,-2.6449,-2.6427,-2.9666,-3.0896,-3.1085,-3.2554,-3.3124,-3.2923,-3.1637,-3.121,-3.0821,-2.8612,-2.8649,-2.9089,-2.7014,-2.714,-2.767,-2.6612,-2.6663,-2.6666,-2.5259,-2.5862,-2.6076,-2.3238,0.0,-2.3439,-2.2133,0.0,0.0,0.0,0.0,0.0,0.0,0.0,0.0,-2.3559,-2.5096,-2.6804,-2.8298,0.0,0.0,0.0,-2.9352,-2.9101,-3.0595,-2.8863,-2.8398,-2.9892,-2.998,-2.998,-2.998,-2.998,-2.998,-2.998,-2.998,-2.9942,-2.988,-2.988,-2.988,-2.988,-2.988,-2.9917,-3.0005,-3.0482,-3.0708,-3.0733,-3.1198,-3.1424,-3.1537,-3.2089,-3.2629,-3.3061,-3.2503,-3.2641,-3.3006,-2.093,-2.1455,-2.2008,-2.2531,-2.2862,-2.3326,-2.4205,-2.5511,-2.6427,-2.6553,-2.7544,-2.8323,-2.8561,-2.7381,-2.6992,-2.8009,-2.6239,-2.4858,-2.4381,-2.315,-2.2159,-2.1546,-2.0727,-2.044,-2.0679,-2.01,-1.9798,-1.9798,-1.9798,-1.9798,-1.9798,-1.9798,-2.0451,-2.1606,-2.1307,-2.2121,-2.3659,-2.2485,-2.2962,-2.4556,-2.4895,-2.4883,-2.5134,-2.9428,-3.106,-3.116,-3.1851,-3.2102,-3.1876,0.0,-2.9967,0.0,-2.8875,-2.8473,-2.8273,-2.7971,-2.777,-2.7457,-2.6713,-2.6901,-2.7077,-2.6025,-2.6038,-2.585,-2.4155,-2.3597,-2.3389,0.0,0.0,0.0,0.0,0.0,0.0,0.0,-2.2498,0.0,0.0,0.0,-2.4782,0.0,0.0,0.0,0.0,0.0,0.0,0.0,-2.7695,-2.7532,-2.9202,-2.9289,-2.9453,-2.9779,-2.9792,-2.9792,-2.9792,-2.9792,-2.9792,-2.9792,-2.9792,-2.9792,-2.9792,-2.9792,-2.9792,-2.9804,-3.0043,-3.0143,-3.0156,-3.0369,-3.0645,-3.0972,-3.1198,-3.1625,-3.2064,-3.1825,-3.1888,-3.2064,-2.0377,-2.0905,-2.1393,-2.1794,-2.2108,-2.2686,-2.3828,-2.5824,-2.7231,-2.7268,-2.8109,-2.885,-2.9302,-2.8549,-2.831,-2.9151,-2.8097,-2.6901,-2.5661,-2.4469,-2.3452,-2.2648,-2.1534,-2.0993,-2.1144,-2.0413,-1.9962,-1.9798,-1.9798,-1.9798,-1.9798,-1.9798,-2.0539,-2.1857,-2.1757,-2.2874,-2.4713,-2.3484,-2.3634,-2.47,-2.4858,-2.5172,-2.5963,-2.9402,-3.0997,-3.1386,-3.1386,-3.1386,-3.116,-2.9666,-2.9164,0.0,-2.8762,-2.826,-2.7858,-2.8511,-2.8247,-2.7582,-2.6914,0.0,0.0,0.0,0.0,0.0,0.0,0.0,0.0,0.0,0.0,0.0,0.0,0.0,-2.1656,-2.1506,0.0,-2.1845,0.0,-2.1857,0.0,0.0,0.0,0.0,0.0,0.0,0.0,0.0,0.0,-2.6402,-2.8373,-2.8587,-2.8963,-2.9528,-2.9704,-2.9792,-2.9792,-2.9792,-2.9792,-2.9792,-2.9792,-2.9792,-2.9792,-2.9792,-2.9792,-2.9792,-2.9792,-2.9792,-2.9792,-2.9792,-3.003,-3.0394,-3.0394,-3.062,-3.0972,-3.1122,-3.1273,-3.1373,-1.9823,-2.0314,-2.0729,-2.0742,-2.1606,-2.2686,-2.3828,-2.4531,-2.5498,-2.708,-2.777,-2.875,-3.0382,-3.0055,-3.0344,-3.1938,-3.0608,-2.9666,-2.9616,-2.7042,-2.5498,-2.546,-2.2899,-2.1707,-2.2246,-2.1219,-2.039,-1.9798,-1.9798,-1.9798,-1.9798,-1.9798,-2.0125,-2.0792,-2.182,-2.3195,-2.4788,-2.4725,-2.6255,-2.8612,-2.7595,-2.816,-2.9566,0.0,-3.0005,-3.1386,-3.1386,0.0,0.0,-3.0131,-2.9767,0.0,0.0,0.0,0.0,0.0,0.0,0.0,0.0,0.0,0.0,-2.4745,0.0,0.0,0.0,0.0,-2.4424,0.0,0.0,0.0,0.0,-2.2644,-2.2108,-2.1581,-2.1506,0.0,0.0,0.0,0.0,0.0,0.0,0.0,0.0,0.0,0.0,0.0,0.0,0.0,-2.7193,-2.7846,-2.8386,-2.89,-2.9503,-2.9792,-2.9792,-2.9792,-2.9792,-2.9792,-2.9792,-2.9792,-2.9792,-2.9792,-2.9792,-2.9792,-2.9792,-2.9792,-2.9792,-2.9792,-2.9804,-2.9817,-2.9817,-2.9829,-2.9905,-3.0444,-3.0959,-3.1323,-2.0402,-2.0553,-2.0566,-2.0162,-2.0715,-2.1845,-2.3715,-2.5398,-2.6904,-2.8197,-2.8863,-2.9842,-3.1486,-3.1185,-3.1223,-3.2127,-3.1712,-3.0934,-2.9867,-2.8197,-2.7092,-2.6728,-2.4418,-2.3238,-2.3427,-2.2334,-2.1305,-2.0402,-2.0402,-2.0201,-1.9798,-1.9798,-2.0112,-2.0742,-2.182,-2.3439,-2.5335,-2.5335,-2.6302,-2.7808,0.0,-2.8285,-2.9779,0.0,-2.9842,-3.0331,-3.0331,-3.0331,0.0,-2.9917,-2.9541,-2.9227,-2.9227,-2.8837,-2.8411,-2.8562,-2.8524,0.0,0.0,0.0,-2.816,-2.6138,0.0,0.0,0.0,0.0,0.0,0.0,0.0,0.0,-2.3308,-2.2656,-2.2246,-2.2071,-2.1418,-2.0842,0.0,0.0,0.0,0.0,0.0,0.0,0.0,0.0,0.0,0.0,-2.413,0.0,0.0,-2.7291,-2.7821,-2.836,-2.8574,-2.885,-2.9214,-2.9176,-2.9415,-2.9792,-2.9792,-2.9792,-2.9792,-2.9792,-2.9792,-2.9792,-2.9792,-2.9792,-2.9792,-2.9792,-2.9792,-2.9792,-2.9792,-2.9792,-2.9817,-2.9993,-3.0181,-3.0306,-2.0943,-2.083,-2.0578,-2.0201,-2.0767,-2.1945,-2.3979,-2.5988,-2.7682,-2.875,-2.9603,-3.0633,-3.2051,-3.1888,-3.1913,-3.2466,-3.2516,-3.1825,-3.0193,-2.9402,-2.8574,-2.762,-2.6025,-2.5071,-2.4883,-2.3778,-2.256,-2.1282,-2.1081,-2.0591,-1.9798,-1.9798,-1.9999,-2.044,-2.1732,-2.3326,-2.5084,-2.5862,-2.6841,0.0,0.0,-2.8825,0.0,0.0,-2.9792,-2.9792,0.0,-2.9792,-2.9792,-2.9792,-2.9541,-2.9302,-2.9679,-2.9302,-2.8775,-2.9139,-2.8988,-2.8662,-2.8448,-2.8624,0.0,-2.6901,-2.6361,0.0,-2.433,0.0,-2.4607,0.0,0.0,0.0,0.0,-2.292,-2.2309,-2.2309,-2.1408,-2.0629,0.0,-2.0377,0.0,0.0,0.0,0.0,0.0,0.0,-2.2661,-2.3615,-2.3326,0.0,0.0,0.0,-2.703,-2.7795,-2.8009,-2.8285,-2.8599,-2.8637,-2.8825,-2.9202,-2.9202,-2.9302,-2.9478,-2.9478,-2.9591,-2.9792,-2.9792,-2.9792,-2.9792,-2.9792,-2.9792,-2.9792,-2.9792,-2.9792,-2.9792,-2.9792,-2.9792,-2.9792,-2.1421,-2.1131,-2.0817,-2.0817,-2.1656,-2.2895,-2.4575,-2.6239,-2.7695,-2.8787,-2.9916,-3.106,-3.2139,-3.2252,-3.2478,-3.3074,-3.3124,-3.2416,-3.0834,-3.0683,-2.9942,-2.8335,-2.7695,-2.714,-2.6587,-2.5435,-2.4023,-2.2397,-2.1782,-2.0928,-1.9849,-1.9811,-1.9798,-1.9874,-2.1506,-2.2887,-2.413,-2.6264,-2.7846,-2.8938,-2.9566,-2.9792,-2.9792,-2.9792,-2.9792,-2.9792,-2.9792,-2.9792,-2.9792,-2.9792,-2.9792,-2.9792,-2.9792,-2.9792,-2.9779,-2.9754,-2.9754,-2.9616,-2.9001,-2.885,-2.8499,-2.6939,0.0,0.0,0.0,0.0,-2.5996,0.0,0.0,0.0,0.0,0.0,-2.2355,-2.2347,-2.1443,-2.0566,-1.9924,-1.9849,-1.9849,0.0,0.0,0.0,0.0,-2.1345,-2.1393,-2.2907,-2.2133,-2.251,0.0,0.0,-2.6063,-2.7168,-2.7733,-2.8034,-2.8059,-2.8059,-2.8084,-2.8109,-2.8109,-2.8386,-2.885,-2.885,-2.9189,-2.9716,-2.9716,-2.9729,-2.9754,-2.9754,-2.9767,-2.9792,-2.9792,-2.9792,-2.9792,-2.9792,-2.9792,-2.9792,-2.1543,-2.2033,-2.2468,-2.2468,-2.2706,-2.3446,0.0,0.0,0.0,-2.9365,-3.052,-3.1612,-3.2729,-3.2855,-3.2918,-3.3111,-3.3124,-3.2905,-3.2478,-3.1662,-3.0997,-3.057,-2.9239,-2.8247,-2.7695,-2.6176,-2.4795,-2.3565,-2.2171,-2.1157,-2.0465,-1.9999,-1.9798,-1.9836,-2.0729,-2.22,-2.4067,-2.5046,-2.6791,-2.8938,-2.9566,-2.9792,-2.9792,0.0,-2.9792,-2.9792,-2.9792,-2.9792,-2.9792,-2.9792,-2.9792,-2.9792,-2.9792,-2.9792,-2.9704,-2.9277,-2.9113,-2.9026,-2.8473,-2.8323,-2.8109,-2.7281,-2.654,-2.5887,0.0,0.0,0.0,0.0,0.0,0.0,0.0,0.0,-2.3427,-2.2957,-2.2347,-2.1556,-2.0603,-2.0465,0.0,-2.0465,0.0,0.0,-2.0426,-2.1317,-2.1895,-2.1907,-2.238,-2.312,0.0,0.0,0.0,-2.6,-2.6625,-2.7115,-2.7494,-2.7494,-2.7708,-2.8109,-2.8109,-2.8185,-2.8323,-2.8323,-2.8398,-2.8536,-2.8536,-2.8775,-2.9113,-2.9113,-2.9402,-2.9792,-2.9792,-2.9792,-2.9792,-2.9792,-2.9792,-2.9792,-2.2548,-2.3464,-2.4293,-2.4544,0.0,0.0,-2.6257,-2.708,0.0,-2.9603,-3.0721,0.0,-3.2265,-3.278,-3.3124,-3.3124,-3.3124,-3.291,-3.2365,-3.2202,-3.18,-3.1085,-3.0382,-2.9754,-2.9214,-2.7557,-2.6038,-2.4695,-2.3025,-2.1681,-2.0679,-2.0075,-1.9798,-1.9823,-2.0427,-2.1659,-2.3364,-2.4883,-2.6854,-2.8913,-2.9289,-2.9566,0.0,-2.9792,-2.9792,-2.9792,-2.9792,-2.9792,-2.9792,-2.9792,-2.9792,-2.9792,-2.9792,-2.9792,-2.9679,-2.9063,-2.8888,-2.8762,-2.826,-2.8109,-2.8034,-2.772,-2.7168,-2.6565,-2.6122,-2.5975,-2.5824,0.0,0.0,0.0,0.0,0.0,0.0,-2.2518,-2.2159,-2.1656,-2.0817,-2.0691,-2.0591,0.0,-1.9999,0.0,-1.9798,-2.0652,-2.1292,-2.1509,-2.2071,0.0,0.0,0.0,0.0,-2.5573,-2.5912,-2.6386,-2.6952,-2.6952,-2.7115,-2.7394,-2.7394,-2.7507,-2.7745,-2.7745,-2.7871,-2.8109,-2.8109,-2.8285,-2.8549,-2.8787,-2.9076,-2.944,-2.9691,-2.9792,-2.9792,-2.9792,-2.9792,-2.9792,-2.3916,-2.5034,-2.595,-2.6411,0.0,0.0,0.0,-2.8268,0.0,-2.9906,0.0,-3.1612,-3.1612,-3.2533,-3.3124,-3.3124,-3.3124,-3.2667,-3.1675,-3.2528,-3.2365,-3.0783,-3.1148,-3.1122,-3.052,-2.8863,-2.7205,-2.5598,-2.3835,-2.2221,-2.0679,-2.0075,-1.9798,-1.9823,-2.0352,0.0,0.0,-2.5343,-2.7369,-2.8787,-2.8863,-2.9277,-2.9792,-2.9792,-2.9792,-2.9792,-2.9792,-2.9792,-2.9792,-2.9792,-2.9792,-2.9792,-2.9792,-2.9741,-2.9566,-2.895,-2.8737,-2.8549,-2.8047,-2.7896,-2.7896,-2.7896,-2.7896,-2.7645,-2.6713,-2.6499,-2.6348,-2.5812,-2.5347,-2.531,0.0,0.0,0.0,-2.1983,-2.1757,-2.1543,-2.1081,-2.0893,-2.0616,-2.0087,0.0,0.0,0.0,-1.9911,-2.0326,-2.1333,-2.1408,0.0,0.0,0.0,0.0,-2.5347,-2.5523,-2.5837,-2.6373,0.0,-2.6499,-2.6499,-2.6499,-2.6751,-2.7216,-2.7216,-2.7444,-2.7896,-2.7896,-2.7934,-2.8034,-2.8511,-2.8762,-2.895,-2.9566,-2.9792,-2.9792,-2.9792,-2.9792,-2.9792,-2.4612,-2.5925,-2.6914,-2.6562,0.0,-2.9163,-2.9931,-3.0842,-3.1383,-3.1143,-3.2077,-3.278,-3.278,-3.2998,-3.3124,-3.3124,-3.3124,0.0,-3.2847,-3.3011,-3.2528,-3.1311,-3.1336,-3.0934,-2.9955,-2.8285,-2.6829,-2.5598,-2.3489,-2.1845,-2.0679,-2.0075,-1.9798,-1.9811,-1.9911,0.0,-2.3108,-2.5506,0.0,-2.8285,-2.8712,-2.9277,-2.9792,-2.9792,-2.9792,-2.9792,-2.9792,-2.9792,-2.9792,-2.9792,-2.9792,-2.9792,-2.9792,-2.9465,-2.8925,-2.8411,-2.7921,-2.7444,-2.6939,-2.6788,-2.6788,-2.6788,-2.6788,-2.6738,-2.6537,-2.6499,-2.6461,-2.6361,-2.6273,-2.6122,-2.5799,0.0,0.0,0.0,0.0,0.0,-2.2681,-2.192,-2.1333,-2.1204,-2.0817,-2.0541,0.0,-2.0541,-2.0629,-2.083,-2.0842,0.0,0.0,0.0,0.0,0.0,-2.5134,0.0,0.0,0.0,-2.6499,-2.6499,-2.6499,-2.6549,-2.6637,-2.6637,-2.6688,-2.6788,-2.6788,-2.704,-2.7431,-2.7532,-2.8109,-2.895,-2.9566,-2.9792,-2.9792,-2.9792,-2.9792,-2.9792,-2.6465,-2.7168,-2.7808,-2.8171,0.0,0.0,0.0,-3.1746,-3.2319,-3.1511,-3.1863,-3.2202,-3.2202,-3.2772,-3.3124,-3.3124,-3.3124,-3.3124,-3.3124,-3.2792,-3.239,-3.1838,-3.1286,-3.0746,-3.0231,-2.8574,-2.7155,-2.6084,-2.3828,-2.2171,-2.1106,-2.0213,-1.9798,-1.9823,-2.0413,-2.1594,0.0,0.0,0.0,-2.8134,-2.8398,-2.9013,-2.9792,-2.9792,-2.9792,-2.9792,-2.9792,-2.9792,-2.9792,-2.9792,-2.9792,-2.9741,-2.944,-2.9113,-2.8725,-2.7921,-2.7494,-2.719,-2.665,-2.6499,-2.6499,-2.6499,-2.6499,-2.6499,-2.6499,-2.6499,-2.6499,-2.6499,-2.6499,-2.6323,-2.5699,-2.5172,0.0,0.0,0.0,0.0,0.0,-2.2435,-2.1707,-2.1157,-2.0855,-2.0578,-2.025,0.0,0.0,0.0,0.0,0.0,0.0,0.0,0.0,0.0,0.0,0.0,0.0,0.0,0.0,-2.6499,-2.6499,-2.6499,-2.6499,-2.6499,-2.6499,-2.6499,-2.6499,-2.665,-2.6914,-2.7203,-2.777,-2.8524,-2.8812,-2.9101,-2.934,-2.934,-2.9528,-2.9792,-2.8197,-2.8473,0.0,0.0,-3.0727,-3.1202,-3.0815,-3.1859,-3.2407,-3.1672,-3.1562,-3.1612,-3.1738,-3.2541,-3.3074,-3.2905,-3.2893,-3.2842,-3.2772,-3.229,-3.1989,-3.1876,-3.1072,-3.0557,-3.0444,-2.9026,-2.7682,-2.6499,-2.4469,-2.2799,-2.1468,-2.0577,-2.0162,-2.0213,-2.1343,0.0,0.0,0.0,-2.6189,-2.8109,-2.8109,-2.8775,-2.9792,-2.9792,-2.9792,-2.9792,-2.9792,-2.9792,-2.9792,-2.9792,-2.9792,-2.9716,-2.9252,-2.8913,-2.8549,-2.7708,-2.7329,-2.7052,-2.6612,-2.6499,-2.6499,-2.6499,-2.6499,-2.6499,-2.6499,-2.6499,-2.6499,-2.6499,-2.6499,-2.6323,-2.5699,-2.536,0.0,0.0,0.0,0.0,0.0,0.0,-2.182,-2.0968,-2.0767,-2.0465,-1.9861,0.0,0.0,0.0,0.0,0.0,-2.0855,0.0,0.0,0.0,0.0,-2.4406,-2.5247,0.0,-2.6499,-2.6499,-2.6499,-2.6499,-2.6499,-2.6499,-2.6499,-2.6499,-2.6499,-2.6499,-2.6537,-2.709,-2.7544,-2.7946,-2.8059,-2.8373,-2.8712,-2.8712,-2.9038,-2.9428,0.0,0.0,0.0,0.0,0.0,-3.137,-3.1351,-3.143,-3.1685,-3.2064,-3.2139,-3.234,-3.2867,-3.3061,-3.2867,-3.234,-3.229,-3.2089,-3.1587,-3.1499,-3.126,-3.0783,-3.067,-3.0382,-2.988,-2.9202,-2.8059,0.0,0.0,-2.3577,0.0,-2.138,-2.133,-2.138,0.0,0.0,0.0,-2.5071,-2.6527,-2.8109,-2.8109,-2.8775,-2.9792,-2.9792,-2.9792,-2.9792,-2.9792,-2.9792,-2.9792,-2.9792,-2.9792,-2.9779,-2.9729,-2.9013,-2.816,-2.8059,-2.7318,-2.6562,-2.6512,-2.6499,-2.6499,-2.6499,-2.6499,-2.6499,-2.6499,-2.6499,-2.6499,-2.6499,-2.6499,-2.6323,-2.5699,-2.6021,-2.5845,0.0,0.0,0.0,0.0,0.0,-2.1531,-2.1458,-2.0993,-2.0465,0.0,-1.9798,0.0,0.0,-1.9849,0.0,0.0,0.0,0.0,-2.2347,0.0,-2.4054,-2.4155,-2.572,-2.6499,-2.6499,-2.6499,-2.6499,-2.6499,-2.6499,-2.6499,-2.6499,-2.6499,-2.6499,-2.6537,-2.709,-2.7318,-2.7406,-2.7908,-2.8134,-2.8185,-2.8185,-2.821,-2.826,0.0,0.0,0.0,0.0,0.0,0.0,0.0,-3.0645,-3.0633,-3.1185,-3.1813,-3.2177,-3.2077,-3.2667,-3.2717,-3.18,-3.2026,-3.1976,-3.1424,-3.1097,-3.0834,-3.062,-3.0294,-3.0018,-2.9792,-2.9227,-2.8285,0.0,0.0,0.0,-2.2443,-2.2133,-2.2159,-2.2481,0.0,-2.3966,-2.4556,-2.5649,-2.6691,-2.767,-2.8335,-2.8863,-2.9315,-2.9666,-2.9792,-2.9792,-2.9792,-2.9792,-2.9792,-2.9792,-2.9792,-2.9729,-2.939,-2.8963,-2.8461,-2.7808,-2.7341,-2.6914,-2.6587,-2.6499,-2.6499,-2.6499,-2.6499,-2.6499,-2.6499,-2.6499,-2.6399,-2.6047,-2.5686,-2.541,-2.5172,-2.5046,-2.4883,0.0,0.0,0.0,0.0,0.0,0.0,-2.1531,-2.1031,-2.0465,-1.9861,0.0,0.0,0.0,0.0,-1.9999,-2.0451,0.0,0.0,-2.1292,0.0,-2.3314,-2.3991,-2.5285,-2.6147,-2.6499,-2.6499,-2.6499,-2.6499,-2.6499,-2.6499,-2.6499,-2.6499,-2.6499,-2.6512,-2.6738,-2.6826,-2.6851,-2.7065,-2.7318,-2.7607,-2.7607,-2.7821,-2.8059,-3.106,0.0,-3.1009,0.0,-3.0746,-3.0168,-3.0557,-3.0143,-2.993,-3.0319,-3.1173,-3.165,-3.1411,-3.2102,-3.2202,-3.1248,-3.1524,-3.1512,-3.0959,-3.0583,-3.0369,-3.0369,-2.9993,0.0,-2.9792,-2.939,-2.8712,-2.777,-2.644,0.0,-2.4061,-2.3389,-2.3308,0.0,-2.4293,-2.4782,-2.536,-2.6336,-2.7052,-2.7607,-2.8512,-2.8888,-2.895,-2.9566,-2.9792,-2.9792,-2.9792,-2.9792,-2.9792,-2.9792,-2.9792,-2.9729,-2.9315,-2.9026,-2.8712,-2.7795,-2.7406,-2.719,-2.665,-2.6499,-2.6499,-2.6499,-2.6499,-2.6499,-2.6499,-2.6361,-2.6084,-2.5485,-2.5039,-2.4788,-2.4788,-2.4506,-2.4255,-2.4286,0.0,0.0,0.0,-2.2673,0.0,-2.1543,-2.088,-2.0277,-1.9849,-1.9798,0.0,0.0,0.0,-2.0125,-2.0288,0.0,0.0,0.0,0.0,0.0,0.0,-2.4971,-2.5799,-2.6248,-2.6411,-2.6499,-2.6499,-2.6499,-2.6499,-2.6499,-2.6499,-2.6499,-2.6499,-2.6499,-2.6499,-2.6499,-2.6499,-2.6738,-2.7077,-2.7077,-2.7293,-2.757,-3.2089,-3.175,-3.1549,-3.2102,-3.1311,-3.0608,-3.062,-3.0143,-2.9792,-2.9804,-3.0281,-3.0834,-3.1336,-3.1399,-3.1198,-3.067,-3.0633,-3.0407,-2.9842,-2.9804,-2.9804,0.0,0.0,-2.9792,-2.9792,-2.9779,-2.9503,-2.8875,0.0,0.0,-2.6436,-2.531,-2.5071,-2.5573,-2.5573,-2.5933,-2.6512,-2.7065,-2.7595,-2.8147,-2.8662,-2.8888,-2.895,-2.9566,-2.9792,-2.9792,-2.9792,-2.9792,-2.9792,-2.9792,-2.9792,-2.9792,-2.9779,-2.939,-2.8787,-2.826,-2.7708,-2.719,-2.665,-2.6499,-2.6499,-2.6499,-2.6499,-2.6499,-2.6499,-2.6047,-2.546,-2.4913,-2.48,-2.4788,-2.4788,-2.4775,-2.4412,-2.3308,0.0,0.0,0.0,-2.1845,0.0,-2.1493,-2.0489,-1.9811,-1.9798,-1.9798,0.0,0.0,0.0,-2.0918,-2.1443,0.0,0.0,-2.1455,-2.2518,0.0,-2.3108,-2.477,-2.5598,-2.5611,-2.6223,-2.6499,-2.6499,-2.6499,-2.6499,-2.6499,-2.6499,-2.6499,-2.6499,-2.6499,-2.6499,-2.6499,-2.6499,-2.6499,-2.6499,-2.6499,-2.6512,-2.6512,-3.1085,-3.1273,-3.1336,-3.116,-3.0846,-3.0495,-3.0118,-2.9905,-2.9792,-2.9792,-2.9942,-3.0118,-3.0281,-3.0947,-3.1035,0.0,-3.0407,-3.0382,0.0,-2.9792,-2.9792,-2.9792,-2.9792,-2.9792,-2.9792,-2.9792,-2.9503,-2.8888,0.0,0.0,0.0,-2.6666,-2.659,-2.6753,-2.7143,-2.7205,-2.7115,-2.8009,-2.8285,-2.8185,-2.9139,-2.9289,-2.895,-2.9566,-2.9792,-2.9792,-2.9792,-2.9792,-2.9792,-2.9792,-2.9792,-2.9792,-2.9792,-2.9666,-2.9327,-2.8386,-2.7984,-2.7645,-2.6751,-2.6499,-2.6499,-2.6499,-2.6499,-2.6499,-2.6499,-2.5737,-2.4908,-2.4368,-2.3941,-2.3647,-2.3647,-2.3647,-2.3521,-2.3158,-2.3258,0.0,-2.2895,0.0,-2.1493,-2.1493,-2.0867,-2.0264,0.0,-2.0501,0.0,0.0,0.0,0.0,0.0,0.0,0.0,0.0,-2.1995,0.0,-2.3715,-2.4619,-2.5435,-2.6223,-2.6411,-2.6499,-2.6499,-2.6499,-2.6499,-2.6499,-2.6499,-2.6499,-2.6499,-2.6499,-2.6499,-2.6499,-2.6499,-2.6499,-2.6499,-2.6499,-2.685,-2.7317,-3.0909,-3.1009,-3.0997,-3.067,-3.0444,-3.0193,-2.9842,-2.9792,-2.9792,-2.9792,-2.9792,-2.9792,-2.9792,-3.0394,0.0,-2.9854,-3.0105,-3.0168,-2.9817,-2.9792,-2.9792,-2.9792,-2.9792,-2.9792,-2.9792,-2.9792,0.0,-2.9252,-2.8913,-2.8561,-2.8222,-2.8009,-2.7896,-2.7908,-2.8047,-2.8034,-2.7946,-2.8637,-2.87,-2.8499,-2.9415,-2.9453,-2.895,-2.9566,-2.9792,-2.9792,-2.9792,-2.9792,-2.9792,-2.9792,-2.9792,-2.9792,-2.9792,-2.9792,-2.9578,-2.8436,-2.8109,-2.7871,-2.6788,-2.6499,-2.6499,-2.6499,-2.6499,-2.6386,-2.5971,-2.531,-2.4637,-2.4117,-2.3509,-2.317,-2.3396,-2.3246,-2.3108,-2.3108,-2.3108,-2.3108,-2.3108,0.0,-2.1556,0.0,0.0,0.0,0.0,-2.1079,-2.143,0.0,0.0,0.0,0.0,0.0,0.0,-2.132,-2.2159,0.0,-2.3665,-2.4412,-2.5172,-2.5883,-2.6298,-2.6499,-2.6499,-2.6499,-2.6499,-2.6499,-2.6499,-2.6499,-2.6499,-2.6499,-2.6499,-2.6499,-2.6499,-2.6499,-2.6499,-2.6499,-2.6816,-2.7263,-3.1286,-3.0896,-3.0557,0.0,-3.0131,0.0,-2.9792,-2.9792,-2.9792,-2.9792,-2.9792,-2.9792,-2.9792,-2.9792,-2.9792,-2.9792,0.0,0.0,0.0,-2.9792,-2.9792,-2.9792,-2.9792,-2.9792,-2.9792,-2.9792,-2.9792,-2.9792,-2.9792,-2.9792,-2.9779,-2.9239,-2.8925,-2.8863,-2.8436,-2.8486,-2.8888,-2.8938,-2.895,-2.9001,-2.9578,-2.9465,-2.9013,-2.9591,-2.9792,-2.9792,-2.9792,-2.9792,-2.9792,-2.9792,-2.9792,-2.9792,-2.9792,-2.9792,-2.9578,-2.8436,-2.8109,-2.7871,-2.6788,-2.6499,-2.6499,-2.6499,-2.6499,-2.6223,-2.5121,-2.4838,-2.4687,-2.4167,-2.3597,-2.3384,-2.3904,-2.3521,-2.3145,-2.3108,-2.3108,-2.3095,-2.3058,-2.2196,-2.1719,0.0,0.0,0.0,0.0,-2.1556,-2.1782,0.0,0.0,0.0,0.0,0.0,-2.1782,-2.2297,-2.2819,-2.312,-2.3158,-2.4249,-2.4825,-2.4913,-2.5996,-2.6499,-2.6499,-2.6499,-2.6499,-2.6499,-2.6499,-2.6499,-2.6499,-2.6499,-2.6499,-2.6499,-2.6499,-2.6499,-2.6499,-2.6499,-2.6555,-2.6692,0.0,0.0,-2.9993,-2.9993,-2.988,-2.9792,-2.9792,-2.9792,-2.9792,-2.9792,-2.9792,-2.9792,-2.9792,-2.9792,-2.9792,-2.9792,-2.9792,-2.9792,-2.9792,-2.9792,-2.9792,-2.9792,-2.9792,-2.9792,-2.9792,-2.9792,-2.9792,-2.9792,-2.9792,-2.9792,-2.9792,-2.9654,-2.9352,-2.89,-2.9252,-2.9214,-2.8913,-2.9402,-2.9591,-2.9603,-2.9741,-2.9704,-2.9603,-2.9741,-2.9792,-2.9792,-2.9792,-2.9792,-2.9792,-2.9792,-2.9792,-2.9792,-2.9792,-2.9792,-2.9578,-2.8436,-2.8109,-2.7871,-2.6788,-2.6499,-2.6499,-2.6499,-2.6499,-2.6311,-2.5573,-2.541,-2.5259,-2.4732,-2.4487,-2.4311,-2.4054,-2.3891,-2.3653,-2.317,-2.3108,-2.2957,-2.2543,-2.2284,0.0,0.0,-2.1832,-2.1807,-2.1546,-2.2246,-2.2418,0.0,0.0,0.0,0.0,-2.2184,-2.2184,-2.2309,-2.2819,-2.3321,-2.3791,-2.4449,-2.5247,-2.6109,-2.6373,-2.6499,-2.6499,-2.6499,-2.6499,-2.6499,-2.6499,-2.6499,-2.6499,-2.6499,-2.6499,-2.6499,-2.6499,-2.6499,-2.6499,-2.6499,-2.7317,-2.8395,-2.9792,-2.9792,-2.9792,-2.9792,-2.9792,-2.9792,-2.9792,-2.9792,-2.9792,-2.9792,-2.9792,-2.9792,-2.9792,-2.9792,-2.9792,-2.9792,-2.9792,-2.9792,-2.9792,-2.9792,-2.9792,-2.9792,-2.9792,-2.9792,-2.9792,-2.9792,-2.9792,-2.9792,-2.9792,-2.9792,-2.9792,-2.9792,-2.9628,-2.934,-2.9654,-2.9616,-2.934,-2.9666,-2.9792,-2.9792,-2.9792,-2.9792,-2.9792,-2.9792,-2.9792,-2.9792,-2.9792,-2.9792,-2.9792,-2.9792,-2.9792,-2.9792,-2.9792,-2.9792,-2.9578,-2.8436,-2.8109,-2.7871,-2.6788,-2.6499,-2.6499,-2.6499,-2.6499,-2.6336,-2.5724,-2.5598,-2.5523,-2.5234,-2.4983,-2.47,-2.4431,-2.4167,-2.3803,-2.3195,-2.3108,-2.2995,-2.2706,-2.2443,0.0,-2.2246,-2.2284,-2.2297,-2.2246,-2.2757,-2.2857,-2.2284,-2.2493,0.0,-2.2656,-2.2656,-2.2656,-2.2656,-2.2945,-2.3258,-2.3602,-2.4374,-2.5372,-2.6499,-2.6499,-2.6499,-2.6499,-2.6499,-2.6499,-2.6499,-2.6499,-2.6499,-2.6499,-2.6499,-2.6499,-2.6499,-2.6499,-2.6499,-2.6499,-2.6499,-2.7317,-2.8395,-2.9792,-2.9792,-2.9792,-2.9792,-2.9792,-2.9792,-2.9792,-2.9792,-2.9792,-2.9792,-2.9792,-2.9792,-2.9792,-2.9792,-2.9792,-2.9792,-2.9792,-2.9792,-2.9792,-2.9792,-2.9792,-2.9792,-2.9792,-2.9792,-2.9792,-2.9792,-2.9792,-2.9792,-2.9792,-2.9792,-2.9792,-2.9792,-2.9792,-2.9792,-2.9792,-2.9792,-2.9792,-2.9792,-2.9792,-2.9792,-2.9792,-2.9792,-2.9792,-2.9792,-2.9792,-2.9792,-2.9792,-2.9792,-2.9792,-2.9792,-2.9792,-2.9792,-2.9792,-2.9792,-2.9591,-2.8536,-2.8172,-2.7871,-2.6788,-2.6499,-2.6499,-2.6499,-2.6499,-2.6361,-2.5837,-2.5724,-2.5724,-2.5724,-2.5372,-2.5046,-2.4958,-2.4494,-2.3941,-2.3333,-2.3158,-2.307,-2.2995,0.0,-2.2543,-2.2932,-2.2644,-2.2594,-2.3058,-2.3108,-2.3108,-2.3108,-2.3108,-2.3108,-2.3108,-2.3108,-2.3108,-2.3108,-2.3108,-2.3145,-2.3233,-2.4186,-2.5247,-2.6361,-2.6361,-2.6411,-2.6499,-2.6411,-2.6411,-2.6487,-2.6399,-2.6411,-2.6499,-2.6499,-2.6499,-2.6499,-2.6499,-2.6499,-2.6499,-2.6499,-2.7007,-2.7736,-2.9792,-2.9792,-2.9792,-2.9792,-2.9792,-2.9792,-2.9792,-2.9792,-2.9792,-2.9792,-2.9792,-2.9792,-2.9792,-2.9792,-2.9792,-2.9792,-2.9792,-2.9792,-2.9792,-2.9792,-2.9792,-2.9792,-2.9792,-2.9792,-2.9792,-2.9792,-2.9792,-2.9792,-2.9792,-2.9792,-2.9792,-2.9792,-2.9792,-2.9792,-2.9792,-2.9792,-2.9792,-2.9792,-2.9792,-2.9792,-2.9792,-2.9792,-2.9792,-2.9792,-2.9792,-2.9792,-2.9792,-2.9792,-2.9792,-2.9792,-2.9792,-2.9792,-2.9792,-2.9792,-2.9666,-2.9001,-2.8461,-2.7871,-2.6788,-2.6499,-2.6499,-2.6499,-2.6499,-2.6474,-2.6386,-2.6361,-2.6361,-2.6361,-2.6298,-2.6084,-2.5561,-2.5046,-2.4519,-2.3954,-2.3421,-2.2945,-2.2498,0.0,-2.2832,-2.2456,-2.2744,-2.3007,-2.3095,-2.3108,-2.3108,-2.3108,-2.3108,-2.3108,-2.3108,-2.3108,-2.3108,-2.3108,-2.3108,-2.3333,-2.3866,-2.4042,-2.4669,-2.5737,-2.5737,-2.6021,-2.6474,-2.5984,-2.6034,-2.6461,-2.5971,-2.6047,-2.6499,-2.6499,-2.6499,-2.6499,-2.6499,-2.6499,-2.6499,-2.6499,-2.7007,-2.7802,-2.9792,-2.9792,-2.9792,-2.9792,-2.9792,-2.9792,-2.9792,-2.9792,-2.9792,-2.9792,-2.9792,-2.9792,-2.9792,-2.9792,-2.9792,-2.9792,-2.9792,-2.9792,-2.9792,-2.9792,-2.9792,-2.9792,-2.9792,-2.9792,-2.9792,-2.9792,-2.9792,-2.9792,-2.9792,-2.9792,-2.9792,-2.9792,-2.9792,-2.9792,-2.9792,-2.9792,-2.9792,-2.9792,-2.9792,-2.9792,-2.9792,-2.9792,-2.9792,-2.9792,-2.9792,-2.9792,-2.9792,-2.9792,-2.9792,-2.9792,-2.9792,-2.9792,-2.9792,-2.9792,-2.9679,-2.9063,-2.8335,-2.7494,-2.6713,-2.6499,-2.6499,-2.6499,-2.6499,-2.6499,-2.6499,-2.6499,-2.6499,-2.6499,-2.6499,-2.6323,-2.5699,-2.5172,-2.4713,-2.4481,-2.3672,0.0,0.0,-2.3145,-2.3007,-2.2757,-2.2945,-2.3108,-2.3108,-2.3108,-2.3108,-2.3108,-2.3108,-2.3108,-2.3108,-2.3108,-2.3108,-2.3108,-2.3108,-2.3384,-2.3991,-2.4293,-2.4833,-2.5598,-2.5912,-2.6235,-2.6474,-2.5862,-2.5912,-2.6461,-2.585,-2.5925,-2.6499,-2.6499,-2.6499,-2.6499,-2.6499,-2.6748,-2.7162,-2.7162,-2.7986,-2.916,-2.9792,-2.9792,-2.9792,-2.9792,-2.9792,-2.9792,-2.9792,-2.9792,-2.9792,-2.9792,-2.9792,-2.9792,-2.9792,-2.9792,-2.9792,-2.9792,-2.9792,-2.9792,-2.9792,-2.9792,-2.9792,-2.9792,-2.9792,-2.9792,-2.9792,-2.9792,-2.9792,-2.9792,-2.9792,-2.9792,-2.9792,-2.9792,-2.9792,-2.9792,-2.9792,-2.9792,-2.9792,-2.9792,-2.9792,-2.9792,-2.9792,-2.9792,-2.9792,-2.9792,-2.9792,-2.9792,-2.9792,-2.9792,-2.9792,-2.9792,-2.9792,-2.9792,-2.9792,-2.9792,-2.9704,-2.9264,-2.8348,-2.7318,-2.6675,-2.6499,-2.6499,-2.6499,-2.6499,-2.6499,-2.6499,-2.6499,-2.6499,-2.6499,-2.6499,-2.6361,-2.5875,-2.536,-2.4958,-2.4813,0.0,0.0,0.0,-2.3384,-2.3108,-2.3108,-2.3108,-2.3108,-2.3108,-2.3108,-2.3108,-2.3108,-2.3108,-2.3108,-2.3108,-2.3108,-2.3108,-2.3108,-2.3108,-2.3321,-2.3791,-2.4356,-2.4895,-2.5423,-2.5862,-2.6172,-2.6273,-2.5536,-2.5598,-2.626,-2.5881,-2.612,-2.6782,-2.7007,-2.7061,-2.7061,-2.7061,-2.7451,-2.7986,-2.7986,-2.8844,-3.0042,-2.9792,-2.9792,-2.9792,-2.9792,-2.9792,-2.9792,-2.9792,-2.9792,-2.9792,-2.9792,-2.9792,-2.9792,-2.9792,-2.9792,-2.9792,-2.9792,-2.9792,-2.9792,-2.9792,-2.9792,-2.9792,-2.9792,-2.9792,-2.9792,-2.9792,-2.9792,-2.9792,-2.9792,-2.9792,-2.9792,-2.9792,-2.9792,-2.9792,-2.9792,-2.9792,-2.9792,-2.9792,-2.9792,-2.9792,-2.9792,-2.9792,-2.9792,-2.9792,-2.9792,-2.9792,-2.9792,-2.9792,-2.9792,-2.9792,-2.9792,-2.9792,-2.9792,-2.9792,-2.9792,-2.9779,-2.9741,-2.8925,-2.7808,-2.6788,-2.6499,-2.6499,-2.6499,-2.6499,-2.6499,-2.6499,-2.6499,-2.6499,-2.6499,-2.6499,-2.6474,-2.6436,-2.5925,-2.5385,-2.4863,0.0,0.0,-2.3233,-2.3133,-2.3108,-2.3108,-2.3108,-2.3108,-2.3108,-2.3108,-2.3108,-2.3108,-2.3108,-2.3108,-2.3108,-2.3108,-2.3108,-2.3108,-2.3108,-2.312,-2.317,-2.3766,-2.4343,-2.485,-2.4888,-2.5197,-2.5624,-2.4582,-2.4682,-2.569,-2.5959,-2.6643,-2.767,-2.8492,-2.8812,-2.8812,-2.8812,-2.8844,-2.8907,-2.8907,-2.9002,-2.9223,-2.9792,-2.9792,-2.9792,-2.9792,-2.9792,-2.9792,-2.9792,-2.9792,-2.9792,-2.9792,-2.9792,-2.9792,-2.9792,-2.9792,-2.9792,-2.9792,-2.9792,-2.9792,-2.9792,-2.9792,-2.9792,-2.9792,-2.9792,-2.9792,-2.9792,-2.9792,-2.9792,-2.9792,-2.9792,-2.9792,-2.9792,-2.9792,-2.9792,-2.9792,-2.9792,-2.9792,-2.9792,-2.9792,-2.9792,-2.9792,-2.9792,-2.9792,-2.9792,-2.9792,-2.9792,-2.9792,-2.9792,-2.9792,-2.9792,-2.9792,-2.9792,-2.9792,-2.9792,-2.9792,-2.9654,-2.895,-2.8448,-2.7871,-2.6788,-2.6499,-2.6499,-2.6499,-2.6499,-2.6499,-2.6499,-2.6499,-2.6499,-2.6499,-2.6499,-2.6499,-2.6499,-2.5724,-2.5159,-2.5285,0.0,-2.3484,-2.3653,-2.3333,-2.3108,-2.3108,-2.3108,-2.3108,-2.3108,-2.3108,-2.3108,-2.3108,-2.3108,-2.3108,-2.3108,-2.3108,-2.3108,-2.3108,-2.3108,-2.3108,-2.3108,-2.3703,-2.4104,-2.4318,-2.4625,-2.4888,-2.5096,-2.4343,-2.4406,-2.5084,-2.4899,-2.5217,-2.5935,-2.6278,-2.6393,-2.6484,-2.737,-2.8044,-2.8615,-2.9487,-3.0103,-3.0526,-2.9792,-2.9792,-2.9792,-2.9792,-2.9792,-2.9792,-2.9792,-2.9792,-2.9792,-2.9792,-2.9792,-2.9792,-2.9792,-2.9792,-2.9792,-2.9792,-2.9792,-2.9792,-2.9792,-2.9792,-2.9792,-2.9792,-2.9792,-2.9792,-2.9792,-2.9792,-2.9792,-2.9792,-2.9792,-2.9792,-2.9792,-2.9792,-2.9792,-2.9792,-2.9792,-2.9792,-2.9792,-2.9792,-2.9792,-2.9792,-2.9792,-2.9792,-2.9792,-2.9792,-2.9792,-2.9792,-2.9792,-2.9792,-2.9792,-2.9792,-2.9792,-2.9792,-2.9792,-2.9792,-2.9578,-2.8436,-2.8109,-2.7871,-2.6788,-2.6499,-2.6499,-2.6499,-2.6499,-2.6499,-2.6499,-2.6499,-2.6499,-2.6499,-2.6499,-2.6436,-2.6248,-2.5573,-2.5071,-2.5084,-2.4142,-2.3446,-2.3703,-2.3358,-2.3108,-2.3108,-2.3108,-2.3108,-2.3108,-2.3108,-2.3108,-2.3108,-2.3108,-2.3108,-2.3108,-2.3108,-2.3108,-2.3108,-2.3108,-2.3108,-2.3108,-2.3703,-2.4004,-2.4004,-2.4381,-2.4537,-2.4544,-2.3979,-2.4029,-2.4544,-2.4411,-2.4675,-2.5243,-2.5741,-2.5946,-2.6034,-2.7254,-2.8116,-2.8752,-2.9726,-3.0424,-3.0823,-2.9792,-2.9792,-2.9792,-2.9792,-2.9792,-2.9792,-2.9792,-2.9792,-2.9792,-2.9792,-2.9792,-2.9792,-2.9792,-2.9792,-2.9792,-2.9792,-2.9792,-2.9792,-2.9792,-2.9792,-2.9792,-2.9792,-2.9792,-2.9792,-2.9792,-2.9792,-2.9792,-2.9792,-2.9792,-2.9792,-2.9792,-2.9792,-2.9792,-2.9792,-2.9792,-2.9792,-2.9792,-2.9792,-2.9792,-2.9792,-2.9792,-2.9792,-2.9792,-2.9792,-2.9792,-2.9792,-2.9792,-2.9792,-2.9792,-2.9792,-2.9792,-2.9792,-2.9792,-2.9792,-2.9578,-2.8448,-2.8109,-2.7871,-2.6801,-2.6499,-2.6499,-2.6499,-2.6499,-2.6499,-2.6499,-2.6499,-2.6499,-2.6499,-2.6499,-2.6323,-2.5699,-2.5598,-2.5234,-2.4167,-2.4004,-2.3791,-2.3183,-2.3108,-2.3108,-2.3108,-2.3108,-2.3108,-2.3108,-2.3108,-2.3108,-2.3108,-2.3108,-2.3108,-2.3108,-2.3108,-2.3108,-2.3108,-2.3108,-2.3108,-2.3108,-2.3703,-2.3991,-2.3991,-2.3991,-2.3991,-2.3966,-2.3358,-2.3421,-2.4054,-2.4823,-2.5531,-2.621,-2.7738,-2.8381,-2.8438,-2.9262,-2.9564,-2.9564,-2.9606,-2.9606,-2.9606,-2.9792,-2.9792,-2.9792,-2.9792,-2.9792,-2.9792,-2.9792,-2.9792,-2.9792,-2.9792,-2.9792,-2.9792,-2.9792,-2.9792,-2.9792,-2.9792,-2.9792,-2.9792,-2.9792,-2.9792,-2.9792,-2.9792,-2.9792,-2.9792,-2.9792,-2.9792,-2.9792,-2.9792,-2.9792,-2.9792,-2.9792,-2.9792,-2.9792,-2.9792,-2.9792,-2.9792,-2.9792,-2.9792,-2.9792,-2.9792,-2.9792,-2.9792,-2.9792,-2.9792,-2.9792,-2.9792,-2.9792,-2.9792,-2.9792,-2.9792,-2.9792,-2.9792,-2.9792,-2.9792,-2.9641,-2.89,-2.8411,-2.7946,-2.7231,-2.6788,-2.6499,-2.6499,-2.6499,-2.6499,-2.6499,-2.6499,-2.6499,-2.6499,-2.6499,-2.6323,-2.5699,-2.5297,-2.482,-2.4117,-2.3622,-2.3308,-2.3133,-2.3108,-2.3108,-2.3108,-2.3108,-2.3108,-2.3108,-2.3108,-2.3108,-2.3108,-2.3108,-2.3108,-2.3108,-2.3108,-2.3108,-2.3108,-2.3108,-2.3108,-2.3108,-2.3283,-2.3358,-2.3358,-2.3358,-2.3358,-2.3358,-2.3183,-2.3195,-2.3389,-2.3636,-2.3846,-2.4059,-2.509,-2.5524,-2.5708,-2.7437,-2.8134,-2.8247,-2.9238,-2.9606,-2.9547,-2.9792,-2.9792,-2.9792,-2.9792,-2.9792,-2.9792,-2.9792,-2.9792,-2.9792,-2.9792,-2.9792,-2.9792,-2.9792,-2.9792,-2.9792,-2.9792,-2.9792,-2.9792,-2.9792,-2.9792,-2.9792,-2.9792,-2.9792,-2.9792,-2.9792,-2.9792,-2.9792,-2.9792,-2.9792,-2.9792,-2.9792,-2.9792,-2.9792,-2.9792,-2.9792,-2.9792,-2.9792,-2.9792,-2.9792,-2.9792,-2.9792,-2.9792,-2.9792,-2.9792,-2.9792,-2.9792,-2.9792,-2.9792,-2.9792,-2.9792,-2.9792,-2.9792,-2.9792,-2.9792,-2.9679,-2.9063,-2.865,-2.826,-2.7494,-2.7065,-2.6763,-2.6549,-2.6499,-2.6499,-2.6499,-2.6499,-2.6499,-2.6499,-2.6499,-2.6248,-2.5435,-2.5034,-2.4537,-2.376,-2.3333,-2.3108,-2.3108,-2.3108,-2.3108,-2.3108,-2.3108,-2.3108,-2.3108,-2.3108,-2.3108,-2.3108,-2.3108,-2.3108,-2.3108,-2.3108,-2.3108,-2.3108,-2.3108,-2.3108,-2.3108,-2.3108,-2.3108,-2.3108,-2.3108,-2.3108,-2.3108,-2.3108,-2.3108,-2.3108,-2.3108,-2.3108,-2.3155,-2.3972,-2.4452,-2.4878,-2.6479,-2.726,-2.7639,-2.849,-2.8813,-2.8753,-2.9792,-2.9792,-2.9792,-2.9792,-2.9792,-2.9792,-2.9792,-2.9792,-2.9792,-2.9792,-2.9792,-2.9792,-2.9792,-2.9792,-2.9792,-2.9792,-2.9792,-2.9792,-2.9792,-2.9792,-2.9792,-2.9792,-2.9792,-2.9792,-2.9792,-2.9792,-2.9792,-2.9792,-2.9792,-2.9792,-2.9792,-2.9792,-2.9792,-2.9792,-2.9792,-2.9792,-2.9792,-2.9792,-2.9792,-2.9792,-2.9792,-2.9792,-2.9792,-2.9792,-2.9792,-2.9792,-2.9792,-2.9792,-2.9792,-2.9792,-2.9792,-2.9792,-2.9792,-2.9792,-2.9691,-2.9126,-2.89,-2.8637,-2.7632,-2.7281,-2.7115,-2.6612,-2.6499,-2.6499,-2.6499,-2.6499,-2.6499,-2.6499,-2.6499,-2.6172,-2.5084,-2.4825,-2.4437,-2.3358,-2.3145,-2.3108,-2.3108,-2.3108,-2.3108,-2.3108,-2.3108,-2.3108,-2.3108,-2.3108,-2.3108,-2.3108,-2.3108,-2.3108,-2.3108,-2.3108,-2.3108,-2.3108,-2.3108,-2.3108,-2.3108,-2.3108,-2.3108,-2.3108,-2.3108,-2.3108,-2.3108,-2.3108,-2.3108,-2.3108,-2.3198,-2.3215,-2.3275,-2.4134,-2.4908,-2.5563,-2.631,-2.7008,-2.76,-2.76,-2.76,-2.76,-2.9792,-2.9792,-2.9792,-2.9792,-2.9792,-2.9792,-2.9792,-2.9792,-2.9792,-2.9792,-2.9792,-2.9792,-2.9792,-2.9792,-2.9792,-2.9792,-2.9792,-2.9792,-2.9792,-2.9792,-2.9792,-2.9792,-2.9792,-2.9792,-2.9792,-2.9792,-2.9792,-2.9792,-2.9792,-2.9792,-2.9792,-2.9792,-2.9792,-2.9792,-2.9792,-2.9792,-2.9792,-2.9792,-2.9792,-2.9792,-2.9792,-2.9792,-2.9792,-2.9792,-2.9792,-2.9792,-2.9792,-2.9792,-2.9792,-2.9792,-2.9792,-2.9792,-2.9792,-2.9792,-2.9767,-2.9641,-2.8976,-2.8235,-2.7996,-2.7293,-2.665,-2.6524,-2.6499,-2.6499,-2.6499,-2.6499,-2.6499,-2.6499,-2.6499,-2.6285,-2.5548,-2.5096,-2.4562,-2.3916,-2.3396,-2.3108,-2.3108,-2.3108,-2.3108,-2.3108,-2.3108,-2.3108,-2.3108,-2.3108,-2.3108,-2.3108,-2.3108,-2.3108,-2.3108,-2.3108,-2.3108,-2.3108,-2.3108,-2.3108,-2.3108,-2.3108,-2.3108,-2.3108,-2.3108,-2.3108,-2.3108,-2.3108,-2.3108,-2.3138,-2.3767,-2.4031,-2.4147,-2.5481,-2.6122,-2.6336,-2.706,-2.7458,-2.76,-2.76,-2.76,-2.76,-2.9741,-2.9566,-2.9465,-2.9741,-2.9792,-2.9792,-2.9792,-2.9792,-2.9792,-2.9792,-2.9792,-2.9792,-2.9792,-2.9792,-2.9792,-2.9792,-2.9792,-2.9792,-2.9792,-2.9792,-2.9792,-2.9792,-2.9792,-2.9792,-2.9792,-2.9792,-2.9792,-2.9792,-2.9792,-2.9792,-2.9792,-2.9792,-2.9792,-2.9792,-2.9792,-2.9792,-2.9792,-2.9792,-2.9792,-2.9792,-2.9792,-2.9792,-2.9792,-2.9792,-2.9792,-2.9792,-2.9792,-2.9792,-2.9792,-2.9792,-2.9792,-2.9792,-2.9792,-2.9792,-2.9741,-2.9465,-2.8963,-2.8386,-2.7858,-2.7329,-2.6826,-2.6562,-2.6499,-2.6499,-2.6499,-2.6499,-2.6499,-2.6499,-2.6499,-2.6248,-2.5385,-2.5008,-2.4525,-2.3684,-2.3308,-2.3108,-2.3108,-2.3108,-2.3108,-2.3108,-2.3108,-2.3108,-2.3108,-2.3108,-2.3108,-2.3108,-2.3108,-2.3108,-2.3108,-2.3108,-2.3108,-2.3108,-2.3108,-2.3108,-2.3108,-2.3108,-2.3108,-2.3108,-2.3108,-2.3108,-2.3108,-2.3108,-2.3108,-2.3138,-2.3531,-2.3738,-2.3796,-2.4568,-2.5301,-2.6,-2.6402,-2.6967,-2.76,-2.76,-2.76,-2.76,-2.9415,-2.9114,-2.8938,-2.9415,-2.9503,-2.9541,-2.9628,-2.9641,-2.9679,-2.9779,-2.9792,-2.9792,-2.9792,-2.9792,-2.9792,-2.9792,-2.9792,-2.9792,-2.9792,-2.9792,-2.9792,-2.9792,-2.9792,-2.9792,-2.9792,-2.9792,-2.9792,-2.9792,-2.9792,-2.9792,-2.9792,-2.9792,-2.9792,-2.9792,-2.9792,-2.9792,-2.9792,-2.9792,-2.9792,-2.9792,-2.9792,-2.9792,-2.9792,-2.9792,-2.9792,-2.9792,-2.9792,-2.9792,-2.9792,-2.9792,-2.9792,-2.9792,-2.9792,-2.9792,-2.9691,-2.9214,-2.89,-2.8549,-2.767,-2.7281,-2.7065,-2.6612,-2.6499,-2.6499,-2.6499,-2.6499,-2.6499,-2.6499,-2.6499,-2.6185,-2.5146,-2.485,-2.4449,-2.3421,-2.317,-2.3108,-2.3108,-2.3108,-2.3108,-2.3108,-2.3108,-2.3108,-2.3108,-2.3108,-2.3108,-2.3108,-2.3108,-2.3108,-2.3108,-2.3108,-2.3108,-2.3108,-2.3108,-2.3108,-2.3108,-2.3108,-2.3108,-2.3108,-2.3108,-2.3108,-2.3108,-2.3108,-2.3108,-2.3108,-2.3258,-2.3305,-2.3335,-2.359,-2.4439,-2.5591,-2.5728,-2.6508,-2.76,-2.76,-2.76,-2.76,-2.831,-2.8273,-2.8235,-2.8323,-2.8335,-2.8499,-2.8938,-2.9013,-2.9227,-2.9729,-2.9792,-2.9792,-2.9792,-2.9792,-2.9792,-2.9792,-2.9792,-2.9792,-2.9792,-2.9792,-2.9792,-2.9792,-2.9792,-2.9792,-2.9792,-2.9792,-2.9792,-2.9792,-2.9792,-2.9792,-2.9792,-2.9792,-2.9792,-2.9792,-2.9792,-2.9792,-2.9792,-2.9792,-2.9792,-2.9792,-2.9792,-2.9792,-2.9792,-2.9792,-2.9792,-2.9792,-2.9792,-2.9792,-2.9792,-2.9792,-2.9792,-2.9792,-2.9792,-2.9792,-2.9779,-2.9691,-2.8976,-2.8185,-2.8034,-2.7293,-2.6587,-2.6512,-2.6499,-2.6499,-2.6499,-2.6499,-2.6499,-2.6499,-2.6499,-2.6298,-2.5611,-2.5121,-2.4587,-2.3991,-2.3434,-2.3108,-2.3108,-2.3108,-2.3108,-2.3108,-2.3108,-2.3108,-2.3108,-2.3108,-2.3108,-2.3108,-2.3108,-2.3108,-2.3108,-2.3108,-2.3108,-2.3108,-2.3108,-2.3108,-2.3108,-2.3108,-2.3108,-2.3108,-2.3108,-2.3108,-2.3108,-2.3108,-2.3108,-2.3125,-2.3826,-2.4147,-2.4234,-2.5494,-2.6176,-2.6416,-2.706,-2.7433,-2.76,-2.76,-2.76,-2.76,-2.8047,-2.7858,-2.7745,-2.8047,-2.8109,-2.8298,-2.8813,-2.8888,-2.9139,-2.9716,-2.9792,-2.9792,-2.9792,-2.9792,-2.9792,-2.9792,-2.9792,-2.9792,-2.9792,-2.9792,-2.9792,-2.9792,-2.9792,-2.9792,-2.9792,-2.9792,-2.9792,-2.9792,-2.9792,-2.9792,-2.9792,-2.9792,-2.9792,-2.9792,-2.9792,-2.9792,-2.9792,-2.9792,-2.9792,-2.9792,-2.9792,-2.9792,-2.9792,-2.9792,-2.9792,-2.9792,-2.9792,-2.9792,-2.9792,-2.9792,-2.9792,-2.9792,-2.9792,-2.9792,-2.9729,-2.9402,-2.8737,-2.8034,-2.772,-2.7102,-2.6499,-2.6499,-2.6499,-2.6499,-2.6499,-2.6499,-2.6499,-2.6499,-2.6499,-2.6223,-2.5322,-2.4938,-2.4499,-2.3622,-2.3271,-2.3108,-2.3108,-2.3108,-2.3108,-2.3108,-2.3108,-2.3108,-2.3108,-2.3108,-2.3108,-2.3108,-2.3108,-2.3108,-2.3108,-2.3108,-2.3108,-2.3108,-2.3108,-2.3108,-2.3108,-2.3108,-2.3108,-2.3108,-2.3108,-2.3108,-2.3108,-2.3108,-2.3108,-2.3138,-2.3484,-2.3884,-2.435,-2.5007,-2.5755,-2.6537,-2.6852,-2.7229,-2.76,-2.76,-2.76,-2.76]}]]